<?xml version='1.0' encoding='UTF-8'?>
<gpx version="1.1" creator="https://www.komoot.de" xmlns="http://www.topografix.com/GPX/1/1" xmlns:xsi="http://www.w3.org/2001/XMLSchema-instance" xsi:schemaLocation="http://www.topografix.com/GPX/1/1 http://www.topografix.com/GPX/1/1/gpx.xsd">
  <metadata>
    <name>260901 Groningen Ride: Edonbos</name>
    <author>
      <link href="https://www.komoot.de">
        <text>komoot</text>
        <type>text/html</type>
      </link>
    </author>
  </metadata>
  <trk>
    <name>260901 Groningen Ride: Edonbos</name>
    <type>touring_bicycle</type>
    <trkseg>
      <trkpt lat="53.240479" lon="6.536704">
        <ele>-4.225068</ele>
        <time>2026-09-01T14:32:08.692Z</time>
      </trkpt>
      <trkpt lat="53.240639" lon="6.536571">
        <ele>-4.225068</ele>
        <time>2026-09-01T14:32:20.959Z</time>
      </trkpt>
      <trkpt lat="53.240723" lon="6.536503">
        <ele>-4.225068</ele>
        <time>2026-09-01T14:32:23.959Z</time>
      </trkpt>
      <trkpt lat="53.240812" lon="6.536436">
        <ele>-4.225068</ele>
        <time>2026-09-01T14:32:26.965Z</time>
      </trkpt>
      <trkpt lat="53.240902" lon="6.536373">
        <ele>-4.225068</ele>
        <time>2026-09-01T14:32:29.965Z</time>
      </trkpt>
      <trkpt lat="53.241000" lon="6.536292">
        <ele>-4.225068</ele>
        <time>2026-09-01T14:32:33.957Z</time>
      </trkpt>
      <trkpt lat="53.241102" lon="6.536217">
        <ele>-4.225068</ele>
        <time>2026-09-01T14:32:38.966Z</time>
      </trkpt>
      <trkpt lat="53.241188" lon="6.536153">
        <ele>-4.225068</ele>
        <time>2026-09-01T14:32:42.965Z</time>
      </trkpt>
      <trkpt lat="53.241250" lon="6.536279">
        <ele>-4.225068</ele>
        <time>2026-09-01T14:32:46.966Z</time>
      </trkpt>
      <trkpt lat="53.241295" lon="6.536445">
        <ele>-4.361350</ele>
        <time>2026-09-01T14:32:49.966Z</time>
      </trkpt>
      <trkpt lat="53.241344" lon="6.536616">
        <ele>-4.534098</ele>
        <time>2026-09-01T14:32:52.961Z</time>
      </trkpt>
      <trkpt lat="53.241384" lon="6.536785">
        <ele>-4.699690</ele>
        <time>2026-09-01T14:32:55.961Z</time>
      </trkpt>
      <trkpt lat="53.241396" lon="6.536971">
        <ele>-4.870147</ele>
        <time>2026-09-01T14:32:58.968Z</time>
      </trkpt>
      <trkpt lat="53.241325" lon="6.537128">
        <ele>-5.049450</ele>
        <time>2026-09-01T14:33:01.967Z</time>
      </trkpt>
      <trkpt lat="53.241233" lon="6.537244">
        <ele>-5.224926</ele>
        <time>2026-09-01T14:33:04.961Z</time>
      </trkpt>
      <trkpt lat="53.241187" lon="6.537421">
        <ele>-5.400753</ele>
        <time>2026-09-01T14:33:07.960Z</time>
      </trkpt>
      <trkpt lat="53.241211" lon="6.537655">
        <ele>-5.617073</ele>
        <time>2026-09-01T14:33:10.965Z</time>
      </trkpt>
      <trkpt lat="53.241223" lon="6.537843">
        <ele>-5.789343</ele>
        <time>2026-09-01T14:33:13.966Z</time>
      </trkpt>
      <trkpt lat="53.241249" lon="6.537988">
        <ele>-5.927264</ele>
        <time>2026-09-01T14:33:15.957Z</time>
      </trkpt>
      <trkpt lat="53.241264" lon="6.538144">
        <ele>-6.071228</ele>
        <time>2026-09-01T14:33:17.966Z</time>
      </trkpt>
      <trkpt lat="53.241292" lon="6.538303">
        <ele>-6.222244</ele>
        <time>2026-09-01T14:33:19.965Z</time>
      </trkpt>
      <trkpt lat="53.241354" lon="6.538484">
        <ele>-6.412269</ele>
        <time>2026-09-01T14:33:22.961Z</time>
      </trkpt>
      <trkpt lat="53.241387" lon="6.538659">
        <ele>-6.579450</ele>
        <time>2026-09-01T14:33:25.965Z</time>
      </trkpt>
      <trkpt lat="53.241430" lon="6.538804">
        <ele>-6.726899</ele>
        <time>2026-09-01T14:33:27.966Z</time>
      </trkpt>
      <trkpt lat="53.241479" lon="6.538948">
        <ele>-6.877833</ele>
        <time>2026-09-01T14:33:29.963Z</time>
      </trkpt>
      <trkpt lat="53.241542" lon="6.539082">
        <ele>-6.867884</ele>
        <time>2026-09-01T14:33:31.965Z</time>
      </trkpt>
      <trkpt lat="53.241592" lon="6.539220">
        <ele>-6.665574</ele>
        <time>2026-09-01T14:33:33.962Z</time>
      </trkpt>
      <trkpt lat="53.241651" lon="6.539366">
        <ele>-6.444643</ele>
        <time>2026-09-01T14:33:35.967Z</time>
      </trkpt>
      <trkpt lat="53.241710" lon="6.539534">
        <ele>-6.200359</ele>
        <time>2026-09-01T14:33:37.969Z</time>
      </trkpt>
      <trkpt lat="53.241764" lon="6.539695">
        <ele>-5.968904</ele>
        <time>2026-09-01T14:33:39.966Z</time>
      </trkpt>
      <trkpt lat="53.241814" lon="6.539867">
        <ele>-5.729102</ele>
        <time>2026-09-01T14:33:41.968Z</time>
      </trkpt>
      <trkpt lat="53.241864" lon="6.540034">
        <ele>-5.494924</ele>
        <time>2026-09-01T14:33:43.962Z</time>
      </trkpt>
      <trkpt lat="53.241925" lon="6.540182">
        <ele>-5.269560</ele>
        <time>2026-09-01T14:33:45.965Z</time>
      </trkpt>
      <trkpt lat="53.241998" lon="6.540297">
        <ele>-5.059321</ele>
        <time>2026-09-01T14:33:47.957Z</time>
      </trkpt>
      <trkpt lat="53.242076" lon="6.540405">
        <ele>-4.847045</ele>
        <time>2026-09-01T14:33:49.968Z</time>
      </trkpt>
      <trkpt lat="53.242152" lon="6.540521">
        <ele>-4.631344</ele>
        <time>2026-09-01T14:33:51.962Z</time>
      </trkpt>
      <trkpt lat="53.242229" lon="6.540639">
        <ele>-4.412404</ele>
        <time>2026-09-01T14:33:53.974Z</time>
      </trkpt>
      <trkpt lat="53.242306" lon="6.540742">
        <ele>-4.205714</ele>
        <time>2026-09-01T14:33:55.973Z</time>
      </trkpt>
      <trkpt lat="53.242375" lon="6.540845">
        <ele>-4.011827</ele>
        <time>2026-09-01T14:33:57.958Z</time>
      </trkpt>
      <trkpt lat="53.242436" lon="6.540972">
        <ele>-3.807607</ele>
        <time>2026-09-01T14:33:59.973Z</time>
      </trkpt>
      <trkpt lat="53.242432" lon="6.541125">
        <ele>-3.615554</ele>
        <time>2026-09-01T14:34:01.973Z</time>
      </trkpt>
      <trkpt lat="53.242320" lon="6.541233">
        <ele>-3.344576</ele>
        <time>2026-09-01T14:34:04.973Z</time>
      </trkpt>
      <trkpt lat="53.242189" lon="6.541327">
        <ele>-3.205317</ele>
        <time>2026-09-01T14:34:07.958Z</time>
      </trkpt>
      <trkpt lat="53.242101" lon="6.541379">
        <ele>-3.219703</ele>
        <time>2026-09-01T14:34:09.973Z</time>
      </trkpt>
      <trkpt lat="53.241974" lon="6.541441">
        <ele>-3.240095</ele>
        <time>2026-09-01T14:34:12.959Z</time>
      </trkpt>
      <trkpt lat="53.241851" lon="6.541507">
        <ele>-3.260006</ele>
        <time>2026-09-01T14:34:15.957Z</time>
      </trkpt>
      <trkpt lat="53.241720" lon="6.541561">
        <ele>-3.280801</ele>
        <time>2026-09-01T14:34:18.956Z</time>
      </trkpt>
      <trkpt lat="53.241630" lon="6.541611">
        <ele>-3.295419</ele>
        <time>2026-09-01T14:34:20.965Z</time>
      </trkpt>
      <trkpt lat="53.241543" lon="6.541666">
        <ele>-3.309755</ele>
        <time>2026-09-01T14:34:22.969Z</time>
      </trkpt>
      <trkpt lat="53.241448" lon="6.541702">
        <ele>-3.324769</ele>
        <time>2026-09-01T14:34:24.982Z</time>
      </trkpt>
      <trkpt lat="53.241356" lon="6.541741">
        <ele>-3.339397</ele>
        <time>2026-09-01T14:34:26.965Z</time>
      </trkpt>
      <trkpt lat="53.241264" lon="6.541784">
        <ele>-3.354121</ele>
        <time>2026-09-01T14:34:28.965Z</time>
      </trkpt>
      <trkpt lat="53.241165" lon="6.541827">
        <ele>-3.369886</ele>
        <time>2026-09-01T14:34:30.965Z</time>
      </trkpt>
      <trkpt lat="53.241073" lon="6.541873">
        <ele>-3.384687</ele>
        <time>2026-09-01T14:34:32.964Z</time>
      </trkpt>
      <trkpt lat="53.240975" lon="6.541912">
        <ele>-3.400214</ele>
        <time>2026-09-01T14:34:34.965Z</time>
      </trkpt>
      <trkpt lat="53.240877" lon="6.541953">
        <ele>-3.415784</ele>
        <time>2026-09-01T14:34:36.961Z</time>
      </trkpt>
      <trkpt lat="53.240781" lon="6.541996">
        <ele>-3.431102</ele>
        <time>2026-09-01T14:34:38.966Z</time>
      </trkpt>
      <trkpt lat="53.240684" lon="6.542043">
        <ele>-3.446668</ele>
        <time>2026-09-01T14:34:40.966Z</time>
      </trkpt>
      <trkpt lat="53.240588" lon="6.542089">
        <ele>-3.462060</ele>
        <time>2026-09-01T14:34:42.965Z</time>
      </trkpt>
      <trkpt lat="53.240493" lon="6.542133">
        <ele>-3.496392</ele>
        <time>2026-09-01T14:34:44.959Z</time>
      </trkpt>
      <trkpt lat="53.240395" lon="6.542178">
        <ele>-3.565113</ele>
        <time>2026-09-01T14:34:46.965Z</time>
      </trkpt>
      <trkpt lat="53.240294" lon="6.542220">
        <ele>-3.635489</ele>
        <time>2026-09-01T14:34:48.965Z</time>
      </trkpt>
      <trkpt lat="53.240196" lon="6.542271">
        <ele>-3.704893</ele>
        <time>2026-09-01T14:34:50.965Z</time>
      </trkpt>
      <trkpt lat="53.240090" lon="6.542314">
        <ele>-3.778649</ele>
        <time>2026-09-01T14:34:52.965Z</time>
      </trkpt>
      <trkpt lat="53.239984" lon="6.542364">
        <ele>-3.853124</ele>
        <time>2026-09-01T14:34:54.965Z</time>
      </trkpt>
      <trkpt lat="53.239885" lon="6.542411">
        <ele>-3.922714</ele>
        <time>2026-09-01T14:34:56.965Z</time>
      </trkpt>
      <trkpt lat="53.239788" lon="6.542459">
        <ele>-3.991118</ele>
        <time>2026-09-01T14:34:58.965Z</time>
      </trkpt>
      <trkpt lat="53.239691" lon="6.542494">
        <ele>-4.058218</ele>
        <time>2026-09-01T14:35:00.960Z</time>
      </trkpt>
      <trkpt lat="53.239594" lon="6.542539">
        <ele>-4.126288</ele>
        <time>2026-09-01T14:35:02.965Z</time>
      </trkpt>
      <trkpt lat="53.239492" lon="6.542574">
        <ele>-4.196696</ele>
        <time>2026-09-01T14:35:04.960Z</time>
      </trkpt>
      <trkpt lat="53.239386" lon="6.542590">
        <ele>-4.268662</ele>
        <time>2026-09-01T14:35:06.966Z</time>
      </trkpt>
      <trkpt lat="53.239283" lon="6.542614">
        <ele>-4.338981</ele>
        <time>2026-09-01T14:35:08.965Z</time>
      </trkpt>
      <trkpt lat="53.239190" lon="6.542646">
        <ele>-4.403184</ele>
        <time>2026-09-01T14:35:10.965Z</time>
      </trkpt>
      <trkpt lat="53.239091" lon="6.542681">
        <ele>-4.471607</ele>
        <time>2026-09-01T14:35:12.964Z</time>
      </trkpt>
      <trkpt lat="53.238987" lon="6.542715">
        <ele>-4.543262</ele>
        <time>2026-09-01T14:35:14.965Z</time>
      </trkpt>
      <trkpt lat="53.238878" lon="6.542746">
        <ele>-4.618024</ele>
        <time>2026-09-01T14:35:16.965Z</time>
      </trkpt>
      <trkpt lat="53.238787" lon="6.542773">
        <ele>-4.680518</ele>
        <time>2026-09-01T14:35:18.961Z</time>
      </trkpt>
      <trkpt lat="53.238678" lon="6.542805">
        <ele>-4.754170</ele>
        <time>2026-09-01T14:35:20.960Z</time>
      </trkpt>
      <trkpt lat="53.238577" lon="6.542842">
        <ele>-4.822864</ele>
        <time>2026-09-01T14:35:22.965Z</time>
      </trkpt>
      <trkpt lat="53.238482" lon="6.542876">
        <ele>-4.887409</ele>
        <time>2026-09-01T14:35:24.965Z</time>
      </trkpt>
      <trkpt lat="53.238386" lon="6.542909">
        <ele>-4.952523</ele>
        <time>2026-09-01T14:35:26.958Z</time>
      </trkpt>
      <trkpt lat="53.238292" lon="6.542944">
        <ele>-5.016505</ele>
        <time>2026-09-01T14:35:28.965Z</time>
      </trkpt>
      <trkpt lat="53.238194" lon="6.542972">
        <ele>-5.082557</ele>
        <time>2026-09-01T14:35:30.965Z</time>
      </trkpt>
      <trkpt lat="53.238091" lon="6.543003">
        <ele>-5.152087</ele>
        <time>2026-09-01T14:35:32.961Z</time>
      </trkpt>
      <trkpt lat="53.237984" lon="6.543038">
        <ele>-5.224523</ele>
        <time>2026-09-01T14:35:34.966Z</time>
      </trkpt>
      <trkpt lat="53.237888" lon="6.543073">
        <ele>-5.289802</ele>
        <time>2026-09-01T14:35:36.964Z</time>
      </trkpt>
      <trkpt lat="53.237781" lon="6.543105">
        <ele>-5.362018</ele>
        <time>2026-09-01T14:35:38.966Z</time>
      </trkpt>
      <trkpt lat="53.237677" lon="6.543144">
        <ele>-5.432830</ele>
        <time>2026-09-01T14:35:40.966Z</time>
      </trkpt>
      <trkpt lat="53.237578" lon="6.543187">
        <ele>-5.500788</ele>
        <time>2026-09-01T14:35:42.965Z</time>
      </trkpt>
      <trkpt lat="53.237465" lon="6.543244">
        <ele>-5.579207</ele>
        <time>2026-09-01T14:35:45.960Z</time>
      </trkpt>
      <trkpt lat="53.237361" lon="6.543319">
        <ele>-5.654461</ele>
        <time>2026-09-01T14:35:48.965Z</time>
      </trkpt>
      <trkpt lat="53.237248" lon="6.543399">
        <ele>-5.735995</ele>
        <time>2026-09-01T14:35:51.967Z</time>
      </trkpt>
      <trkpt lat="53.237158" lon="6.543469">
        <ele>-5.801948</ele>
        <time>2026-09-01T14:35:53.965Z</time>
      </trkpt>
      <trkpt lat="53.237068" lon="6.543521">
        <ele>-5.865214</ele>
        <time>2026-09-01T14:35:55.965Z</time>
      </trkpt>
      <trkpt lat="53.236953" lon="6.543593">
        <ele>-5.719983</ele>
        <time>2026-09-01T14:35:58.959Z</time>
      </trkpt>
      <trkpt lat="53.236840" lon="6.543652">
        <ele>-5.520183</ele>
        <time>2026-09-01T14:36:01.965Z</time>
      </trkpt>
      <trkpt lat="53.236726" lon="6.543700">
        <ele>-5.321775</ele>
        <time>2026-09-01T14:36:04.959Z</time>
      </trkpt>
      <trkpt lat="53.236594" lon="6.543768">
        <ele>-5.088655</ele>
        <time>2026-09-01T14:36:08.967Z</time>
      </trkpt>
      <trkpt lat="53.236508" lon="6.543918">
        <ele>-4.878843</ele>
        <time>2026-09-01T14:36:11.958Z</time>
      </trkpt>
      <trkpt lat="53.236563" lon="6.544081">
        <ele>-4.689836</ele>
        <time>2026-09-01T14:36:14.960Z</time>
      </trkpt>
      <trkpt lat="53.236654" lon="6.544255">
        <ele>-4.456436</ele>
        <time>2026-09-01T14:36:17.957Z</time>
      </trkpt>
      <trkpt lat="53.236672" lon="6.544403">
        <ele>-4.303888</ele>
        <time>2026-09-01T14:36:19.960Z</time>
      </trkpt>
      <trkpt lat="53.236689" lon="6.544553">
        <ele>-4.149684</ele>
        <time>2026-09-01T14:36:21.973Z</time>
      </trkpt>
      <trkpt lat="53.236710" lon="6.544711">
        <ele>-3.986203</ele>
        <time>2026-09-01T14:36:23.966Z</time>
      </trkpt>
      <trkpt lat="53.236747" lon="6.544865">
        <ele>-3.818585</ele>
        <time>2026-09-01T14:36:25.973Z</time>
      </trkpt>
      <trkpt lat="53.236796" lon="6.545026">
        <ele>-3.636144</ele>
        <time>2026-09-01T14:36:27.961Z</time>
      </trkpt>
      <trkpt lat="53.236836" lon="6.545195">
        <ele>-3.452577</ele>
        <time>2026-09-01T14:36:29.966Z</time>
      </trkpt>
      <trkpt lat="53.236864" lon="6.545358">
        <ele>-3.281287</ele>
        <time>2026-09-01T14:36:31.973Z</time>
      </trkpt>
      <trkpt lat="53.236914" lon="6.545507">
        <ele>-3.108744</ele>
        <time>2026-09-01T14:36:33.973Z</time>
      </trkpt>
      <trkpt lat="53.236948" lon="6.545660">
        <ele>-2.943893</ele>
        <time>2026-09-01T14:36:35.973Z</time>
      </trkpt>
      <trkpt lat="53.236970" lon="6.545812">
        <ele>-2.853811</ele>
        <time>2026-09-01T14:36:37.973Z</time>
      </trkpt>
      <trkpt lat="53.236996" lon="6.545978">
        <ele>-2.872397</ele>
        <time>2026-09-01T14:36:39.962Z</time>
      </trkpt>
      <trkpt lat="53.237021" lon="6.546159">
        <ele>-2.892518</ele>
        <time>2026-09-01T14:36:41.962Z</time>
      </trkpt>
      <trkpt lat="53.237051" lon="6.546341">
        <ele>-2.912965</ele>
        <time>2026-09-01T14:36:43.973Z</time>
      </trkpt>
      <trkpt lat="53.237082" lon="6.546515">
        <ele>-2.932630</ele>
        <time>2026-09-01T14:36:45.973Z</time>
      </trkpt>
      <trkpt lat="53.237099" lon="6.546696">
        <ele>-2.952475</ele>
        <time>2026-09-01T14:36:47.963Z</time>
      </trkpt>
      <trkpt lat="53.237108" lon="6.546872">
        <ele>-2.971609</ele>
        <time>2026-09-01T14:36:49.973Z</time>
      </trkpt>
      <trkpt lat="53.237089" lon="6.547041">
        <ele>-2.990234</ele>
        <time>2026-09-01T14:36:51.962Z</time>
      </trkpt>
      <trkpt lat="53.237086" lon="6.547216">
        <ele>-3.009198</ele>
        <time>2026-09-01T14:36:53.964Z</time>
      </trkpt>
      <trkpt lat="53.237119" lon="6.547384">
        <ele>-3.028350</ele>
        <time>2026-09-01T14:36:55.973Z</time>
      </trkpt>
      <trkpt lat="53.237147" lon="6.547541">
        <ele>-3.046095</ele>
        <time>2026-09-01T14:36:57.961Z</time>
      </trkpt>
      <trkpt lat="53.237180" lon="6.547708">
        <ele>-3.065144</ele>
        <time>2026-09-01T14:36:59.962Z</time>
      </trkpt>
      <trkpt lat="53.237211" lon="6.547875">
        <ele>-3.084083</ele>
        <time>2026-09-01T14:37:01.961Z</time>
      </trkpt>
      <trkpt lat="53.237235" lon="6.548033">
        <ele>-3.101740</ele>
        <time>2026-09-01T14:37:03.973Z</time>
      </trkpt>
      <trkpt lat="53.237270" lon="6.548204">
        <ele>-3.121315</ele>
        <time>2026-09-01T14:37:05.966Z</time>
      </trkpt>
      <trkpt lat="53.237305" lon="6.548358">
        <ele>-3.139158</ele>
        <time>2026-09-01T14:37:07.963Z</time>
      </trkpt>
      <trkpt lat="53.237367" lon="6.548494">
        <ele>-3.157676</ele>
        <time>2026-09-01T14:37:09.973Z</time>
      </trkpt>
      <trkpt lat="53.237447" lon="6.548603">
        <ele>-3.160455</ele>
        <time>2026-09-01T14:37:11.973Z</time>
      </trkpt>
      <trkpt lat="53.237506" lon="6.548730">
        <ele>-3.101007</ele>
        <time>2026-09-01T14:37:13.964Z</time>
      </trkpt>
      <trkpt lat="53.237531" lon="6.548894">
        <ele>-3.038429</ele>
        <time>2026-09-01T14:37:15.964Z</time>
      </trkpt>
      <trkpt lat="53.237564" lon="6.549061">
        <ele>-2.973398</ele>
        <time>2026-09-01T14:37:17.974Z</time>
      </trkpt>
      <trkpt lat="53.237590" lon="6.549225">
        <ele>-2.910665</ele>
        <time>2026-09-01T14:37:19.965Z</time>
      </trkpt>
      <trkpt lat="53.237622" lon="6.549384">
        <ele>-2.848636</ele>
        <time>2026-09-01T14:37:21.962Z</time>
      </trkpt>
      <trkpt lat="53.237649" lon="6.549548">
        <ele>-2.785742</ele>
        <time>2026-09-01T14:37:23.973Z</time>
      </trkpt>
      <trkpt lat="53.237681" lon="6.549710">
        <ele>-2.722661</ele>
        <time>2026-09-01T14:37:25.963Z</time>
      </trkpt>
      <trkpt lat="53.237713" lon="6.549875">
        <ele>-2.658526</ele>
        <time>2026-09-01T14:37:27.973Z</time>
      </trkpt>
      <trkpt lat="53.237747" lon="6.550038">
        <ele>-2.594699</ele>
        <time>2026-09-01T14:37:29.973Z</time>
      </trkpt>
      <trkpt lat="53.237770" lon="6.550203">
        <ele>-2.532054</ele>
        <time>2026-09-01T14:37:31.964Z</time>
      </trkpt>
      <trkpt lat="53.237761" lon="6.550364">
        <ele>-2.472262</ele>
        <time>2026-09-01T14:37:33.961Z</time>
      </trkpt>
      <trkpt lat="53.237735" lon="6.550529">
        <ele>-2.409171</ele>
        <time>2026-09-01T14:37:35.962Z</time>
      </trkpt>
      <trkpt lat="53.237717" lon="6.550700">
        <ele>-2.344971</ele>
        <time>2026-09-01T14:37:37.973Z</time>
      </trkpt>
      <trkpt lat="53.237729" lon="6.550869">
        <ele>-2.282042</ele>
        <time>2026-09-01T14:37:39.963Z</time>
      </trkpt>
      <trkpt lat="53.237759" lon="6.551033">
        <ele>-2.218631</ele>
        <time>2026-09-01T14:37:41.962Z</time>
      </trkpt>
      <trkpt lat="53.237781" lon="6.551182">
        <ele>-2.161883</ele>
        <time>2026-09-01T14:37:43.961Z</time>
      </trkpt>
      <trkpt lat="53.237806" lon="6.551342">
        <ele>-2.100738</ele>
        <time>2026-09-01T14:37:45.965Z</time>
      </trkpt>
      <trkpt lat="53.237830" lon="6.551499">
        <ele>-2.074537</ele>
        <time>2026-09-01T14:37:47.973Z</time>
      </trkpt>
      <trkpt lat="53.237867" lon="6.551651">
        <ele>-2.112774</ele>
        <time>2026-09-01T14:37:49.960Z</time>
      </trkpt>
      <trkpt lat="53.237928" lon="6.551784">
        <ele>-2.151820</ele>
        <time>2026-09-01T14:37:51.964Z</time>
      </trkpt>
      <trkpt lat="53.238004" lon="6.551900">
        <ele>-2.191898</ele>
        <time>2026-09-01T14:37:53.960Z</time>
      </trkpt>
      <trkpt lat="53.238061" lon="6.552042">
        <ele>-2.231740</ele>
        <time>2026-09-01T14:37:55.961Z</time>
      </trkpt>
      <trkpt lat="53.238076" lon="6.552217">
        <ele>-2.272935</ele>
        <time>2026-09-01T14:37:57.962Z</time>
      </trkpt>
      <trkpt lat="53.238092" lon="6.552386">
        <ele>-2.312805</ele>
        <time>2026-09-01T14:37:59.973Z</time>
      </trkpt>
      <trkpt lat="53.238105" lon="6.552556">
        <ele>-2.352741</ele>
        <time>2026-09-01T14:38:01.961Z</time>
      </trkpt>
      <trkpt lat="53.238113" lon="6.552734">
        <ele>-2.394335</ele>
        <time>2026-09-01T14:38:03.961Z</time>
      </trkpt>
      <trkpt lat="53.238123" lon="6.552913">
        <ele>-2.436227</ele>
        <time>2026-09-01T14:38:05.973Z</time>
      </trkpt>
      <trkpt lat="53.238132" lon="6.553079">
        <ele>-2.475067</ele>
        <time>2026-09-01T14:38:07.973Z</time>
      </trkpt>
      <trkpt lat="53.238150" lon="6.553320">
        <ele>-2.531660</ele>
        <time>2026-09-01T14:38:10.963Z</time>
      </trkpt>
      <trkpt lat="53.238156" lon="6.553505">
        <ele>-2.574833</ele>
        <time>2026-09-01T14:38:12.964Z</time>
      </trkpt>
      <trkpt lat="53.238157" lon="6.553669">
        <ele>-2.613050</ele>
        <time>2026-09-01T14:38:14.961Z</time>
      </trkpt>
      <trkpt lat="53.238167" lon="6.553847">
        <ele>-2.654710</ele>
        <time>2026-09-01T14:38:16.973Z</time>
      </trkpt>
      <trkpt lat="53.238156" lon="6.554000">
        <ele>-2.690618</ele>
        <time>2026-09-01T14:38:18.964Z</time>
      </trkpt>
      <trkpt lat="53.238154" lon="6.554159">
        <ele>-2.727677</ele>
        <time>2026-09-01T14:38:20.958Z</time>
      </trkpt>
      <trkpt lat="53.238145" lon="6.554348">
        <ele>-2.784159</ele>
        <time>2026-09-01T14:38:23.966Z</time>
      </trkpt>
      <trkpt lat="53.238145" lon="6.554522">
        <ele>-2.874305</ele>
        <time>2026-09-01T14:38:30.960Z</time>
      </trkpt>
      <trkpt lat="53.238148" lon="6.554679">
        <ele>-2.955684</ele>
        <time>2026-09-01T14:38:33.966Z</time>
      </trkpt>
      <trkpt lat="53.238147" lon="6.554864">
        <ele>-3.051532</ele>
        <time>2026-09-01T14:38:36.964Z</time>
      </trkpt>
      <trkpt lat="53.238147" lon="6.555095">
        <ele>-3.171208</ele>
        <time>2026-09-01T14:38:39.957Z</time>
      </trkpt>
      <trkpt lat="53.238146" lon="6.555318">
        <ele>-3.286743</ele>
        <time>2026-09-01T14:38:42.961Z</time>
      </trkpt>
      <trkpt lat="53.238145" lon="6.555479">
        <ele>-3.370157</ele>
        <time>2026-09-01T14:38:44.973Z</time>
      </trkpt>
      <trkpt lat="53.238141" lon="6.555651">
        <ele>-3.459334</ele>
        <time>2026-09-01T14:38:46.974Z</time>
      </trkpt>
      <trkpt lat="53.238154" lon="6.555845">
        <ele>-3.560469</ele>
        <time>2026-09-01T14:38:48.961Z</time>
      </trkpt>
      <trkpt lat="53.238151" lon="6.556027">
        <ele>-3.654795</ele>
        <time>2026-09-01T14:38:50.957Z</time>
      </trkpt>
      <trkpt lat="53.238151" lon="6.556189">
        <ele>-3.738723</ele>
        <time>2026-09-01T14:38:52.962Z</time>
      </trkpt>
      <trkpt lat="53.238162" lon="6.556377">
        <ele>-3.836586</ele>
        <time>2026-09-01T14:38:54.989Z</time>
      </trkpt>
      <trkpt lat="53.238165" lon="6.556554">
        <ele>-3.928322</ele>
        <time>2026-09-01T14:38:56.975Z</time>
      </trkpt>
      <trkpt lat="53.238161" lon="6.556730">
        <ele>-4.019569</ele>
        <time>2026-09-01T14:38:58.975Z</time>
      </trkpt>
      <trkpt lat="53.238164" lon="6.556905">
        <ele>-4.110270</ele>
        <time>2026-09-01T14:39:00.958Z</time>
      </trkpt>
      <trkpt lat="53.238168" lon="6.557065">
        <ele>-4.193235</ele>
        <time>2026-09-01T14:39:02.962Z</time>
      </trkpt>
      <trkpt lat="53.238152" lon="6.557247">
        <ele>-4.288536</ele>
        <time>2026-09-01T14:39:04.961Z</time>
      </trkpt>
      <trkpt lat="53.238152" lon="6.557417">
        <ele>-4.282001</ele>
        <time>2026-09-01T14:39:06.975Z</time>
      </trkpt>
      <trkpt lat="53.238147" lon="6.557597">
        <ele>-4.222637</ele>
        <time>2026-09-01T14:39:08.974Z</time>
      </trkpt>
      <trkpt lat="53.238149" lon="6.557773">
        <ele>-4.164644</ele>
        <time>2026-09-01T14:39:10.958Z</time>
      </trkpt>
      <trkpt lat="53.238197" lon="6.557931">
        <ele>-4.106269</ele>
        <time>2026-09-01T14:39:12.974Z</time>
      </trkpt>
      <trkpt lat="53.238214" lon="6.558128">
        <ele>-4.040697</ele>
        <time>2026-09-01T14:39:14.960Z</time>
      </trkpt>
      <trkpt lat="53.238205" lon="6.558296">
        <ele>-3.985129</ele>
        <time>2026-09-01T14:39:16.966Z</time>
      </trkpt>
      <trkpt lat="53.238202" lon="6.558489">
        <ele>-3.921525</ele>
        <time>2026-09-01T14:39:18.956Z</time>
      </trkpt>
      <trkpt lat="53.238198" lon="6.558670">
        <ele>-3.861855</ele>
        <time>2026-09-01T14:39:20.965Z</time>
      </trkpt>
      <trkpt lat="53.238190" lon="6.558867">
        <ele>-3.796805</ele>
        <time>2026-09-01T14:39:22.975Z</time>
      </trkpt>
      <trkpt lat="53.238183" lon="6.559056">
        <ele>-3.734420</ele>
        <time>2026-09-01T14:39:24.958Z</time>
      </trkpt>
      <trkpt lat="53.238182" lon="6.559236">
        <ele>-3.675118</ele>
        <time>2026-09-01T14:39:26.973Z</time>
      </trkpt>
      <trkpt lat="53.238181" lon="6.559410">
        <ele>-3.617791</ele>
        <time>2026-09-01T14:39:28.975Z</time>
      </trkpt>
      <trkpt lat="53.238176" lon="6.559584">
        <ele>-3.560402</ele>
        <time>2026-09-01T14:39:30.975Z</time>
      </trkpt>
      <trkpt lat="53.238153" lon="6.559754">
        <ele>-3.502983</ele>
        <time>2026-09-01T14:39:32.959Z</time>
      </trkpt>
      <trkpt lat="53.238121" lon="6.559919">
        <ele>-3.445842</ele>
        <time>2026-09-01T14:39:34.958Z</time>
      </trkpt>
      <trkpt lat="53.238083" lon="6.560089">
        <ele>-3.386057</ele>
        <time>2026-09-01T14:39:36.966Z</time>
      </trkpt>
      <trkpt lat="53.238054" lon="6.560261">
        <ele>-3.328190</ele>
        <time>2026-09-01T14:39:38.973Z</time>
      </trkpt>
      <trkpt lat="53.238028" lon="6.560448">
        <ele>-3.307053</ele>
        <time>2026-09-01T14:39:40.960Z</time>
      </trkpt>
      <trkpt lat="53.237995" lon="6.560630">
        <ele>-3.286115</ele>
        <time>2026-09-01T14:39:42.959Z</time>
      </trkpt>
      <trkpt lat="53.237956" lon="6.560812">
        <ele>-3.264831</ele>
        <time>2026-09-01T14:39:44.960Z</time>
      </trkpt>
      <trkpt lat="53.237922" lon="6.560994">
        <ele>-3.243840</ele>
        <time>2026-09-01T14:39:46.959Z</time>
      </trkpt>
      <trkpt lat="53.237884" lon="6.561177">
        <ele>-3.222513</ele>
        <time>2026-09-01T14:39:48.959Z</time>
      </trkpt>
      <trkpt lat="53.237847" lon="6.561359">
        <ele>-3.201350</ele>
        <time>2026-09-01T14:39:50.964Z</time>
      </trkpt>
      <trkpt lat="53.237813" lon="6.561547">
        <ele>-3.179727</ele>
        <time>2026-09-01T14:39:52.958Z</time>
      </trkpt>
      <trkpt lat="53.237775" lon="6.561738">
        <ele>-3.157567</ele>
        <time>2026-09-01T14:39:54.958Z</time>
      </trkpt>
      <trkpt lat="53.237735" lon="6.561932">
        <ele>-3.134975</ele>
        <time>2026-09-01T14:39:56.960Z</time>
      </trkpt>
      <trkpt lat="53.237695" lon="6.562118">
        <ele>-3.113214</ele>
        <time>2026-09-01T14:39:58.961Z</time>
      </trkpt>
      <trkpt lat="53.237661" lon="6.562308">
        <ele>-3.091380</ele>
        <time>2026-09-01T14:40:00.959Z</time>
      </trkpt>
      <trkpt lat="53.237619" lon="6.562504">
        <ele>-3.068459</ele>
        <time>2026-09-01T14:40:02.958Z</time>
      </trkpt>
      <trkpt lat="53.237577" lon="6.562702">
        <ele>-3.045330</ele>
        <time>2026-09-01T14:40:04.960Z</time>
      </trkpt>
      <trkpt lat="53.237540" lon="6.562898">
        <ele>-3.022703</ele>
        <time>2026-09-01T14:40:06.960Z</time>
      </trkpt>
      <trkpt lat="53.237497" lon="6.563076">
        <ele>-3.001568</ele>
        <time>2026-09-01T14:40:08.960Z</time>
      </trkpt>
      <trkpt lat="53.237449" lon="6.563276">
        <ele>-2.977181</ele>
        <time>2026-09-01T14:40:10.960Z</time>
      </trkpt>
      <trkpt lat="53.237411" lon="6.563458">
        <ele>-2.955254</ele>
        <time>2026-09-01T14:40:12.959Z</time>
      </trkpt>
      <trkpt lat="53.237374" lon="6.563646">
        <ele>-2.932742</ele>
        <time>2026-09-01T14:40:14.960Z</time>
      </trkpt>
      <trkpt lat="53.237339" lon="6.563832">
        <ele>-2.910562</ele>
        <time>2026-09-01T14:40:16.959Z</time>
      </trkpt>
      <trkpt lat="53.237303" lon="6.564019">
        <ele>-2.888216</ele>
        <time>2026-09-01T14:40:18.974Z</time>
      </trkpt>
      <trkpt lat="53.237266" lon="6.564204">
        <ele>-2.866028</ele>
        <time>2026-09-01T14:40:20.973Z</time>
      </trkpt>
      <trkpt lat="53.237234" lon="6.564387">
        <ele>-2.844340</ele>
        <time>2026-09-01T14:40:22.964Z</time>
      </trkpt>
      <trkpt lat="53.237198" lon="6.564568">
        <ele>-2.822643</ele>
        <time>2026-09-01T14:40:24.960Z</time>
      </trkpt>
      <trkpt lat="53.237158" lon="6.564755">
        <ele>-2.800053</ele>
        <time>2026-09-01T14:40:26.958Z</time>
      </trkpt>
      <trkpt lat="53.237123" lon="6.564936">
        <ele>-2.778416</ele>
        <time>2026-09-01T14:40:28.965Z</time>
      </trkpt>
      <trkpt lat="53.237090" lon="6.565125">
        <ele>-2.756020</ele>
        <time>2026-09-01T14:40:30.965Z</time>
      </trkpt>
      <trkpt lat="53.237050" lon="6.565306">
        <ele>-2.734071</ele>
        <time>2026-09-01T14:40:32.965Z</time>
      </trkpt>
      <trkpt lat="53.237015" lon="6.565491">
        <ele>-2.712000</ele>
        <time>2026-09-01T14:40:34.965Z</time>
      </trkpt>
      <trkpt lat="53.236989" lon="6.565651">
        <ele>-2.693140</ele>
        <time>2026-09-01T14:40:36.965Z</time>
      </trkpt>
      <trkpt lat="53.236955" lon="6.565824">
        <ele>-2.672427</ele>
        <time>2026-09-01T14:40:38.957Z</time>
      </trkpt>
      <trkpt lat="53.236867" lon="6.565962">
        <ele>-2.631161</ele>
        <time>2026-09-01T14:40:41.959Z</time>
      </trkpt>
      <trkpt lat="53.236765" lon="6.565899">
        <ele>-2.551875</ele>
        <time>2026-09-01T14:40:44.965Z</time>
      </trkpt>
      <trkpt lat="53.236633" lon="6.565810">
        <ele>-2.448095</ele>
        <time>2026-09-01T14:40:47.956Z</time>
      </trkpt>
      <trkpt lat="53.236514" lon="6.565731">
        <ele>-2.354736</ele>
        <time>2026-09-01T14:40:50.957Z</time>
      </trkpt>
      <trkpt lat="53.236386" lon="6.565642">
        <ele>-2.253654</ele>
        <time>2026-09-01T14:40:53.957Z</time>
      </trkpt>
      <trkpt lat="53.236290" lon="6.565583">
        <ele>-2.179077</ele>
        <time>2026-09-01T14:40:55.965Z</time>
      </trkpt>
      <trkpt lat="53.236204" lon="6.565532">
        <ele>-2.112543</ele>
        <time>2026-09-01T14:40:57.966Z</time>
      </trkpt>
      <trkpt lat="53.236078" lon="6.565460">
        <ele>-2.015453</ele>
        <time>2026-09-01T14:41:00.973Z</time>
      </trkpt>
      <trkpt lat="53.235995" lon="6.565520">
        <ele>-1.949518</ele>
        <time>2026-09-01T14:41:04.965Z</time>
      </trkpt>
      <trkpt lat="53.235952" lon="6.565663">
        <ele>-1.879684</ele>
        <time>2026-09-01T14:41:16.966Z</time>
      </trkpt>
      <trkpt lat="53.235913" lon="6.565844">
        <ele>-1.795738</ele>
        <time>2026-09-01T14:41:20.959Z</time>
      </trkpt>
      <trkpt lat="53.235952" lon="6.565997">
        <ele>-1.723170</ele>
        <time>2026-09-01T14:41:24.965Z</time>
      </trkpt>
      <trkpt lat="53.236048" lon="6.566045">
        <ele>-1.650110</ele>
        <time>2026-09-01T14:41:27.965Z</time>
      </trkpt>
      <trkpt lat="53.236135" lon="6.565984">
        <ele>-1.581321</ele>
        <time>2026-09-01T14:41:30.965Z</time>
      </trkpt>
      <trkpt lat="53.236232" lon="6.565986">
        <ele>-1.510594</ele>
        <time>2026-09-01T14:41:33.967Z</time>
      </trkpt>
      <trkpt lat="53.236332" lon="6.566066">
        <ele>-1.429758</ele>
        <time>2026-09-01T14:41:36.961Z</time>
      </trkpt>
      <trkpt lat="53.236433" lon="6.566148">
        <ele>-1.347887</ele>
        <time>2026-09-01T14:41:39.960Z</time>
      </trkpt>
      <trkpt lat="53.236539" lon="6.566230">
        <ele>-1.094082</ele>
        <time>2026-09-01T14:41:42.965Z</time>
      </trkpt>
      <trkpt lat="53.236643" lon="6.566303">
        <ele>-0.842403</ele>
        <time>2026-09-01T14:41:45.966Z</time>
      </trkpt>
      <trkpt lat="53.236746" lon="6.566382">
        <ele>-0.589544</ele>
        <time>2026-09-01T14:41:48.965Z</time>
      </trkpt>
      <trkpt lat="53.236847" lon="6.566467">
        <ele>-0.337233</ele>
        <time>2026-09-01T14:41:51.966Z</time>
      </trkpt>
      <trkpt lat="53.236949" lon="6.566547">
        <ele>-0.085835</ele>
        <time>2026-09-01T14:41:54.965Z</time>
      </trkpt>
      <trkpt lat="53.237054" lon="6.566623">
        <ele>0.169467</ele>
        <time>2026-09-01T14:41:57.965Z</time>
      </trkpt>
      <trkpt lat="53.237168" lon="6.566689">
        <ele>0.438648</ele>
        <time>2026-09-01T14:42:00.965Z</time>
      </trkpt>
      <trkpt lat="53.237278" lon="6.566763">
        <ele>0.703214</ele>
        <time>2026-09-01T14:42:03.966Z</time>
      </trkpt>
      <trkpt lat="53.237382" lon="6.566834">
        <ele>0.953869</ele>
        <time>2026-09-01T14:42:06.959Z</time>
      </trkpt>
      <trkpt lat="53.237484" lon="6.566913">
        <ele>1.204701</ele>
        <time>2026-09-01T14:42:09.966Z</time>
      </trkpt>
      <trkpt lat="53.237586" lon="6.566984">
        <ele>1.451231</ele>
        <time>2026-09-01T14:42:12.964Z</time>
      </trkpt>
      <trkpt lat="53.237689" lon="6.567060">
        <ele>1.702445</ele>
        <time>2026-09-01T14:42:15.966Z</time>
      </trkpt>
      <trkpt lat="53.237788" lon="6.567142">
        <ele>1.948973</ele>
        <time>2026-09-01T14:42:18.965Z</time>
      </trkpt>
      <trkpt lat="53.237896" lon="6.567214">
        <ele>2.208403</ele>
        <time>2026-09-01T14:42:21.966Z</time>
      </trkpt>
      <trkpt lat="53.238005" lon="6.567300">
        <ele>2.477342</ele>
        <time>2026-09-01T14:42:24.965Z</time>
      </trkpt>
      <trkpt lat="53.238116" lon="6.567391">
        <ele>2.719871</ele>
        <time>2026-09-01T14:42:27.965Z</time>
      </trkpt>
      <trkpt lat="53.238226" lon="6.567473">
        <ele>2.883045</ele>
        <time>2026-09-01T14:42:30.965Z</time>
      </trkpt>
      <trkpt lat="53.238336" lon="6.567547">
        <ele>3.043684</ele>
        <time>2026-09-01T14:42:33.959Z</time>
      </trkpt>
      <trkpt lat="53.238447" lon="6.567621">
        <ele>3.205581</ele>
        <time>2026-09-01T14:42:36.965Z</time>
      </trkpt>
      <trkpt lat="53.238557" lon="6.567684">
        <ele>3.363108</ele>
        <time>2026-09-01T14:42:39.957Z</time>
      </trkpt>
      <trkpt lat="53.238663" lon="6.567743">
        <ele>3.514462</ele>
        <time>2026-09-01T14:42:42.956Z</time>
      </trkpt>
      <trkpt lat="53.238773" lon="6.567795">
        <ele>3.669326</ele>
        <time>2026-09-01T14:42:45.961Z</time>
      </trkpt>
      <trkpt lat="53.238893" lon="6.567847">
        <ele>3.837266</ele>
        <time>2026-09-01T14:42:48.965Z</time>
      </trkpt>
      <trkpt lat="53.239019" lon="6.567918">
        <ele>4.017401</ele>
        <time>2026-09-01T14:42:51.958Z</time>
      </trkpt>
      <trkpt lat="53.239145" lon="6.567990">
        <ele>4.197797</ele>
        <time>2026-09-01T14:42:54.965Z</time>
      </trkpt>
      <trkpt lat="53.239272" lon="6.568062">
        <ele>4.379475</ele>
        <time>2026-09-01T14:42:57.959Z</time>
      </trkpt>
      <trkpt lat="53.239362" lon="6.568100">
        <ele>4.505229</ele>
        <time>2026-09-01T14:42:59.958Z</time>
      </trkpt>
      <trkpt lat="53.239456" lon="6.568158">
        <ele>4.640974</ele>
        <time>2026-09-01T14:43:01.965Z</time>
      </trkpt>
      <trkpt lat="53.239549" lon="6.568214">
        <ele>4.774890</ele>
        <time>2026-09-01T14:43:03.958Z</time>
      </trkpt>
      <trkpt lat="53.239636" lon="6.568268">
        <ele>4.900616</ele>
        <time>2026-09-01T14:43:05.965Z</time>
      </trkpt>
      <trkpt lat="53.239723" lon="6.568318">
        <ele>5.025250</ele>
        <time>2026-09-01T14:43:07.965Z</time>
      </trkpt>
      <trkpt lat="53.239810" lon="6.568362">
        <ele>5.053351</ele>
        <time>2026-09-01T14:43:09.956Z</time>
      </trkpt>
      <trkpt lat="53.239896" lon="6.568413">
        <ele>4.906489</ele>
        <time>2026-09-01T14:43:11.970Z</time>
      </trkpt>
      <trkpt lat="53.239991" lon="6.568466">
        <ele>4.745306</ele>
        <time>2026-09-01T14:43:13.965Z</time>
      </trkpt>
      <trkpt lat="53.240087" lon="6.568517">
        <ele>4.583189</ele>
        <time>2026-09-01T14:43:15.957Z</time>
      </trkpt>
      <trkpt lat="53.240187" lon="6.568573">
        <ele>4.413458</ele>
        <time>2026-09-01T14:43:17.965Z</time>
      </trkpt>
      <trkpt lat="53.240279" lon="6.568620">
        <ele>4.258633</ele>
        <time>2026-09-01T14:43:19.965Z</time>
      </trkpt>
      <trkpt lat="53.240374" lon="6.568670">
        <ele>4.098341</ele>
        <time>2026-09-01T14:43:21.967Z</time>
      </trkpt>
      <trkpt lat="53.240472" lon="6.568736">
        <ele>3.928298</ele>
        <time>2026-09-01T14:43:23.959Z</time>
      </trkpt>
      <trkpt lat="53.240576" lon="6.568794">
        <ele>3.751851</ele>
        <time>2026-09-01T14:43:25.965Z</time>
      </trkpt>
      <trkpt lat="53.240679" lon="6.568862">
        <ele>3.573620</ele>
        <time>2026-09-01T14:43:27.965Z</time>
      </trkpt>
      <trkpt lat="53.240784" lon="6.568932">
        <ele>3.391687</ele>
        <time>2026-09-01T14:43:29.965Z</time>
      </trkpt>
      <trkpt lat="53.240885" lon="6.568993">
        <ele>3.218853</ele>
        <time>2026-09-01T14:43:31.965Z</time>
      </trkpt>
      <trkpt lat="53.240984" lon="6.569065">
        <ele>3.045092</ele>
        <time>2026-09-01T14:43:33.965Z</time>
      </trkpt>
      <trkpt lat="53.241081" lon="6.569146">
        <ele>2.870578</ele>
        <time>2026-09-01T14:43:35.965Z</time>
      </trkpt>
      <trkpt lat="53.241180" lon="6.569221">
        <ele>2.695644</ele>
        <time>2026-09-01T14:43:37.965Z</time>
      </trkpt>
      <trkpt lat="53.241275" lon="6.569303">
        <ele>2.523565</ele>
        <time>2026-09-01T14:43:39.965Z</time>
      </trkpt>
      <trkpt lat="53.241371" lon="6.569379">
        <ele>2.352606</ele>
        <time>2026-09-01T14:43:41.965Z</time>
      </trkpt>
      <trkpt lat="53.241466" lon="6.569454">
        <ele>2.165117</ele>
        <time>2026-09-01T14:43:43.965Z</time>
      </trkpt>
      <trkpt lat="53.241557" lon="6.569537">
        <ele>1.883787</ele>
        <time>2026-09-01T14:43:45.955Z</time>
      </trkpt>
      <trkpt lat="53.241649" lon="6.569620">
        <ele>1.600072</ele>
        <time>2026-09-01T14:43:47.965Z</time>
      </trkpt>
      <trkpt lat="53.241746" lon="6.569714">
        <ele>1.295791</ele>
        <time>2026-09-01T14:43:49.959Z</time>
      </trkpt>
      <trkpt lat="53.241840" lon="6.569813">
        <ele>0.994273</ele>
        <time>2026-09-01T14:43:51.965Z</time>
      </trkpt>
      <trkpt lat="53.241936" lon="6.569916">
        <ele>0.684691</ele>
        <time>2026-09-01T14:43:53.965Z</time>
      </trkpt>
      <trkpt lat="53.242028" lon="6.570015">
        <ele>0.387751</ele>
        <time>2026-09-01T14:43:55.965Z</time>
      </trkpt>
      <trkpt lat="53.242120" lon="6.570118">
        <ele>0.087245</ele>
        <time>2026-09-01T14:43:57.965Z</time>
      </trkpt>
      <trkpt lat="53.242212" lon="6.570224">
        <ele>-0.215999</ele>
        <time>2026-09-01T14:43:59.959Z</time>
      </trkpt>
      <trkpt lat="53.242303" lon="6.570334">
        <ele>-0.520774</ele>
        <time>2026-09-01T14:44:01.965Z</time>
      </trkpt>
      <trkpt lat="53.242391" lon="6.570449">
        <ele>-0.823924</ele>
        <time>2026-09-01T14:44:03.961Z</time>
      </trkpt>
      <trkpt lat="53.242482" lon="6.570566">
        <ele>-1.135498</ele>
        <time>2026-09-01T14:44:05.965Z</time>
      </trkpt>
      <trkpt lat="53.242574" lon="6.570689">
        <ele>-1.455221</ele>
        <time>2026-09-01T14:44:07.963Z</time>
      </trkpt>
      <trkpt lat="53.242670" lon="6.570809">
        <ele>-1.780548</ele>
        <time>2026-09-01T14:44:09.957Z</time>
      </trkpt>
      <trkpt lat="53.242764" lon="6.570934">
        <ele>-2.106538</ele>
        <time>2026-09-01T14:44:11.965Z</time>
      </trkpt>
      <trkpt lat="53.242863" lon="6.571064">
        <ele>-2.448207</ele>
        <time>2026-09-01T14:44:13.965Z</time>
      </trkpt>
      <trkpt lat="53.242961" lon="6.571188">
        <ele>-2.656006</ele>
        <time>2026-09-01T14:44:15.960Z</time>
      </trkpt>
      <trkpt lat="53.243053" lon="6.571305">
        <ele>-2.615143</ele>
        <time>2026-09-01T14:44:17.957Z</time>
      </trkpt>
      <trkpt lat="53.243139" lon="6.571419">
        <ele>-2.576343</ele>
        <time>2026-09-01T14:44:19.964Z</time>
      </trkpt>
      <trkpt lat="53.243204" lon="6.571566">
        <ele>-2.537683</ele>
        <time>2026-09-01T14:44:21.973Z</time>
      </trkpt>
      <trkpt lat="53.243212" lon="6.571750">
        <ele>-2.498662</ele>
        <time>2026-09-01T14:44:23.973Z</time>
      </trkpt>
      <trkpt lat="53.243171" lon="6.571909">
        <ele>-2.462042</ele>
        <time>2026-09-01T14:44:25.960Z</time>
      </trkpt>
      <trkpt lat="53.243105" lon="6.572046">
        <ele>-2.424841</ele>
        <time>2026-09-01T14:44:27.961Z</time>
      </trkpt>
      <trkpt lat="53.243039" lon="6.572172">
        <ele>-2.389423</ele>
        <time>2026-09-01T14:44:29.958Z</time>
      </trkpt>
      <trkpt lat="53.242983" lon="6.572305">
        <ele>-2.355026</ele>
        <time>2026-09-01T14:44:31.973Z</time>
      </trkpt>
      <trkpt lat="53.242924" lon="6.572445">
        <ele>-2.318807</ele>
        <time>2026-09-01T14:44:33.962Z</time>
      </trkpt>
      <trkpt lat="53.242863" lon="6.572573">
        <ele>-2.284197</ele>
        <time>2026-09-01T14:44:35.962Z</time>
      </trkpt>
      <trkpt lat="53.242783" lon="6.572721">
        <ele>-2.242013</ele>
        <time>2026-09-01T14:44:38.961Z</time>
      </trkpt>
      <trkpt lat="53.242713" lon="6.573021">
        <ele>-2.173905</ele>
        <time>2026-09-01T14:45:02.973Z</time>
      </trkpt>
      <trkpt lat="53.242686" lon="6.573168">
        <ele>-2.141380</ele>
        <time>2026-09-01T14:45:04.974Z</time>
      </trkpt>
      <trkpt lat="53.242644" lon="6.573304">
        <ele>-2.109009</ele>
        <time>2026-09-01T14:45:06.961Z</time>
      </trkpt>
      <trkpt lat="53.242566" lon="6.573486">
        <ele>-2.061659</ele>
        <time>2026-09-01T14:45:09.963Z</time>
      </trkpt>
      <trkpt lat="53.242507" lon="6.573613">
        <ele>-2.035549</ele>
        <time>2026-09-01T14:45:11.961Z</time>
      </trkpt>
      <trkpt lat="53.242446" lon="6.573735">
        <ele>-2.039278</ele>
        <time>2026-09-01T14:45:13.961Z</time>
      </trkpt>
      <trkpt lat="53.242390" lon="6.573864">
        <ele>-2.043016</ele>
        <time>2026-09-01T14:45:15.958Z</time>
      </trkpt>
      <trkpt lat="53.242337" lon="6.574007">
        <ele>-2.046960</ele>
        <time>2026-09-01T14:45:17.960Z</time>
      </trkpt>
      <trkpt lat="53.242303" lon="6.574159">
        <ele>-2.050766</ele>
        <time>2026-09-01T14:45:19.960Z</time>
      </trkpt>
      <trkpt lat="53.242324" lon="6.574308">
        <ele>-2.054356</ele>
        <time>2026-09-01T14:45:21.959Z</time>
      </trkpt>
      <trkpt lat="53.242429" lon="6.574448">
        <ele>-2.059621</ele>
        <time>2026-09-01T14:45:24.962Z</time>
      </trkpt>
      <trkpt lat="53.242504" lon="6.574541">
        <ele>-2.063281</ele>
        <time>2026-09-01T14:45:26.961Z</time>
      </trkpt>
      <trkpt lat="53.242576" lon="6.574632">
        <ele>-2.066819</ele>
        <time>2026-09-01T14:45:28.962Z</time>
      </trkpt>
      <trkpt lat="53.242656" lon="6.574725">
        <ele>-2.070638</ele>
        <time>2026-09-01T14:45:30.965Z</time>
      </trkpt>
      <trkpt lat="53.242739" lon="6.574810">
        <ele>-2.074453</ele>
        <time>2026-09-01T14:45:32.960Z</time>
      </trkpt>
      <trkpt lat="53.242857" lon="6.574930">
        <ele>-2.079867</ele>
        <time>2026-09-01T14:45:35.956Z</time>
      </trkpt>
      <trkpt lat="53.242934" lon="6.575015">
        <ele>-2.083483</ele>
        <time>2026-09-01T14:45:37.957Z</time>
      </trkpt>
      <trkpt lat="53.243010" lon="6.575103">
        <ele>-2.087107</ele>
        <time>2026-09-01T14:45:39.965Z</time>
      </trkpt>
      <trkpt lat="53.243087" lon="6.575193">
        <ele>-2.090789</ele>
        <time>2026-09-01T14:45:41.957Z</time>
      </trkpt>
      <trkpt lat="53.243199" lon="6.575321">
        <ele>-2.096107</ele>
        <time>2026-09-01T14:45:44.960Z</time>
      </trkpt>
      <trkpt lat="53.243277" lon="6.575418">
        <ele>-2.099918</ele>
        <time>2026-09-01T14:45:46.966Z</time>
      </trkpt>
      <trkpt lat="53.243354" lon="6.575504">
        <ele>-2.103547</ele>
        <time>2026-09-01T14:45:48.965Z</time>
      </trkpt>
      <trkpt lat="53.243411" lon="6.575634">
        <ele>-2.166332</ele>
        <time>2026-09-01T14:45:50.973Z</time>
      </trkpt>
      <trkpt lat="53.243432" lon="6.575855">
        <ele>-2.320749</ele>
        <time>2026-09-01T14:45:53.965Z</time>
      </trkpt>
      <trkpt lat="53.243454" lon="6.576003">
        <ele>-2.425984</ele>
        <time>2026-09-01T14:45:55.965Z</time>
      </trkpt>
      <trkpt lat="53.243477" lon="6.576155">
        <ele>-2.534176</ele>
        <time>2026-09-01T14:45:57.975Z</time>
      </trkpt>
      <trkpt lat="53.243495" lon="6.576311">
        <ele>-2.643811</ele>
        <time>2026-09-01T14:45:59.973Z</time>
      </trkpt>
      <trkpt lat="53.243517" lon="6.576460">
        <ele>-2.749715</ele>
        <time>2026-09-01T14:46:01.963Z</time>
      </trkpt>
      <trkpt lat="53.243538" lon="6.576659">
        <ele>-2.889159</ele>
        <time>2026-09-01T14:46:04.961Z</time>
      </trkpt>
      <trkpt lat="53.243600" lon="6.576811">
        <ele>-3.016099</ele>
        <time>2026-09-01T14:46:08.957Z</time>
      </trkpt>
      <trkpt lat="53.243695" lon="6.576707">
        <ele>-3.147065</ele>
        <time>2026-09-01T14:46:12.962Z</time>
      </trkpt>
      <trkpt lat="53.243791" lon="6.576655">
        <ele>-3.263439</ele>
        <time>2026-09-01T14:46:15.961Z</time>
      </trkpt>
      <trkpt lat="53.243891" lon="6.576586">
        <ele>-3.388200</ele>
        <time>2026-09-01T14:46:18.973Z</time>
      </trkpt>
      <trkpt lat="53.243989" lon="6.576500">
        <ele>-3.515845</ele>
        <time>2026-09-01T14:46:21.961Z</time>
      </trkpt>
      <trkpt lat="53.244104" lon="6.576480">
        <ele>-3.649175</ele>
        <time>2026-09-01T14:46:24.962Z</time>
      </trkpt>
      <trkpt lat="53.244148" lon="6.576666">
        <ele>-3.787192</ele>
        <time>2026-09-01T14:46:27.959Z</time>
      </trkpt>
      <trkpt lat="53.244178" lon="6.576877">
        <ele>-3.936849</ele>
        <time>2026-09-01T14:46:30.959Z</time>
      </trkpt>
      <trkpt lat="53.244203" lon="6.577065">
        <ele>-4.069745</ele>
        <time>2026-09-01T14:46:33.961Z</time>
      </trkpt>
      <trkpt lat="53.244221" lon="6.577238">
        <ele>-4.180487</ele>
        <time>2026-09-01T14:46:36.960Z</time>
      </trkpt>
      <trkpt lat="53.244249" lon="6.577418">
        <ele>-4.192717</ele>
        <time>2026-09-01T14:46:39.959Z</time>
      </trkpt>
      <trkpt lat="53.244276" lon="6.577584">
        <ele>-4.204029</ele>
        <time>2026-09-01T14:46:42.961Z</time>
      </trkpt>
      <trkpt lat="53.244287" lon="6.577760">
        <ele>-4.215666</ele>
        <time>2026-09-01T14:46:46.963Z</time>
      </trkpt>
      <trkpt lat="53.244190" lon="6.577811">
        <ele>-4.226841</ele>
        <time>2026-09-01T14:46:53.973Z</time>
      </trkpt>
      <trkpt lat="53.244097" lon="6.577840">
        <ele>-4.237237</ele>
        <time>2026-09-01T14:46:57.957Z</time>
      </trkpt>
      <trkpt lat="53.243999" lon="6.577886">
        <ele>-4.248423</ele>
        <time>2026-09-01T14:47:01.960Z</time>
      </trkpt>
      <trkpt lat="53.243885" lon="6.577956">
        <ele>-4.261770</ele>
        <time>2026-09-01T14:47:06.959Z</time>
      </trkpt>
      <trkpt lat="53.243782" lon="6.577970">
        <ele>-4.273126</ele>
        <time>2026-09-01T14:47:10.973Z</time>
      </trkpt>
      <trkpt lat="53.243749" lon="6.578115">
        <ele>-4.283327</ele>
        <time>2026-09-01T14:47:15.963Z</time>
      </trkpt>
      <trkpt lat="53.243762" lon="6.578283">
        <ele>-4.294467</ele>
        <time>2026-09-01T14:47:18.973Z</time>
      </trkpt>
      <trkpt lat="53.243784" lon="6.578469">
        <ele>-4.306935</ele>
        <time>2026-09-01T14:47:21.960Z</time>
      </trkpt>
      <trkpt lat="53.243806" lon="6.578655">
        <ele>-4.319403</ele>
        <time>2026-09-01T14:47:24.958Z</time>
      </trkpt>
      <trkpt lat="53.243823" lon="6.578829">
        <ele>-4.330997</ele>
        <time>2026-09-01T14:47:27.965Z</time>
      </trkpt>
      <trkpt lat="53.243853" lon="6.579020">
        <ele>-4.343982</ele>
        <time>2026-09-01T14:47:30.963Z</time>
      </trkpt>
      <trkpt lat="53.243873" lon="6.579234">
        <ele>-4.358226</ele>
        <time>2026-09-01T14:47:33.961Z</time>
      </trkpt>
      <trkpt lat="53.243892" lon="6.579456">
        <ele>-4.372973</ele>
        <time>2026-09-01T14:47:36.973Z</time>
      </trkpt>
      <trkpt lat="53.243918" lon="6.579683">
        <ele>-4.344188</ele>
        <time>2026-09-01T14:47:39.962Z</time>
      </trkpt>
      <trkpt lat="53.243937" lon="6.579836">
        <ele>-4.313848</ele>
        <time>2026-09-01T14:47:41.974Z</time>
      </trkpt>
      <trkpt lat="53.243962" lon="6.580057">
        <ele>-4.270178</ele>
        <time>2026-09-01T14:47:44.972Z</time>
      </trkpt>
      <trkpt lat="53.243980" lon="6.580273">
        <ele>-4.227834</ele>
        <time>2026-09-01T14:47:47.973Z</time>
      </trkpt>
      <trkpt lat="53.244009" lon="6.580483">
        <ele>-4.185988</ele>
        <time>2026-09-01T14:47:50.960Z</time>
      </trkpt>
      <trkpt lat="53.244040" lon="6.580662">
        <ele>-4.149807</ele>
        <time>2026-09-01T14:47:53.964Z</time>
      </trkpt>
      <trkpt lat="53.244154" lon="6.580691">
        <ele>-4.112392</ele>
        <time>2026-09-01T14:47:57.973Z</time>
      </trkpt>
      <trkpt lat="53.244266" lon="6.580650">
        <ele>-4.075190</ele>
        <time>2026-09-01T14:48:00.959Z</time>
      </trkpt>
      <trkpt lat="53.244373" lon="6.580607">
        <ele>-4.039482</ele>
        <time>2026-09-01T14:48:03.961Z</time>
      </trkpt>
      <trkpt lat="53.244488" lon="6.580568">
        <ele>-4.001408</ele>
        <time>2026-09-01T14:48:06.961Z</time>
      </trkpt>
      <trkpt lat="53.244591" lon="6.580540">
        <ele>-3.967549</ele>
        <time>2026-09-01T14:48:09.959Z</time>
      </trkpt>
      <trkpt lat="53.244689" lon="6.580516">
        <ele>-3.935412</ele>
        <time>2026-09-01T14:48:13.960Z</time>
      </trkpt>
      <trkpt lat="53.244789" lon="6.580540">
        <ele>-3.902632</ele>
        <time>2026-09-01T14:48:18.959Z</time>
      </trkpt>
      <trkpt lat="53.244816" lon="6.580725">
        <ele>-3.865660</ele>
        <time>2026-09-01T14:48:21.959Z</time>
      </trkpt>
      <trkpt lat="53.244846" lon="6.580946">
        <ele>-3.821660</ele>
        <time>2026-09-01T14:48:24.959Z</time>
      </trkpt>
      <trkpt lat="53.244863" lon="6.581105">
        <ele>-3.803539</ele>
        <time>2026-09-01T14:48:26.962Z</time>
      </trkpt>
      <trkpt lat="53.244886" lon="6.581279">
        <ele>-3.914543</ele>
        <time>2026-09-01T14:48:28.959Z</time>
      </trkpt>
      <trkpt lat="53.244908" lon="6.581452">
        <ele>-4.024718</ele>
        <time>2026-09-01T14:48:30.962Z</time>
      </trkpt>
      <trkpt lat="53.244929" lon="6.581633">
        <ele>-4.139569</ele>
        <time>2026-09-01T14:48:32.961Z</time>
      </trkpt>
      <trkpt lat="53.244944" lon="6.581798">
        <ele>-4.243533</ele>
        <time>2026-09-01T14:48:34.961Z</time>
      </trkpt>
      <trkpt lat="53.244957" lon="6.581975">
        <ele>-4.354620</ele>
        <time>2026-09-01T14:48:36.973Z</time>
      </trkpt>
      <trkpt lat="53.244966" lon="6.582162">
        <ele>-4.471485</ele>
        <time>2026-09-01T14:48:38.961Z</time>
      </trkpt>
      <trkpt lat="53.245004" lon="6.582324">
        <ele>-4.579877</ele>
        <time>2026-09-01T14:48:40.962Z</time>
      </trkpt>
      <trkpt lat="53.245034" lon="6.582535">
        <ele>-4.714976</ele>
        <time>2026-09-01T14:48:43.961Z</time>
      </trkpt>
      <trkpt lat="53.245057" lon="6.582735">
        <ele>-4.841842</ele>
        <time>2026-09-01T14:48:46.961Z</time>
      </trkpt>
      <trkpt lat="53.245082" lon="6.582929">
        <ele>-4.965462</ele>
        <time>2026-09-01T14:48:49.962Z</time>
      </trkpt>
      <trkpt lat="53.245102" lon="6.583115">
        <ele>-5.083184</ele>
        <time>2026-09-01T14:48:52.961Z</time>
      </trkpt>
      <trkpt lat="53.245119" lon="6.583306">
        <ele>-5.203473</ele>
        <time>2026-09-01T14:48:55.959Z</time>
      </trkpt>
      <trkpt lat="53.245132" lon="6.583477">
        <ele>-5.310851</ele>
        <time>2026-09-01T14:48:58.960Z</time>
      </trkpt>
      <trkpt lat="53.245102" lon="6.583637">
        <ele>-5.415298</ele>
        <time>2026-09-01T14:49:02.962Z</time>
      </trkpt>
      <trkpt lat="53.245039" lon="6.583759">
        <ele>-5.515682</ele>
        <time>2026-09-01T14:49:06.961Z</time>
      </trkpt>
      <trkpt lat="53.245067" lon="6.583921">
        <ele>-5.620723</ele>
        <time>2026-09-01T14:49:09.961Z</time>
      </trkpt>
      <trkpt lat="53.245062" lon="6.584085">
        <ele>-5.616075</ele>
        <time>2026-09-01T14:49:13.963Z</time>
      </trkpt>
      <trkpt lat="53.244962" lon="6.584077">
        <ele>-5.525318</ele>
        <time>2026-09-01T14:49:18.959Z</time>
      </trkpt>
      <trkpt lat="53.244860" lon="6.584035">
        <ele>-5.430086</ele>
        <time>2026-09-01T14:49:23.959Z</time>
      </trkpt>
      <trkpt lat="53.244801" lon="6.583878">
        <ele>-5.329518</ele>
        <time>2026-09-01T14:49:27.973Z</time>
      </trkpt>
      <trkpt lat="53.244749" lon="6.583694">
        <ele>-5.219133</ele>
        <time>2026-09-01T14:49:31.961Z</time>
      </trkpt>
      <trkpt lat="53.244728" lon="6.583530">
        <ele>-5.128154</ele>
        <time>2026-09-01T14:49:34.960Z</time>
      </trkpt>
      <trkpt lat="53.244717" lon="6.583377">
        <ele>-5.044560</ele>
        <time>2026-09-01T14:49:37.964Z</time>
      </trkpt>
      <trkpt lat="53.244702" lon="6.583200">
        <ele>-4.947586</ele>
        <time>2026-09-01T14:49:41.960Z</time>
      </trkpt>
      <trkpt lat="53.244681" lon="6.583012">
        <ele>-4.843841</ele>
        <time>2026-09-01T14:49:45.973Z</time>
      </trkpt>
      <trkpt lat="53.244635" lon="6.582833">
        <ele>-4.738164</ele>
        <time>2026-09-01T14:49:49.973Z</time>
      </trkpt>
      <trkpt lat="53.244592" lon="6.582701">
        <ele>-4.656635</ele>
        <time>2026-09-01T14:49:52.959Z</time>
      </trkpt>
      <trkpt lat="53.244496" lon="6.582695">
        <ele>-4.569548</ele>
        <time>2026-09-01T14:49:55.973Z</time>
      </trkpt>
      <trkpt lat="53.244389" lon="6.582724">
        <ele>-4.471282</ele>
        <time>2026-09-01T14:49:58.959Z</time>
      </trkpt>
      <trkpt lat="53.244277" lon="6.582765">
        <ele>-4.367343</ele>
        <time>2026-09-01T14:50:01.960Z</time>
      </trkpt>
      <trkpt lat="53.244166" lon="6.582811">
        <ele>-4.263671</ele>
        <time>2026-09-01T14:50:04.960Z</time>
      </trkpt>
      <trkpt lat="53.244059" lon="6.582846">
        <ele>-4.164831</ele>
        <time>2026-09-01T14:50:07.963Z</time>
      </trkpt>
      <trkpt lat="53.243968" lon="6.582893">
        <ele>-4.078487</ele>
        <time>2026-09-01T14:50:10.962Z</time>
      </trkpt>
      <trkpt lat="53.243873" lon="6.582956">
        <ele>-4.062909</ele>
        <time>2026-09-01T14:50:14.960Z</time>
      </trkpt>
      <trkpt lat="53.243837" lon="6.583102">
        <ele>-4.110635</ele>
        <time>2026-09-01T14:50:17.960Z</time>
      </trkpt>
      <trkpt lat="53.243819" lon="6.583259">
        <ele>-4.158950</ele>
        <time>2026-09-01T14:50:20.960Z</time>
      </trkpt>
      <trkpt lat="53.243772" lon="6.583389">
        <ele>-4.204855</ele>
        <time>2026-09-01T14:50:23.958Z</time>
      </trkpt>
      <trkpt lat="53.243787" lon="6.583537">
        <ele>-4.250223</ele>
        <time>2026-09-01T14:50:37.974Z</time>
      </trkpt>
      <trkpt lat="53.243814" lon="6.583681">
        <ele>-4.295831</ele>
        <time>2026-09-01T14:50:47.973Z</time>
      </trkpt>
      <trkpt lat="53.243838" lon="6.583827">
        <ele>-4.341593</ele>
        <time>2026-09-01T14:50:54.975Z</time>
      </trkpt>
      <trkpt lat="53.243910" lon="6.583929">
        <ele>-4.389266</ele>
        <time>2026-09-01T14:51:00.959Z</time>
      </trkpt>
      <trkpt lat="53.244014" lon="6.583943">
        <ele>-4.441963</ele>
        <time>2026-09-01T14:51:05.965Z</time>
      </trkpt>
      <trkpt lat="53.244100" lon="6.583853">
        <ele>-4.493213</ele>
        <time>2026-09-01T14:51:12.973Z</time>
      </trkpt>
      <trkpt lat="53.244203" lon="6.583835">
        <ele>-4.545519</ele>
        <time>2026-09-01T14:51:19.959Z</time>
      </trkpt>
      <trkpt lat="53.244239" lon="6.583976">
        <ele>-4.591851</ele>
        <time>2026-09-01T14:51:25.973Z</time>
      </trkpt>
      <trkpt lat="53.244302" lon="6.584124">
        <ele>-4.646744</ele>
        <time>2026-09-01T14:51:31.959Z</time>
      </trkpt>
      <trkpt lat="53.244371" lon="6.584225">
        <ele>-4.693072</ele>
        <time>2026-09-01T14:51:36.973Z</time>
      </trkpt>
      <trkpt lat="53.244466" lon="6.584260">
        <ele>-4.742206</ele>
        <time>2026-09-01T14:51:41.959Z</time>
      </trkpt>
      <trkpt lat="53.244567" lon="6.584208">
        <ele>-4.795584</ele>
        <time>2026-09-01T14:51:47.962Z</time>
      </trkpt>
      <trkpt lat="53.244658" lon="6.584197">
        <ele>-4.841665</ele>
        <time>2026-09-01T14:51:51.958Z</time>
      </trkpt>
      <trkpt lat="53.244742" lon="6.584135">
        <ele>-4.888044</ele>
        <time>2026-09-01T14:51:54.961Z</time>
      </trkpt>
      <trkpt lat="53.244833" lon="6.584083">
        <ele>-4.936618</ele>
        <time>2026-09-01T14:51:58.960Z</time>
      </trkpt>
      <trkpt lat="53.244926" lon="6.584078">
        <ele>-4.938102</ele>
        <time>2026-09-01T14:52:01.960Z</time>
      </trkpt>
      <trkpt lat="53.245023" lon="6.584071">
        <ele>-4.931131</ele>
        <time>2026-09-01T14:52:04.973Z</time>
      </trkpt>
      <trkpt lat="53.245097" lon="6.584216">
        <ele>-4.922944</ele>
        <time>2026-09-01T14:52:08.962Z</time>
      </trkpt>
      <trkpt lat="53.245118" lon="6.584415">
        <ele>-4.914263</ele>
        <time>2026-09-01T14:52:12.960Z</time>
      </trkpt>
      <trkpt lat="53.245132" lon="6.584575">
        <ele>-4.907317</ele>
        <time>2026-09-01T14:52:15.961Z</time>
      </trkpt>
      <trkpt lat="53.245137" lon="6.584765">
        <ele>-4.899146</ele>
        <time>2026-09-01T14:52:19.959Z</time>
      </trkpt>
      <trkpt lat="53.245155" lon="6.584944">
        <ele>-4.891349</ele>
        <time>2026-09-01T14:52:24.974Z</time>
      </trkpt>
      <trkpt lat="53.245177" lon="6.585122">
        <ele>-4.883540</ele>
        <time>2026-09-01T14:52:28.960Z</time>
      </trkpt>
      <trkpt lat="53.245216" lon="6.585267">
        <ele>-4.876711</ele>
        <time>2026-09-01T14:52:31.959Z</time>
      </trkpt>
      <trkpt lat="53.245237" lon="6.585420">
        <ele>-4.869967</ele>
        <time>2026-09-01T14:52:34.962Z</time>
      </trkpt>
      <trkpt lat="53.245149" lon="6.585528">
        <ele>-4.862129</ele>
        <time>2026-09-01T14:52:38.959Z</time>
      </trkpt>
      <trkpt lat="53.245058" lon="6.585611">
        <ele>-4.854686</ele>
        <time>2026-09-01T14:52:42.962Z</time>
      </trkpt>
      <trkpt lat="53.244964" lon="6.585655">
        <ele>-4.847678</ele>
        <time>2026-09-01T14:52:47.961Z</time>
      </trkpt>
      <trkpt lat="53.244957" lon="6.585836">
        <ele>-4.839886</ele>
        <time>2026-09-01T14:52:52.960Z</time>
      </trkpt>
      <trkpt lat="53.244992" lon="6.585989">
        <ele>-4.832849</ele>
        <time>2026-09-01T14:52:56.975Z</time>
      </trkpt>
      <trkpt lat="53.245008" lon="6.586142">
        <ele>-4.826177</ele>
        <time>2026-09-01T14:52:59.964Z</time>
      </trkpt>
      <trkpt lat="53.245023" lon="6.586302">
        <ele>-4.819219</ele>
        <time>2026-09-01T14:53:02.974Z</time>
      </trkpt>
      <trkpt lat="53.245053" lon="6.586459">
        <ele>-4.813704</ele>
        <time>2026-09-01T14:53:06.957Z</time>
      </trkpt>
      <trkpt lat="53.245128" lon="6.586550">
        <ele>-4.811218</ele>
        <time>2026-09-01T14:53:13.959Z</time>
      </trkpt>
      <trkpt lat="53.245220" lon="6.586559">
        <ele>-4.808747</ele>
        <time>2026-09-01T14:53:17.958Z</time>
      </trkpt>
      <trkpt lat="53.245305" lon="6.586655">
        <ele>-4.805995</ele>
        <time>2026-09-01T14:53:22.965Z</time>
      </trkpt>
      <trkpt lat="53.245332" lon="6.586840">
        <ele>-4.802939</ele>
        <time>2026-09-01T14:53:28.959Z</time>
      </trkpt>
      <trkpt lat="53.245354" lon="6.587007">
        <ele>-4.800195</ele>
        <time>2026-09-01T14:53:32.959Z</time>
      </trkpt>
      <trkpt lat="53.245375" lon="6.587170">
        <ele>-4.797519</ele>
        <time>2026-09-01T14:53:36.974Z</time>
      </trkpt>
      <trkpt lat="53.245397" lon="6.587343">
        <ele>-4.794681</ele>
        <time>2026-09-01T14:53:41.958Z</time>
      </trkpt>
      <trkpt lat="53.245413" lon="6.587514">
        <ele>-4.791903</ele>
        <time>2026-09-01T14:53:46.960Z</time>
      </trkpt>
      <trkpt lat="53.245380" lon="6.587671">
        <ele>-4.789233</ele>
        <time>2026-09-01T14:53:52.958Z</time>
      </trkpt>
      <trkpt lat="53.245404" lon="6.587833">
        <ele>-4.786554</ele>
        <time>2026-09-01T14:53:56.961Z</time>
      </trkpt>
      <trkpt lat="53.245440" lon="6.588016">
        <ele>-4.783463</ele>
        <time>2026-09-01T14:54:00.960Z</time>
      </trkpt>
      <trkpt lat="53.245461" lon="6.588169">
        <ele>-4.780944</ele>
        <time>2026-09-01T14:54:03.958Z</time>
      </trkpt>
      <trkpt lat="53.245491" lon="6.588359">
        <ele>-4.777790</ele>
        <time>2026-09-01T14:54:07.960Z</time>
      </trkpt>
      <trkpt lat="53.245536" lon="6.588523">
        <ele>-4.774895</ele>
        <time>2026-09-01T14:54:11.959Z</time>
      </trkpt>
      <trkpt lat="53.245557" lon="6.588677">
        <ele>-4.772360</ele>
        <time>2026-09-01T14:54:14.960Z</time>
      </trkpt>
      <trkpt lat="53.245570" lon="6.588876">
        <ele>-4.769147</ele>
        <time>2026-09-01T14:54:18.974Z</time>
      </trkpt>
      <trkpt lat="53.245584" lon="6.589033">
        <ele>-4.766600</ele>
        <time>2026-09-01T14:54:21.959Z</time>
      </trkpt>
      <trkpt lat="53.245602" lon="6.589196">
        <ele>-4.707604</ele>
        <time>2026-09-01T14:54:24.959Z</time>
      </trkpt>
      <trkpt lat="53.245638" lon="6.589379">
        <ele>-4.633687</ele>
        <time>2026-09-01T14:54:27.960Z</time>
      </trkpt>
      <trkpt lat="53.245653" lon="6.589542">
        <ele>-4.570406</ele>
        <time>2026-09-01T14:54:30.959Z</time>
      </trkpt>
      <trkpt lat="53.245671" lon="6.589704">
        <ele>-4.507182</ele>
        <time>2026-09-01T14:54:33.961Z</time>
      </trkpt>
      <trkpt lat="53.245687" lon="6.589853">
        <ele>-4.449095</ele>
        <time>2026-09-01T14:54:36.960Z</time>
      </trkpt>
      <trkpt lat="53.245716" lon="6.590007">
        <ele>-4.387146</ele>
        <time>2026-09-01T14:54:39.960Z</time>
      </trkpt>
      <trkpt lat="53.245752" lon="6.590185">
        <ele>-4.315050</ele>
        <time>2026-09-01T14:54:43.961Z</time>
      </trkpt>
      <trkpt lat="53.245826" lon="6.590305">
        <ele>-4.248929</ele>
        <time>2026-09-01T14:54:48.958Z</time>
      </trkpt>
      <trkpt lat="53.245878" lon="6.590459">
        <ele>-4.181078</ele>
        <time>2026-09-01T14:54:54.960Z</time>
      </trkpt>
      <trkpt lat="53.245815" lon="6.590601">
        <ele>-4.113248</ele>
        <time>2026-09-01T14:55:01.960Z</time>
      </trkpt>
      <trkpt lat="53.245813" lon="6.590774">
        <ele>-4.046853</ele>
        <time>2026-09-01T14:55:05.958Z</time>
      </trkpt>
      <trkpt lat="53.245843" lon="6.590931">
        <ele>-3.983613</ele>
        <time>2026-09-01T14:55:08.961Z</time>
      </trkpt>
      <trkpt lat="53.245866" lon="6.591108">
        <ele>-3.914113</ele>
        <time>2026-09-01T14:55:11.962Z</time>
      </trkpt>
      <trkpt lat="53.245887" lon="6.591285">
        <ele>-3.844874</ele>
        <time>2026-09-01T14:55:14.961Z</time>
      </trkpt>
      <trkpt lat="53.245903" lon="6.591465">
        <ele>-3.775048</ele>
        <time>2026-09-01T14:55:17.959Z</time>
      </trkpt>
      <trkpt lat="53.245925" lon="6.591634">
        <ele>-3.708684</ele>
        <time>2026-09-01T14:55:20.961Z</time>
      </trkpt>
      <trkpt lat="53.245949" lon="6.591810">
        <ele>-3.639419</ele>
        <time>2026-09-01T14:55:23.960Z</time>
      </trkpt>
      <trkpt lat="53.245961" lon="6.591989">
        <ele>-3.626306</ele>
        <time>2026-09-01T14:55:26.957Z</time>
      </trkpt>
      <trkpt lat="53.245979" lon="6.592157">
        <ele>-3.646678</ele>
        <time>2026-09-01T14:55:29.961Z</time>
      </trkpt>
      <trkpt lat="53.245998" lon="6.592314">
        <ele>-3.665796</ele>
        <time>2026-09-01T14:55:32.961Z</time>
      </trkpt>
      <trkpt lat="53.246018" lon="6.592481">
        <ele>-3.686125</ele>
        <time>2026-09-01T14:55:35.964Z</time>
      </trkpt>
      <trkpt lat="53.246037" lon="6.592657">
        <ele>-3.707471</ele>
        <time>2026-09-01T14:55:38.973Z</time>
      </trkpt>
      <trkpt lat="53.246061" lon="6.592860">
        <ele>-3.732169</ele>
        <time>2026-09-01T14:55:41.958Z</time>
      </trkpt>
      <trkpt lat="53.246086" lon="6.593044">
        <ele>-3.754690</ele>
        <time>2026-09-01T14:55:44.963Z</time>
      </trkpt>
      <trkpt lat="53.246111" lon="6.593232">
        <ele>-3.777677</ele>
        <time>2026-09-01T14:55:47.960Z</time>
      </trkpt>
      <trkpt lat="53.246136" lon="6.593424">
        <ele>-3.801131</ele>
        <time>2026-09-01T14:55:50.961Z</time>
      </trkpt>
      <trkpt lat="53.246165" lon="6.593623">
        <ele>-3.825577</ele>
        <time>2026-09-01T14:55:53.961Z</time>
      </trkpt>
      <trkpt lat="53.246181" lon="6.593798">
        <ele>-3.846707</ele>
        <time>2026-09-01T14:55:56.960Z</time>
      </trkpt>
      <trkpt lat="53.246195" lon="6.593962">
        <ele>-3.866481</ele>
        <time>2026-09-01T14:55:59.962Z</time>
      </trkpt>
      <trkpt lat="53.246222" lon="6.594144">
        <ele>-3.888861</ele>
        <time>2026-09-01T14:56:02.973Z</time>
      </trkpt>
      <trkpt lat="53.246248" lon="6.594332">
        <ele>-3.911892</ele>
        <time>2026-09-01T14:56:05.959Z</time>
      </trkpt>
      <trkpt lat="53.246259" lon="6.594517">
        <ele>-3.934083</ele>
        <time>2026-09-01T14:56:08.959Z</time>
      </trkpt>
      <trkpt lat="53.246275" lon="6.594707">
        <ele>-3.956984</ele>
        <time>2026-09-01T14:56:11.958Z</time>
      </trkpt>
      <trkpt lat="53.246302" lon="6.594909">
        <ele>-3.928735</ele>
        <time>2026-09-01T14:56:14.965Z</time>
      </trkpt>
      <trkpt lat="53.246327" lon="6.595106">
        <ele>-3.824111</ele>
        <time>2026-09-01T14:56:17.965Z</time>
      </trkpt>
      <trkpt lat="53.246357" lon="6.595291">
        <ele>-3.724531</ele>
        <time>2026-09-01T14:56:20.965Z</time>
      </trkpt>
      <trkpt lat="53.246375" lon="6.595459">
        <ele>-3.635862</ele>
        <time>2026-09-01T14:56:23.961Z</time>
      </trkpt>
      <trkpt lat="53.246402" lon="6.595630">
        <ele>-3.543982</ele>
        <time>2026-09-01T14:56:26.965Z</time>
      </trkpt>
      <trkpt lat="53.246427" lon="6.595821">
        <ele>-3.442406</ele>
        <time>2026-09-01T14:56:29.957Z</time>
      </trkpt>
      <trkpt lat="53.246435" lon="6.595998">
        <ele>-3.350187</ele>
        <time>2026-09-01T14:56:32.960Z</time>
      </trkpt>
      <trkpt lat="53.246441" lon="6.596150">
        <ele>-3.271047</ele>
        <time>2026-09-01T14:56:39.960Z</time>
      </trkpt>
      <trkpt lat="53.246433" lon="6.596318">
        <ele>-3.183490</ele>
        <time>2026-09-01T14:56:46.960Z</time>
      </trkpt>
      <trkpt lat="53.246471" lon="6.596458">
        <ele>-3.103623</ele>
        <time>2026-09-01T14:56:49.960Z</time>
      </trkpt>
      <trkpt lat="53.246512" lon="6.596644">
        <ele>-3.000643</ele>
        <time>2026-09-01T14:56:52.961Z</time>
      </trkpt>
      <trkpt lat="53.246533" lon="6.596840">
        <ele>-2.897196</ele>
        <time>2026-09-01T14:56:55.961Z</time>
      </trkpt>
      <trkpt lat="53.246542" lon="6.597029">
        <ele>-2.798695</ele>
        <time>2026-09-01T14:56:58.973Z</time>
      </trkpt>
      <trkpt lat="53.246573" lon="6.597198">
        <ele>-2.706862</ele>
        <time>2026-09-01T14:57:01.960Z</time>
      </trkpt>
      <trkpt lat="53.246591" lon="6.597383">
        <ele>-2.609488</ele>
        <time>2026-09-01T14:57:04.965Z</time>
      </trkpt>
      <trkpt lat="53.246620" lon="6.597573">
        <ele>-2.507617</ele>
        <time>2026-09-01T14:57:07.961Z</time>
      </trkpt>
      <trkpt lat="53.246646" lon="6.597767">
        <ele>-2.415158</ele>
        <time>2026-09-01T14:57:10.965Z</time>
      </trkpt>
      <trkpt lat="53.246672" lon="6.597965">
        <ele>-2.505649</ele>
        <time>2026-09-01T14:57:13.966Z</time>
      </trkpt>
      <trkpt lat="53.246694" lon="6.598166">
        <ele>-2.596865</ele>
        <time>2026-09-01T14:57:16.964Z</time>
      </trkpt>
      <trkpt lat="53.246718" lon="6.598363">
        <ele>-2.686610</ele>
        <time>2026-09-01T14:57:19.959Z</time>
      </trkpt>
      <trkpt lat="53.246737" lon="6.598539">
        <ele>-2.766445</ele>
        <time>2026-09-01T14:57:22.961Z</time>
      </trkpt>
      <trkpt lat="53.246758" lon="6.598712">
        <ele>-2.845245</ele>
        <time>2026-09-01T14:57:25.965Z</time>
      </trkpt>
      <trkpt lat="53.246781" lon="6.598867">
        <ele>-2.916533</ele>
        <time>2026-09-01T14:57:28.957Z</time>
      </trkpt>
      <trkpt lat="53.246796" lon="6.599020">
        <ele>-2.985743</ele>
        <time>2026-09-01T14:57:31.965Z</time>
      </trkpt>
      <trkpt lat="53.246807" lon="6.599182">
        <ele>-3.058524</ele>
        <time>2026-09-01T14:57:34.966Z</time>
      </trkpt>
      <trkpt lat="53.246820" lon="6.599342">
        <ele>-3.130604</ele>
        <time>2026-09-01T14:57:37.966Z</time>
      </trkpt>
      <trkpt lat="53.246853" lon="6.599527">
        <ele>-3.216779</ele>
        <time>2026-09-01T14:57:41.962Z</time>
      </trkpt>
      <trkpt lat="53.246881" lon="6.599693">
        <ele>-3.293769</ele>
        <time>2026-09-01T14:57:44.963Z</time>
      </trkpt>
      <trkpt lat="53.246906" lon="6.599857">
        <ele>-3.369317</ele>
        <time>2026-09-01T14:57:47.960Z</time>
      </trkpt>
      <trkpt lat="53.246921" lon="6.600024">
        <ele>-3.444701</ele>
        <time>2026-09-01T14:57:50.967Z</time>
      </trkpt>
      <trkpt lat="53.246946" lon="6.600189">
        <ele>-3.520682</ele>
        <time>2026-09-01T14:57:53.960Z</time>
      </trkpt>
      <trkpt lat="53.246966" lon="6.600351">
        <ele>-3.594521</ele>
        <time>2026-09-01T14:57:56.966Z</time>
      </trkpt>
      <trkpt lat="53.246990" lon="6.600533">
        <ele>-3.677715</ele>
        <time>2026-09-01T14:58:00.965Z</time>
      </trkpt>
      <trkpt lat="53.247009" lon="6.600695">
        <ele>-3.751408</ele>
        <time>2026-09-01T14:58:04.966Z</time>
      </trkpt>
      <trkpt lat="53.247024" lon="6.600862">
        <ele>-3.759415</ele>
        <time>2026-09-01T14:58:08.965Z</time>
      </trkpt>
      <trkpt lat="53.247045" lon="6.601051">
        <ele>-3.767928</ele>
        <time>2026-09-01T14:58:12.965Z</time>
      </trkpt>
      <trkpt lat="53.247066" lon="6.601219">
        <ele>-3.775530</ele>
        <time>2026-09-01T14:58:15.966Z</time>
      </trkpt>
      <trkpt lat="53.247084" lon="6.601368">
        <ele>-3.782262</ele>
        <time>2026-09-01T14:58:18.961Z</time>
      </trkpt>
      <trkpt lat="53.247101" lon="6.601545">
        <ele>-3.790202</ele>
        <time>2026-09-01T14:58:22.958Z</time>
      </trkpt>
      <trkpt lat="53.247119" lon="6.601709">
        <ele>-3.797587</ele>
        <time>2026-09-01T14:58:25.965Z</time>
      </trkpt>
      <trkpt lat="53.247134" lon="6.601859">
        <ele>-3.804322</ele>
        <time>2026-09-01T14:58:28.961Z</time>
      </trkpt>
      <trkpt lat="53.247171" lon="6.602000">
        <ele>-3.811141</ele>
        <time>2026-09-01T14:58:32.965Z</time>
      </trkpt>
      <trkpt lat="53.247275" lon="6.601973">
        <ele>-3.818931</ele>
        <time>2026-09-01T14:58:37.965Z</time>
      </trkpt>
      <trkpt lat="53.247376" lon="6.601936">
        <ele>-3.826585</ele>
        <time>2026-09-01T14:58:41.965Z</time>
      </trkpt>
      <trkpt lat="53.247485" lon="6.601893">
        <ele>-3.834874</ele>
        <time>2026-09-01T14:58:45.965Z</time>
      </trkpt>
      <trkpt lat="53.247589" lon="6.601857">
        <ele>-3.842736</ele>
        <time>2026-09-01T14:58:49.965Z</time>
      </trkpt>
      <trkpt lat="53.247495" lon="6.601946">
        <ele>-3.850732</ele>
        <time>2026-09-01T14:58:57.957Z</time>
      </trkpt>
      <trkpt lat="53.247449" lon="6.602092">
        <ele>-3.858040</ele>
        <time>2026-09-01T14:59:00.965Z</time>
      </trkpt>
      <trkpt lat="53.247475" lon="6.602242">
        <ele>-3.864957</ele>
        <time>2026-09-01T14:59:03.965Z</time>
      </trkpt>
      <trkpt lat="53.247508" lon="6.602387">
        <ele>-3.871828</ele>
        <time>2026-09-01T14:59:06.958Z</time>
      </trkpt>
      <trkpt lat="53.247539" lon="6.602582">
        <ele>-3.880764</ele>
        <time>2026-09-01T14:59:10.966Z</time>
      </trkpt>
      <trkpt lat="53.247559" lon="6.602743">
        <ele>-3.909939</ele>
        <time>2026-09-01T14:59:13.957Z</time>
      </trkpt>
      <trkpt lat="53.247584" lon="6.602913">
        <ele>-3.975809</ele>
        <time>2026-09-01T14:59:16.966Z</time>
      </trkpt>
      <trkpt lat="53.247600" lon="6.603072">
        <ele>-4.036477</ele>
        <time>2026-09-01T14:59:19.960Z</time>
      </trkpt>
      <trkpt lat="53.247611" lon="6.603260">
        <ele>-4.107554</ele>
        <time>2026-09-01T14:59:22.957Z</time>
      </trkpt>
      <trkpt lat="53.247611" lon="6.603450">
        <ele>-4.179045</ele>
        <time>2026-09-01T14:59:25.966Z</time>
      </trkpt>
      <trkpt lat="53.247627" lon="6.603656">
        <ele>-4.257208</ele>
        <time>2026-09-01T14:59:28.965Z</time>
      </trkpt>
      <trkpt lat="53.247649" lon="6.603844">
        <ele>-4.329287</ele>
        <time>2026-09-01T14:59:31.965Z</time>
      </trkpt>
      <trkpt lat="53.247675" lon="6.604021">
        <ele>-4.397865</ele>
        <time>2026-09-01T14:59:34.965Z</time>
      </trkpt>
      <trkpt lat="53.247700" lon="6.604203">
        <ele>-4.468128</ele>
        <time>2026-09-01T14:59:37.964Z</time>
      </trkpt>
      <trkpt lat="53.247720" lon="6.604391">
        <ele>-4.539976</ele>
        <time>2026-09-01T14:59:40.965Z</time>
      </trkpt>
      <trkpt lat="53.247742" lon="6.604594">
        <ele>-4.617602</ele>
        <time>2026-09-01T14:59:43.965Z</time>
      </trkpt>
      <trkpt lat="53.247761" lon="6.604770">
        <ele>-4.684895</ele>
        <time>2026-09-01T14:59:46.958Z</time>
      </trkpt>
      <trkpt lat="53.247783" lon="6.604951">
        <ele>-4.754391</ele>
        <time>2026-09-01T14:59:49.965Z</time>
      </trkpt>
      <trkpt lat="53.247813" lon="6.605133">
        <ele>-4.825423</ele>
        <time>2026-09-01T14:59:52.959Z</time>
      </trkpt>
      <trkpt lat="53.247835" lon="6.605330">
        <ele>-4.900828</ele>
        <time>2026-09-01T14:59:55.960Z</time>
      </trkpt>
      <trkpt lat="53.247846" lon="6.605493">
        <ele>-4.962549</ele>
        <time>2026-09-01T14:59:58.965Z</time>
      </trkpt>
      <trkpt lat="53.247857" lon="6.605651">
        <ele>-5.010290</ele>
        <time>2026-09-01T15:00:02.960Z</time>
      </trkpt>
      <trkpt lat="53.247877" lon="6.605824">
        <ele>-4.947361</ele>
        <time>2026-09-01T15:00:05.965Z</time>
      </trkpt>
      <trkpt lat="53.247905" lon="6.606011">
        <ele>-4.878516</ele>
        <time>2026-09-01T15:00:08.965Z</time>
      </trkpt>
      <trkpt lat="53.247931" lon="6.606182">
        <ele>-4.815503</ele>
        <time>2026-09-01T15:00:11.967Z</time>
      </trkpt>
      <trkpt lat="53.247955" lon="6.606365">
        <ele>-4.748594</ele>
        <time>2026-09-01T15:00:14.965Z</time>
      </trkpt>
      <trkpt lat="53.247975" lon="6.606557">
        <ele>-4.678990</ele>
        <time>2026-09-01T15:00:17.959Z</time>
      </trkpt>
      <trkpt lat="53.248001" lon="6.606743">
        <ele>-4.610773</ele>
        <time>2026-09-01T15:00:20.966Z</time>
      </trkpt>
      <trkpt lat="53.248024" lon="6.606933">
        <ele>-4.541540</ele>
        <time>2026-09-01T15:00:23.955Z</time>
      </trkpt>
      <trkpt lat="53.248042" lon="6.607118">
        <ele>-4.474600</ele>
        <time>2026-09-01T15:00:26.966Z</time>
      </trkpt>
      <trkpt lat="53.248071" lon="6.607282">
        <ele>-4.413525</ele>
        <time>2026-09-01T15:00:29.957Z</time>
      </trkpt>
      <trkpt lat="53.248087" lon="6.607454">
        <ele>-4.351358</ele>
        <time>2026-09-01T15:00:32.958Z</time>
      </trkpt>
      <trkpt lat="53.248109" lon="6.607602">
        <ele>-4.296894</ele>
        <time>2026-09-01T15:00:35.966Z</time>
      </trkpt>
      <trkpt lat="53.248145" lon="6.607762">
        <ele>-4.235844</ele>
        <time>2026-09-01T15:00:39.959Z</time>
      </trkpt>
      <trkpt lat="53.248112" lon="6.607921">
        <ele>-4.175739</ele>
        <time>2026-09-01T15:00:46.965Z</time>
      </trkpt>
      <trkpt lat="53.248166" lon="6.608049">
        <ele>-4.119804</ele>
        <time>2026-09-01T15:00:51.966Z</time>
      </trkpt>
      <trkpt lat="53.248239" lon="6.608145">
        <ele>-4.064360</ele>
        <time>2026-09-01T15:00:55.961Z</time>
      </trkpt>
      <trkpt lat="53.248262" lon="6.608314">
        <ele>-4.002461</ele>
        <time>2026-09-01T15:01:00.958Z</time>
      </trkpt>
      <trkpt lat="53.248286" lon="6.608479">
        <ele>-3.943449</ele>
        <time>2026-09-01T15:01:04.965Z</time>
      </trkpt>
      <trkpt lat="53.248313" lon="6.608630">
        <ele>-4.002723</ele>
        <time>2026-09-01T15:01:07.965Z</time>
      </trkpt>
      <trkpt lat="53.248331" lon="6.608797">
        <ele>-4.066545</ele>
        <time>2026-09-01T15:01:10.965Z</time>
      </trkpt>
      <trkpt lat="53.248357" lon="6.608948">
        <ele>-4.125642</ele>
        <time>2026-09-01T15:01:13.965Z</time>
      </trkpt>
      <trkpt lat="53.248392" lon="6.609126">
        <ele>-4.196111</ele>
        <time>2026-09-01T15:01:17.965Z</time>
      </trkpt>
      <trkpt lat="53.248406" lon="6.609324">
        <ele>-4.271099</ele>
        <time>2026-09-01T15:01:21.967Z</time>
      </trkpt>
      <trkpt lat="53.248417" lon="6.609499">
        <ele>-4.337280</ele>
        <time>2026-09-01T15:01:24.958Z</time>
      </trkpt>
      <trkpt lat="53.248438" lon="6.609682">
        <ele>-4.407363</ele>
        <time>2026-09-01T15:01:27.965Z</time>
      </trkpt>
      <trkpt lat="53.248469" lon="6.609874">
        <ele>-4.482158</ele>
        <time>2026-09-01T15:01:30.960Z</time>
      </trkpt>
      <trkpt lat="53.248498" lon="6.610065">
        <ele>-4.556272</ele>
        <time>2026-09-01T15:01:33.961Z</time>
      </trkpt>
      <trkpt lat="53.248528" lon="6.610264">
        <ele>-4.633456</ele>
        <time>2026-09-01T15:01:36.965Z</time>
      </trkpt>
      <trkpt lat="53.248557" lon="6.610462">
        <ele>-4.710124</ele>
        <time>2026-09-01T15:01:39.962Z</time>
      </trkpt>
      <trkpt lat="53.248573" lon="6.610648">
        <ele>-4.780799</ele>
        <time>2026-09-01T15:01:42.967Z</time>
      </trkpt>
      <trkpt lat="53.248591" lon="6.610847">
        <ele>-4.856495</ele>
        <time>2026-09-01T15:01:45.956Z</time>
      </trkpt>
      <trkpt lat="53.248618" lon="6.611049">
        <ele>-4.934341</ele>
        <time>2026-09-01T15:01:48.965Z</time>
      </trkpt>
      <trkpt lat="53.248648" lon="6.611260">
        <ele>-5.015909</ele>
        <time>2026-09-01T15:01:51.965Z</time>
      </trkpt>
      <trkpt lat="53.248661" lon="6.611473">
        <ele>-5.076723</ele>
        <time>2026-09-01T15:01:54.963Z</time>
      </trkpt>
      <trkpt lat="53.248666" lon="6.611678">
        <ele>-5.088416</ele>
        <time>2026-09-01T15:01:57.967Z</time>
      </trkpt>
      <trkpt lat="53.248684" lon="6.611866">
        <ele>-5.099267</ele>
        <time>2026-09-01T15:02:00.965Z</time>
      </trkpt>
      <trkpt lat="53.248712" lon="6.612054">
        <ele>-5.110309</ele>
        <time>2026-09-01T15:02:03.965Z</time>
      </trkpt>
      <trkpt lat="53.248749" lon="6.612255">
        <ele>-5.122294</ele>
        <time>2026-09-01T15:02:06.968Z</time>
      </trkpt>
      <trkpt lat="53.248787" lon="6.612465">
        <ele>-5.134798</ele>
        <time>2026-09-01T15:02:09.965Z</time>
      </trkpt>
      <trkpt lat="53.248807" lon="6.612661">
        <ele>-5.146129</ele>
        <time>2026-09-01T15:02:12.967Z</time>
      </trkpt>
      <trkpt lat="53.248829" lon="6.612859">
        <ele>-5.157607</ele>
        <time>2026-09-01T15:02:15.957Z</time>
      </trkpt>
      <trkpt lat="53.248848" lon="6.613069">
        <ele>-5.169711</ele>
        <time>2026-09-01T15:02:18.966Z</time>
      </trkpt>
      <trkpt lat="53.248863" lon="6.613264">
        <ele>-5.180916</ele>
        <time>2026-09-01T15:02:21.967Z</time>
      </trkpt>
      <trkpt lat="53.248881" lon="6.613446">
        <ele>-5.191429</ele>
        <time>2026-09-01T15:02:24.966Z</time>
      </trkpt>
      <trkpt lat="53.248901" lon="6.613626">
        <ele>-5.201863</ele>
        <time>2026-09-01T15:02:27.956Z</time>
      </trkpt>
      <trkpt lat="53.248921" lon="6.613809">
        <ele>-5.212465</ele>
        <time>2026-09-01T15:02:30.966Z</time>
      </trkpt>
      <trkpt lat="53.248942" lon="6.614006">
        <ele>-5.223869</ele>
        <time>2026-09-01T15:02:33.966Z</time>
      </trkpt>
      <trkpt lat="53.248964" lon="6.614214">
        <ele>-5.235908</ele>
        <time>2026-09-01T15:02:36.965Z</time>
      </trkpt>
      <trkpt lat="53.248991" lon="6.614412">
        <ele>-5.227233</ele>
        <time>2026-09-01T15:02:39.959Z</time>
      </trkpt>
      <trkpt lat="53.249022" lon="6.614619">
        <ele>-5.156141</ele>
        <time>2026-09-01T15:02:42.958Z</time>
      </trkpt>
      <trkpt lat="53.249067" lon="6.614808">
        <ele>-5.088370</ele>
        <time>2026-09-01T15:02:45.960Z</time>
      </trkpt>
      <trkpt lat="53.249098" lon="6.614983">
        <ele>-5.027565</ele>
        <time>2026-09-01T15:02:48.958Z</time>
      </trkpt>
      <trkpt lat="53.249118" lon="6.615170">
        <ele>-4.964276</ele>
        <time>2026-09-01T15:02:51.962Z</time>
      </trkpt>
      <trkpt lat="53.249135" lon="6.615372">
        <ele>-4.896314</ele>
        <time>2026-09-01T15:02:54.959Z</time>
      </trkpt>
      <trkpt lat="53.249146" lon="6.615574">
        <ele>-4.828737</ele>
        <time>2026-09-01T15:02:57.962Z</time>
      </trkpt>
      <trkpt lat="53.249170" lon="6.615759">
        <ele>-4.765669</ele>
        <time>2026-09-01T15:03:00.961Z</time>
      </trkpt>
      <trkpt lat="53.249195" lon="6.615968">
        <ele>-4.694660</ele>
        <time>2026-09-01T15:03:03.956Z</time>
      </trkpt>
      <trkpt lat="53.249221" lon="6.616184">
        <ele>-4.621255</ele>
        <time>2026-09-01T15:03:06.973Z</time>
      </trkpt>
      <trkpt lat="53.249251" lon="6.616382">
        <ele>-4.553206</ele>
        <time>2026-09-01T15:03:09.965Z</time>
      </trkpt>
      <trkpt lat="53.249269" lon="6.616569">
        <ele>-4.490104</ele>
        <time>2026-09-01T15:03:12.965Z</time>
      </trkpt>
      <trkpt lat="53.249287" lon="6.616766">
        <ele>-4.423710</ele>
        <time>2026-09-01T15:03:15.966Z</time>
      </trkpt>
      <trkpt lat="53.249304" lon="6.616971">
        <ele>-4.354759</ele>
        <time>2026-09-01T15:03:18.961Z</time>
      </trkpt>
      <trkpt lat="53.249323" lon="6.617163">
        <ele>-4.289922</ele>
        <time>2026-09-01T15:03:21.966Z</time>
      </trkpt>
      <trkpt lat="53.249343" lon="6.617354">
        <ele>-4.235008</ele>
        <time>2026-09-01T15:03:24.965Z</time>
      </trkpt>
      <trkpt lat="53.249372" lon="6.617564">
        <ele>-4.202532</ele>
        <time>2026-09-01T15:03:27.961Z</time>
      </trkpt>
      <trkpt lat="53.249392" lon="6.617760">
        <ele>-4.172572</ele>
        <time>2026-09-01T15:03:30.958Z</time>
      </trkpt>
      <trkpt lat="53.249415" lon="6.617951">
        <ele>-4.143214</ele>
        <time>2026-09-01T15:03:33.967Z</time>
      </trkpt>
      <trkpt lat="53.249440" lon="6.618148">
        <ele>-4.112868</ele>
        <time>2026-09-01T15:03:36.965Z</time>
      </trkpt>
      <trkpt lat="53.249455" lon="6.618337">
        <ele>-4.084139</ele>
        <time>2026-09-01T15:03:39.965Z</time>
      </trkpt>
      <trkpt lat="53.249484" lon="6.618546">
        <ele>-4.051811</ele>
        <time>2026-09-01T15:03:42.968Z</time>
      </trkpt>
      <trkpt lat="53.249517" lon="6.618744">
        <ele>-4.020839</ele>
        <time>2026-09-01T15:03:45.957Z</time>
      </trkpt>
      <trkpt lat="53.249522" lon="6.618948">
        <ele>-3.990074</ele>
        <time>2026-09-01T15:03:48.966Z</time>
      </trkpt>
      <trkpt lat="53.249532" lon="6.619151">
        <ele>-3.959381</ele>
        <time>2026-09-01T15:03:51.972Z</time>
      </trkpt>
      <trkpt lat="53.249558" lon="6.619339">
        <ele>-3.930305</ele>
        <time>2026-09-01T15:03:54.961Z</time>
      </trkpt>
      <trkpt lat="53.249577" lon="6.619533">
        <ele>-3.900684</ele>
        <time>2026-09-01T15:03:57.959Z</time>
      </trkpt>
      <trkpt lat="53.249600" lon="6.619736">
        <ele>-3.869551</ele>
        <time>2026-09-01T15:04:00.967Z</time>
      </trkpt>
      <trkpt lat="53.249624" lon="6.619943">
        <ele>-3.837779</ele>
        <time>2026-09-01T15:04:03.965Z</time>
      </trkpt>
      <trkpt lat="53.249647" lon="6.620166">
        <ele>-3.803681</ele>
        <time>2026-09-01T15:04:06.966Z</time>
      </trkpt>
      <trkpt lat="53.249675" lon="6.620381">
        <ele>-3.789304</ele>
        <time>2026-09-01T15:04:09.965Z</time>
      </trkpt>
      <trkpt lat="53.249715" lon="6.620572">
        <ele>-3.788164</ele>
        <time>2026-09-01T15:04:12.965Z</time>
      </trkpt>
      <trkpt lat="53.249755" lon="6.620749">
        <ele>-3.787097</ele>
        <time>2026-09-01T15:04:15.960Z</time>
      </trkpt>
      <trkpt lat="53.249782" lon="6.620943">
        <ele>-3.785974</ele>
        <time>2026-09-01T15:04:18.965Z</time>
      </trkpt>
      <trkpt lat="53.249801" lon="6.621146">
        <ele>-3.784816</ele>
        <time>2026-09-01T15:04:21.967Z</time>
      </trkpt>
      <trkpt lat="53.249826" lon="6.621359">
        <ele>-3.783592</ele>
        <time>2026-09-01T15:04:24.965Z</time>
      </trkpt>
      <trkpt lat="53.249844" lon="6.621552">
        <ele>-3.782491</ele>
        <time>2026-09-01T15:04:27.966Z</time>
      </trkpt>
      <trkpt lat="53.249853" lon="6.621727">
        <ele>-3.781501</ele>
        <time>2026-09-01T15:04:30.965Z</time>
      </trkpt>
      <trkpt lat="53.249862" lon="6.621923">
        <ele>-3.780393</ele>
        <time>2026-09-01T15:04:33.957Z</time>
      </trkpt>
      <trkpt lat="53.249886" lon="6.622118">
        <ele>-3.779270</ele>
        <time>2026-09-01T15:04:36.965Z</time>
      </trkpt>
      <trkpt lat="53.249918" lon="6.622301">
        <ele>-3.778196</ele>
        <time>2026-09-01T15:04:39.965Z</time>
      </trkpt>
      <trkpt lat="53.249965" lon="6.622461">
        <ele>-3.777191</ele>
        <time>2026-09-01T15:04:42.961Z</time>
      </trkpt>
      <trkpt lat="53.249993" lon="6.622628">
        <ele>-3.776213</ele>
        <time>2026-09-01T15:04:45.961Z</time>
      </trkpt>
      <trkpt lat="53.250019" lon="6.622821">
        <ele>-3.775098</ele>
        <time>2026-09-01T15:04:48.957Z</time>
      </trkpt>
      <trkpt lat="53.250034" lon="6.623016">
        <ele>-3.773989</ele>
        <time>2026-09-01T15:04:51.961Z</time>
      </trkpt>
      <trkpt lat="53.250049" lon="6.623220">
        <ele>-3.789799</ele>
        <time>2026-09-01T15:04:54.964Z</time>
      </trkpt>
      <trkpt lat="53.250070" lon="6.623421">
        <ele>-3.864647</ele>
        <time>2026-09-01T15:04:57.961Z</time>
      </trkpt>
      <trkpt lat="53.250089" lon="6.623605">
        <ele>-3.933142</ele>
        <time>2026-09-01T15:05:00.963Z</time>
      </trkpt>
      <trkpt lat="53.250119" lon="6.623793">
        <ele>-4.004516</ele>
        <time>2026-09-01T15:05:03.961Z</time>
      </trkpt>
      <trkpt lat="53.250169" lon="6.623944">
        <ele>-4.067824</ele>
        <time>2026-09-01T15:05:06.963Z</time>
      </trkpt>
      <trkpt lat="53.250221" lon="6.624112">
        <ele>-4.137209</ele>
        <time>2026-09-01T15:05:10.957Z</time>
      </trkpt>
      <trkpt lat="53.250250" lon="6.624293">
        <ele>-4.205944</ele>
        <time>2026-09-01T15:05:13.960Z</time>
      </trkpt>
      <trkpt lat="53.250282" lon="6.624504">
        <ele>-4.285793</ele>
        <time>2026-09-01T15:05:16.959Z</time>
      </trkpt>
      <trkpt lat="53.250316" lon="6.624708">
        <ele>-4.363474</ele>
        <time>2026-09-01T15:05:19.958Z</time>
      </trkpt>
      <trkpt lat="53.250350" lon="6.624886">
        <ele>-4.432016</ele>
        <time>2026-09-01T15:05:22.961Z</time>
      </trkpt>
      <trkpt lat="53.250386" lon="6.625070">
        <ele>-4.503029</ele>
        <time>2026-09-01T15:05:25.959Z</time>
      </trkpt>
      <trkpt lat="53.250410" lon="6.625270">
        <ele>-4.577856</ele>
        <time>2026-09-01T15:05:28.961Z</time>
      </trkpt>
      <trkpt lat="53.250436" lon="6.625482">
        <ele>-4.657240</ele>
        <time>2026-09-01T15:05:31.960Z</time>
      </trkpt>
      <trkpt lat="53.250457" lon="6.625678">
        <ele>-4.730281</ele>
        <time>2026-09-01T15:05:34.962Z</time>
      </trkpt>
      <trkpt lat="53.250475" lon="6.625867">
        <ele>-4.800484</ele>
        <time>2026-09-01T15:05:37.961Z</time>
      </trkpt>
      <trkpt lat="53.250489" lon="6.626062">
        <ele>-4.872528</ele>
        <time>2026-09-01T15:05:40.959Z</time>
      </trkpt>
      <trkpt lat="53.250507" lon="6.626265">
        <ele>-4.862576</ele>
        <time>2026-09-01T15:05:43.960Z</time>
      </trkpt>
      <trkpt lat="53.250538" lon="6.626469">
        <ele>-4.848363</ele>
        <time>2026-09-01T15:05:46.962Z</time>
      </trkpt>
      <trkpt lat="53.250556" lon="6.626683">
        <ele>-4.833770</ele>
        <time>2026-09-01T15:05:49.960Z</time>
      </trkpt>
      <trkpt lat="53.250575" lon="6.626897">
        <ele>-4.819161</ele>
        <time>2026-09-01T15:05:52.959Z</time>
      </trkpt>
      <trkpt lat="53.250598" lon="6.627105">
        <ele>-4.804877</ele>
        <time>2026-09-01T15:05:55.961Z</time>
      </trkpt>
      <trkpt lat="53.250629" lon="6.627304">
        <ele>-4.790991</ele>
        <time>2026-09-01T15:05:58.958Z</time>
      </trkpt>
      <trkpt lat="53.250668" lon="6.627478">
        <ele>-4.778444</ele>
        <time>2026-09-01T15:06:01.957Z</time>
      </trkpt>
      <trkpt lat="53.250701" lon="6.627650">
        <ele>-4.766247</ele>
        <time>2026-09-01T15:06:04.975Z</time>
      </trkpt>
      <trkpt lat="53.250720" lon="6.627841">
        <ele>-4.753172</ele>
        <time>2026-09-01T15:06:07.960Z</time>
      </trkpt>
      <trkpt lat="53.250738" lon="6.628039">
        <ele>-4.739648</ele>
        <time>2026-09-01T15:06:10.960Z</time>
      </trkpt>
      <trkpt lat="53.250746" lon="6.628229">
        <ele>-4.726786</ele>
        <time>2026-09-01T15:06:13.960Z</time>
      </trkpt>
      <trkpt lat="53.250748" lon="6.628409">
        <ele>-4.714629</ele>
        <time>2026-09-01T15:06:16.960Z</time>
      </trkpt>
      <trkpt lat="53.250761" lon="6.628586">
        <ele>-4.702587</ele>
        <time>2026-09-01T15:06:19.958Z</time>
      </trkpt>
      <trkpt lat="53.250783" lon="6.628751">
        <ele>-4.691172</ele>
        <time>2026-09-01T15:06:22.973Z</time>
      </trkpt>
      <trkpt lat="53.250796" lon="6.628906">
        <ele>-4.680603</ele>
        <time>2026-09-01T15:06:25.960Z</time>
      </trkpt>
      <trkpt lat="53.250830" lon="6.629218">
        <ele>-4.701209</ele>
        <time>2026-09-01T15:09:10.976Z</time>
      </trkpt>
      <trkpt lat="53.250873" lon="6.629392">
        <ele>-4.727663</ele>
        <time>2026-09-01T15:09:14.970Z</time>
      </trkpt>
      <trkpt lat="53.250892" lon="6.629541">
        <ele>-4.749070</ele>
        <time>2026-09-01T15:09:17.957Z</time>
      </trkpt>
      <trkpt lat="53.250908" lon="6.629731">
        <ele>-4.776031</ele>
        <time>2026-09-01T15:09:21.959Z</time>
      </trkpt>
      <trkpt lat="53.250923" lon="6.629891">
        <ele>-4.798788</ele>
        <time>2026-09-01T15:09:24.959Z</time>
      </trkpt>
      <trkpt lat="53.250946" lon="6.630061">
        <ele>-4.823279</ele>
        <time>2026-09-01T15:09:27.957Z</time>
      </trkpt>
      <trkpt lat="53.250970" lon="6.630233">
        <ele>-4.848097</ele>
        <time>2026-09-01T15:09:30.960Z</time>
      </trkpt>
      <trkpt lat="53.250997" lon="6.630378">
        <ele>-4.869435</ele>
        <time>2026-09-01T15:09:33.957Z</time>
      </trkpt>
      <trkpt lat="53.251014" lon="6.630526">
        <ele>-4.890612</ele>
        <time>2026-09-01T15:09:36.960Z</time>
      </trkpt>
      <trkpt lat="53.251032" lon="6.630694">
        <ele>-4.914594</ele>
        <time>2026-09-01T15:09:39.956Z</time>
      </trkpt>
      <trkpt lat="53.251044" lon="6.630859">
        <ele>-4.937950</ele>
        <time>2026-09-01T15:09:42.976Z</time>
      </trkpt>
      <trkpt lat="53.251062" lon="6.631020">
        <ele>-4.960964</ele>
        <time>2026-09-01T15:09:45.975Z</time>
      </trkpt>
      <trkpt lat="53.251078" lon="6.631177">
        <ele>-4.983343</ele>
        <time>2026-09-01T15:09:48.961Z</time>
      </trkpt>
      <trkpt lat="53.251096" lon="6.631338">
        <ele>-5.006358</ele>
        <time>2026-09-01T15:09:51.958Z</time>
      </trkpt>
      <trkpt lat="53.251119" lon="6.631512">
        <ele>-5.031397</ele>
        <time>2026-09-01T15:09:54.968Z</time>
      </trkpt>
      <trkpt lat="53.251135" lon="6.631697">
        <ele>-5.057663</ele>
        <time>2026-09-01T15:09:57.967Z</time>
      </trkpt>
      <trkpt lat="53.251152" lon="6.631870">
        <ele>-5.082298</ele>
        <time>2026-09-01T15:10:00.968Z</time>
      </trkpt>
      <trkpt lat="53.251169" lon="6.632033">
        <ele>-5.101699</ele>
        <time>2026-09-01T15:10:03.972Z</time>
      </trkpt>
      <trkpt lat="53.251189" lon="6.632193">
        <ele>-5.116084</ele>
        <time>2026-09-01T15:10:06.966Z</time>
      </trkpt>
      <trkpt lat="53.251208" lon="6.632376">
        <ele>-5.132431</ele>
        <time>2026-09-01T15:10:09.960Z</time>
      </trkpt>
      <trkpt lat="53.251228" lon="6.632563">
        <ele>-5.149150</ele>
        <time>2026-09-01T15:10:12.972Z</time>
      </trkpt>
      <trkpt lat="53.251249" lon="6.632728">
        <ele>-5.163996</ele>
        <time>2026-09-01T15:10:15.967Z</time>
      </trkpt>
      <trkpt lat="53.251269" lon="6.632894">
        <ele>-5.178899</ele>
        <time>2026-09-01T15:10:18.970Z</time>
      </trkpt>
      <trkpt lat="53.251285" lon="6.633067">
        <ele>-5.194306</ele>
        <time>2026-09-01T15:10:21.969Z</time>
      </trkpt>
      <trkpt lat="53.251310" lon="6.633239">
        <ele>-5.209884</ele>
        <time>2026-09-01T15:10:24.967Z</time>
      </trkpt>
      <trkpt lat="53.251332" lon="6.633408">
        <ele>-5.225106</ele>
        <time>2026-09-01T15:10:27.975Z</time>
      </trkpt>
      <trkpt lat="53.251350" lon="6.633576">
        <ele>-5.240126</ele>
        <time>2026-09-01T15:10:30.971Z</time>
      </trkpt>
      <trkpt lat="53.251368" lon="6.633753">
        <ele>-5.255928</ele>
        <time>2026-09-01T15:10:33.970Z</time>
      </trkpt>
      <trkpt lat="53.251392" lon="6.633920">
        <ele>-5.271043</ele>
        <time>2026-09-01T15:10:36.969Z</time>
      </trkpt>
      <trkpt lat="53.251410" lon="6.634087">
        <ele>-5.285978</ele>
        <time>2026-09-01T15:10:39.968Z</time>
      </trkpt>
      <trkpt lat="53.251427" lon="6.634263">
        <ele>-5.301668</ele>
        <time>2026-09-01T15:10:42.969Z</time>
      </trkpt>
      <trkpt lat="53.251452" lon="6.634438">
        <ele>-5.317503</ele>
        <time>2026-09-01T15:10:45.968Z</time>
      </trkpt>
      <trkpt lat="53.251473" lon="6.634611">
        <ele>-5.333038</ele>
        <time>2026-09-01T15:10:48.968Z</time>
      </trkpt>
      <trkpt lat="53.251492" lon="6.634770">
        <ele>-5.347308</ele>
        <time>2026-09-01T15:10:51.969Z</time>
      </trkpt>
      <trkpt lat="53.251517" lon="6.634954">
        <ele>-5.335925</ele>
        <time>2026-09-01T15:10:55.965Z</time>
      </trkpt>
      <trkpt lat="53.251549" lon="6.635138">
        <ele>-5.237340</ele>
        <time>2026-09-01T15:10:59.970Z</time>
      </trkpt>
      <trkpt lat="53.251556" lon="6.635307">
        <ele>-5.150183</ele>
        <time>2026-09-01T15:11:03.965Z</time>
      </trkpt>
      <trkpt lat="53.251471" lon="6.635475">
        <ele>-5.036987</ele>
        <time>2026-09-01T15:30:53.960Z</time>
      </trkpt>
      <trkpt lat="53.251371" lon="6.635548">
        <ele>-4.943151</ele>
        <time>2026-09-01T15:30:58.960Z</time>
      </trkpt>
      <trkpt lat="53.251298" lon="6.635444">
        <ele>-4.860667</ele>
        <time>2026-09-01T15:31:02.960Z</time>
      </trkpt>
      <trkpt lat="53.251252" lon="6.635261">
        <ele>-4.758543</ele>
        <time>2026-09-01T15:31:06.960Z</time>
      </trkpt>
      <trkpt lat="53.251178" lon="6.635161">
        <ele>-4.676712</ele>
        <time>2026-09-01T15:31:09.957Z</time>
      </trkpt>
      <trkpt lat="53.251085" lon="6.635177">
        <ele>-4.596317</ele>
        <time>2026-09-01T15:31:12.960Z</time>
      </trkpt>
      <trkpt lat="53.250993" lon="6.635223">
        <ele>-4.513741</ele>
        <time>2026-09-01T15:31:15.959Z</time>
      </trkpt>
      <trkpt lat="53.250889" lon="6.635268">
        <ele>-4.421361</ele>
        <time>2026-09-01T15:31:19.958Z</time>
      </trkpt>
      <trkpt lat="53.250775" lon="6.635321">
        <ele>-4.319609</ele>
        <time>2026-09-01T15:31:23.960Z</time>
      </trkpt>
      <trkpt lat="53.250676" lon="6.635361">
        <ele>-4.232025</ele>
        <time>2026-09-01T15:31:26.959Z</time>
      </trkpt>
      <trkpt lat="53.250575" lon="6.635406">
        <ele>-4.142141</ele>
        <time>2026-09-01T15:31:29.959Z</time>
      </trkpt>
      <trkpt lat="53.250485" lon="6.635446">
        <ele>-4.062059</ele>
        <time>2026-09-01T15:31:32.961Z</time>
      </trkpt>
      <trkpt lat="53.250377" lon="6.635491">
        <ele>-3.966345</ele>
        <time>2026-09-01T15:31:36.961Z</time>
      </trkpt>
      <trkpt lat="53.250279" lon="6.635532">
        <ele>-3.879474</ele>
        <time>2026-09-01T15:31:39.961Z</time>
      </trkpt>
      <trkpt lat="53.250175" lon="6.635577">
        <ele>-3.788055</ele>
        <time>2026-09-01T15:31:42.958Z</time>
      </trkpt>
      <trkpt lat="53.250071" lon="6.635631">
        <ele>-3.697864</ele>
        <time>2026-09-01T15:31:45.959Z</time>
      </trkpt>
      <trkpt lat="53.249957" lon="6.635685">
        <ele>-3.599734</ele>
        <time>2026-09-01T15:31:48.958Z</time>
      </trkpt>
      <trkpt lat="53.249846" lon="6.635746">
        <ele>-3.502964</ele>
        <time>2026-09-01T15:31:51.959Z</time>
      </trkpt>
      <trkpt lat="53.249731" lon="6.635796">
        <ele>-3.404554</ele>
        <time>2026-09-01T15:31:54.959Z</time>
      </trkpt>
      <trkpt lat="53.249613" lon="6.635856">
        <ele>-3.302406</ele>
        <time>2026-09-01T15:31:57.959Z</time>
      </trkpt>
      <trkpt lat="53.249496" lon="6.635910">
        <ele>-3.201883</ele>
        <time>2026-09-01T15:32:00.959Z</time>
      </trkpt>
      <trkpt lat="53.249395" lon="6.635985">
        <ele>-3.110352</ele>
        <time>2026-09-01T15:32:03.959Z</time>
      </trkpt>
      <trkpt lat="53.249311" lon="6.636074">
        <ele>-3.027984</ele>
        <time>2026-09-01T15:32:06.960Z</time>
      </trkpt>
      <trkpt lat="53.249216" lon="6.636112">
        <ele>-2.947085</ele>
        <time>2026-09-01T15:32:09.960Z</time>
      </trkpt>
      <trkpt lat="53.249112" lon="6.636104">
        <ele>-2.860864</ele>
        <time>2026-09-01T15:32:12.958Z</time>
      </trkpt>
      <trkpt lat="53.249010" lon="6.636103">
        <ele>-2.776388</ele>
        <time>2026-09-01T15:32:15.975Z</time>
      </trkpt>
      <trkpt lat="53.248916" lon="6.636093">
        <ele>-2.698382</ele>
        <time>2026-09-01T15:32:18.958Z</time>
      </trkpt>
      <trkpt lat="53.248880" lon="6.635955">
        <ele>-2.623782</ele>
        <time>2026-09-01T15:32:21.960Z</time>
      </trkpt>
      <trkpt lat="53.248842" lon="6.635804">
        <ele>-2.542608</ele>
        <time>2026-09-01T15:32:24.960Z</time>
      </trkpt>
      <trkpt lat="53.248804" lon="6.635642">
        <ele>-2.456384</ele>
        <time>2026-09-01T15:32:27.960Z</time>
      </trkpt>
      <trkpt lat="53.248756" lon="6.635474">
        <ele>-2.364130</ele>
        <time>2026-09-01T15:32:30.960Z</time>
      </trkpt>
      <trkpt lat="53.248711" lon="6.635296">
        <ele>-2.322745</ele>
        <time>2026-09-01T15:32:33.959Z</time>
      </trkpt>
      <trkpt lat="53.248668" lon="6.635112">
        <ele>-2.321317</ele>
        <time>2026-09-01T15:32:36.959Z</time>
      </trkpt>
      <trkpt lat="53.248622" lon="6.634931">
        <ele>-2.319896</ele>
        <time>2026-09-01T15:32:39.959Z</time>
      </trkpt>
      <trkpt lat="53.248575" lon="6.634756">
        <ele>-2.318509</ele>
        <time>2026-09-01T15:32:42.958Z</time>
      </trkpt>
      <trkpt lat="53.248527" lon="6.634568">
        <ele>-2.317032</ele>
        <time>2026-09-01T15:32:45.958Z</time>
      </trkpt>
      <trkpt lat="53.248475" lon="6.634380">
        <ele>-2.315534</ele>
        <time>2026-09-01T15:32:48.960Z</time>
      </trkpt>
      <trkpt lat="53.248429" lon="6.634188">
        <ele>-2.314040</ele>
        <time>2026-09-01T15:32:51.959Z</time>
      </trkpt>
      <trkpt lat="53.248382" lon="6.634000">
        <ele>-2.312567</ele>
        <time>2026-09-01T15:32:54.958Z</time>
      </trkpt>
      <trkpt lat="53.248337" lon="6.633813">
        <ele>-2.311110</ele>
        <time>2026-09-01T15:32:57.966Z</time>
      </trkpt>
      <trkpt lat="53.248290" lon="6.633621">
        <ele>-2.309610</ele>
        <time>2026-09-01T15:33:00.966Z</time>
      </trkpt>
      <trkpt lat="53.248244" lon="6.633434">
        <ele>-2.308149</ele>
        <time>2026-09-01T15:33:03.955Z</time>
      </trkpt>
      <trkpt lat="53.248196" lon="6.633247">
        <ele>-2.306678</ele>
        <time>2026-09-01T15:33:06.959Z</time>
      </trkpt>
      <trkpt lat="53.248149" lon="6.633064">
        <ele>-2.305238</ele>
        <time>2026-09-01T15:33:09.959Z</time>
      </trkpt>
      <trkpt lat="53.248103" lon="6.632877">
        <ele>-2.303777</ele>
        <time>2026-09-01T15:33:12.957Z</time>
      </trkpt>
      <trkpt lat="53.248056" lon="6.632699">
        <ele>-2.302371</ele>
        <time>2026-09-01T15:33:15.958Z</time>
      </trkpt>
      <trkpt lat="53.248011" lon="6.632523">
        <ele>-2.321265</ele>
        <time>2026-09-01T15:33:18.959Z</time>
      </trkpt>
      <trkpt lat="53.247960" lon="6.632340">
        <ele>-2.355285</ele>
        <time>2026-09-01T15:33:21.966Z</time>
      </trkpt>
      <trkpt lat="53.247916" lon="6.632152">
        <ele>-2.389305</ele>
        <time>2026-09-01T15:33:24.960Z</time>
      </trkpt>
      <trkpt lat="53.247871" lon="6.631966">
        <ele>-2.423116</ele>
        <time>2026-09-01T15:33:27.961Z</time>
      </trkpt>
      <trkpt lat="53.247825" lon="6.631781">
        <ele>-2.456878</ele>
        <time>2026-09-01T15:33:30.966Z</time>
      </trkpt>
      <trkpt lat="53.247779" lon="6.631591">
        <ele>-2.491420</ele>
        <time>2026-09-01T15:33:33.966Z</time>
      </trkpt>
      <trkpt lat="53.247729" lon="6.631400">
        <ele>-2.526554</ele>
        <time>2026-09-01T15:33:36.967Z</time>
      </trkpt>
      <trkpt lat="53.247675" lon="6.631210">
        <ele>-2.562002</ele>
        <time>2026-09-01T15:33:39.956Z</time>
      </trkpt>
      <trkpt lat="53.247623" lon="6.631015">
        <ele>-2.597980</ele>
        <time>2026-09-01T15:33:42.967Z</time>
      </trkpt>
      <trkpt lat="53.247572" lon="6.630826">
        <ele>-2.632921</ele>
        <time>2026-09-01T15:33:45.959Z</time>
      </trkpt>
      <trkpt lat="53.247524" lon="6.630650">
        <ele>-2.665517</ele>
        <time>2026-09-01T15:33:48.960Z</time>
      </trkpt>
      <trkpt lat="53.247481" lon="6.630468">
        <ele>-2.698493</ele>
        <time>2026-09-01T15:33:51.960Z</time>
      </trkpt>
      <trkpt lat="53.247435" lon="6.630278">
        <ele>-2.733035</ele>
        <time>2026-09-01T15:33:54.962Z</time>
      </trkpt>
      <trkpt lat="53.247393" lon="6.630091">
        <ele>-2.766696</ele>
        <time>2026-09-01T15:33:57.961Z</time>
      </trkpt>
      <trkpt lat="53.247351" lon="6.629914">
        <ele>-2.798786</ele>
        <time>2026-09-01T15:34:00.961Z</time>
      </trkpt>
      <trkpt lat="53.247312" lon="6.629757">
        <ele>-2.845196</ele>
        <time>2026-09-01T15:34:03.960Z</time>
      </trkpt>
      <trkpt lat="53.247214" lon="6.629734">
        <ele>-2.899085</ele>
        <time>2026-09-01T15:34:07.976Z</time>
      </trkpt>
      <trkpt lat="53.247130" lon="6.629827">
        <ele>-2.953952</ele>
        <time>2026-09-01T15:34:10.959Z</time>
      </trkpt>
      <trkpt lat="53.247028" lon="6.629970">
        <ele>-3.026450</ele>
        <time>2026-09-01T15:34:13.960Z</time>
      </trkpt>
      <trkpt lat="53.246942" lon="6.630130">
        <ele>-3.096528</ele>
        <time>2026-09-01T15:34:16.960Z</time>
      </trkpt>
      <trkpt lat="53.246894" lon="6.630317">
        <ele>-3.162829</ele>
        <time>2026-09-01T15:34:19.962Z</time>
      </trkpt>
      <trkpt lat="53.246880" lon="6.630525">
        <ele>-3.231029</ele>
        <time>2026-09-01T15:34:22.960Z</time>
      </trkpt>
      <trkpt lat="53.246796" lon="6.630660">
        <ele>-3.294489</ele>
        <time>2026-09-01T15:34:25.962Z</time>
      </trkpt>
      <trkpt lat="53.246691" lon="6.630760">
        <ele>-3.360298</ele>
        <time>2026-09-01T15:34:28.958Z</time>
      </trkpt>
      <trkpt lat="53.246584" lon="6.630879">
        <ele>-3.430286</ele>
        <time>2026-09-01T15:34:31.966Z</time>
      </trkpt>
      <trkpt lat="53.246482" lon="6.630987">
        <ele>-3.496038</ele>
        <time>2026-09-01T15:34:34.967Z</time>
      </trkpt>
      <trkpt lat="53.246391" lon="6.631085">
        <ele>-3.554988</ele>
        <time>2026-09-01T15:34:37.960Z</time>
      </trkpt>
      <trkpt lat="53.246288" lon="6.631165">
        <ele>-3.616837</ele>
        <time>2026-09-01T15:34:40.959Z</time>
      </trkpt>
      <trkpt lat="53.246184" lon="6.631247">
        <ele>-3.679455</ele>
        <time>2026-09-01T15:34:43.966Z</time>
      </trkpt>
      <trkpt lat="53.246077" lon="6.631348">
        <ele>-3.746372</ele>
        <time>2026-09-01T15:34:46.960Z</time>
      </trkpt>
      <trkpt lat="53.245964" lon="6.631452">
        <ele>-3.779829</ele>
        <time>2026-09-01T15:34:49.961Z</time>
      </trkpt>
      <trkpt lat="53.245845" lon="6.631535">
        <ele>-3.760314</ele>
        <time>2026-09-01T15:34:52.961Z</time>
      </trkpt>
      <trkpt lat="53.245727" lon="6.631612">
        <ele>-3.741144</ele>
        <time>2026-09-01T15:34:55.962Z</time>
      </trkpt>
      <trkpt lat="53.245610" lon="6.631676">
        <ele>-3.722513</ele>
        <time>2026-09-01T15:34:58.967Z</time>
      </trkpt>
      <trkpt lat="53.245501" lon="6.631746">
        <ele>-3.704842</ele>
        <time>2026-09-01T15:35:01.956Z</time>
      </trkpt>
      <trkpt lat="53.245396" lon="6.631813">
        <ele>-3.687833</ele>
        <time>2026-09-01T15:35:04.965Z</time>
      </trkpt>
      <trkpt lat="53.245292" lon="6.631868">
        <ele>-3.671325</ele>
        <time>2026-09-01T15:35:07.957Z</time>
      </trkpt>
      <trkpt lat="53.245222" lon="6.631757">
        <ele>-3.656721</ele>
        <time>2026-09-01T15:35:10.960Z</time>
      </trkpt>
      <trkpt lat="53.245186" lon="6.631588">
        <ele>-3.640476</ele>
        <time>2026-09-01T15:35:13.960Z</time>
      </trkpt>
      <trkpt lat="53.245150" lon="6.631414">
        <ele>-3.623804</ele>
        <time>2026-09-01T15:35:16.954Z</time>
      </trkpt>
      <trkpt lat="53.245110" lon="6.631236">
        <ele>-3.606586</ele>
        <time>2026-09-01T15:35:19.967Z</time>
      </trkpt>
      <trkpt lat="53.245071" lon="6.631054">
        <ele>-3.589080</ele>
        <time>2026-09-01T15:35:22.966Z</time>
      </trkpt>
      <trkpt lat="53.245029" lon="6.630871">
        <ele>-3.571330</ele>
        <time>2026-09-01T15:35:25.960Z</time>
      </trkpt>
      <trkpt lat="53.244979" lon="6.630698">
        <ele>-3.553932</ele>
        <time>2026-09-01T15:35:28.959Z</time>
      </trkpt>
      <trkpt lat="53.244934" lon="6.630547">
        <ele>-3.538656</ele>
        <time>2026-09-01T15:35:31.966Z</time>
      </trkpt>
      <trkpt lat="53.244836" lon="6.630558">
        <ele>-3.523792</ele>
        <time>2026-09-01T15:35:34.966Z</time>
      </trkpt>
      <trkpt lat="53.244748" lon="6.630645">
        <ele>-3.520236</ele>
        <time>2026-09-01T15:35:37.959Z</time>
      </trkpt>
      <trkpt lat="53.244648" lon="6.630720">
        <ele>-3.530673</ele>
        <time>2026-09-01T15:35:40.959Z</time>
      </trkpt>
      <trkpt lat="53.244541" lon="6.630804">
        <ele>-3.541929</ele>
        <time>2026-09-01T15:35:43.960Z</time>
      </trkpt>
      <trkpt lat="53.244437" lon="6.630879">
        <ele>-3.552715</ele>
        <time>2026-09-01T15:35:46.960Z</time>
      </trkpt>
      <trkpt lat="53.244330" lon="6.630960">
        <ele>-3.563899</ele>
        <time>2026-09-01T15:35:49.960Z</time>
      </trkpt>
      <trkpt lat="53.244230" lon="6.631036">
        <ele>-3.574360</ele>
        <time>2026-09-01T15:35:52.976Z</time>
      </trkpt>
      <trkpt lat="53.244134" lon="6.631092">
        <ele>-3.584042</ele>
        <time>2026-09-01T15:35:55.961Z</time>
      </trkpt>
      <trkpt lat="53.244058" lon="6.630943">
        <ele>-3.595197</ele>
        <time>2026-09-01T15:35:59.966Z</time>
      </trkpt>
      <trkpt lat="53.244027" lon="6.630781">
        <ele>-3.604888</ele>
        <time>2026-09-01T15:36:02.966Z</time>
      </trkpt>
      <trkpt lat="53.243982" lon="6.630599">
        <ele>-3.616109</ele>
        <time>2026-09-01T15:36:05.966Z</time>
      </trkpt>
      <trkpt lat="53.243944" lon="6.630419">
        <ele>-3.626985</ele>
        <time>2026-09-01T15:36:08.967Z</time>
      </trkpt>
      <trkpt lat="53.243889" lon="6.630285">
        <ele>-3.636243</ele>
        <time>2026-09-01T15:36:11.959Z</time>
      </trkpt>
      <trkpt lat="53.243792" lon="6.630346">
        <ele>-3.646112</ele>
        <time>2026-09-01T15:36:14.966Z</time>
      </trkpt>
      <trkpt lat="53.243683" lon="6.630415">
        <ele>-3.657210</ele>
        <time>2026-09-01T15:36:17.966Z</time>
      </trkpt>
      <trkpt lat="53.243577" lon="6.630479">
        <ele>-3.667942</ele>
        <time>2026-09-01T15:36:20.958Z</time>
      </trkpt>
      <trkpt lat="53.243472" lon="6.630547">
        <ele>-3.678665</ele>
        <time>2026-09-01T15:36:23.962Z</time>
      </trkpt>
      <trkpt lat="53.243358" lon="6.630609">
        <ele>-3.690754</ele>
        <time>2026-09-01T15:36:26.962Z</time>
      </trkpt>
      <trkpt lat="53.243242" lon="6.630668">
        <ele>-3.704744</ele>
        <time>2026-09-01T15:36:29.961Z</time>
      </trkpt>
      <trkpt lat="53.243136" lon="6.630733">
        <ele>-3.717772</ele>
        <time>2026-09-01T15:36:32.976Z</time>
      </trkpt>
      <trkpt lat="53.243043" lon="6.630798">
        <ele>-3.729402</ele>
        <time>2026-09-01T15:36:35.968Z</time>
      </trkpt>
      <trkpt lat="53.242959" lon="6.630858">
        <ele>-3.739943</ele>
        <time>2026-09-01T15:36:38.959Z</time>
      </trkpt>
      <trkpt lat="53.242868" lon="6.630901">
        <ele>-3.750854</ele>
        <time>2026-09-01T15:36:41.961Z</time>
      </trkpt>
      <trkpt lat="53.242781" lon="6.630954">
        <ele>-3.761538</ele>
        <time>2026-09-01T15:36:44.966Z</time>
      </trkpt>
      <trkpt lat="53.242730" lon="6.631127">
        <ele>-3.774853</ele>
        <time>2026-09-01T15:36:48.961Z</time>
      </trkpt>
      <trkpt lat="53.242639" lon="6.631192">
        <ele>-3.786272</ele>
        <time>2026-09-01T15:36:51.966Z</time>
      </trkpt>
      <trkpt lat="53.242548" lon="6.631128">
        <ele>-3.797663</ele>
        <time>2026-09-01T15:36:54.960Z</time>
      </trkpt>
      <trkpt lat="53.242439" lon="6.631159">
        <ele>-3.810420</ele>
        <time>2026-09-01T15:36:58.961Z</time>
      </trkpt>
      <trkpt lat="53.242335" lon="6.631213">
        <ele>-3.822986</ele>
        <time>2026-09-01T15:37:01.961Z</time>
      </trkpt>
      <trkpt lat="53.242244" lon="6.631276">
        <ele>-3.834351</ele>
        <time>2026-09-01T15:37:04.963Z</time>
      </trkpt>
      <trkpt lat="53.242218" lon="6.631421">
        <ele>-3.844802</ele>
        <time>2026-09-01T15:37:07.960Z</time>
      </trkpt>
      <trkpt lat="53.242246" lon="6.631580">
        <ele>-3.856246</ele>
        <time>2026-09-01T15:37:10.959Z</time>
      </trkpt>
      <trkpt lat="53.242286" lon="6.631759">
        <ele>-3.869439</ele>
        <time>2026-09-01T15:37:13.960Z</time>
      </trkpt>
      <trkpt lat="53.242329" lon="6.631947">
        <ele>-3.883335</ele>
        <time>2026-09-01T15:37:16.962Z</time>
      </trkpt>
      <trkpt lat="53.242367" lon="6.632144">
        <ele>-3.885360</ele>
        <time>2026-09-01T15:37:19.960Z</time>
      </trkpt>
      <trkpt lat="53.242406" lon="6.632336">
        <ele>-3.845774</ele>
        <time>2026-09-01T15:37:22.961Z</time>
      </trkpt>
      <trkpt lat="53.242451" lon="6.632527">
        <ele>-3.805697</ele>
        <time>2026-09-01T15:37:25.974Z</time>
      </trkpt>
      <trkpt lat="53.242491" lon="6.632723">
        <ele>-3.765266</ele>
        <time>2026-09-01T15:37:28.958Z</time>
      </trkpt>
      <trkpt lat="53.242537" lon="6.632921">
        <ele>-3.723798</ele>
        <time>2026-09-01T15:37:31.961Z</time>
      </trkpt>
      <trkpt lat="53.242580" lon="6.633118">
        <ele>-3.682857</ele>
        <time>2026-09-01T15:37:34.959Z</time>
      </trkpt>
      <trkpt lat="53.242621" lon="6.633317">
        <ele>-3.641767</ele>
        <time>2026-09-01T15:37:37.960Z</time>
      </trkpt>
      <trkpt lat="53.242663" lon="6.633523">
        <ele>-3.599278</ele>
        <time>2026-09-01T15:37:40.966Z</time>
      </trkpt>
      <trkpt lat="53.242704" lon="6.633731">
        <ele>-3.556522</ele>
        <time>2026-09-01T15:37:43.962Z</time>
      </trkpt>
      <trkpt lat="53.242749" lon="6.633936">
        <ele>-3.513891</ele>
        <time>2026-09-01T15:37:46.958Z</time>
      </trkpt>
      <trkpt lat="53.242791" lon="6.634142">
        <ele>-3.471402</ele>
        <time>2026-09-01T15:37:49.967Z</time>
      </trkpt>
      <trkpt lat="53.242839" lon="6.634342">
        <ele>-3.429331</ele>
        <time>2026-09-01T15:37:52.959Z</time>
      </trkpt>
      <trkpt lat="53.242883" lon="6.634546">
        <ele>-3.386995</ele>
        <time>2026-09-01T15:37:55.962Z</time>
      </trkpt>
      <trkpt lat="53.242929" lon="6.634750">
        <ele>-3.344433</ele>
        <time>2026-09-01T15:37:58.961Z</time>
      </trkpt>
      <trkpt lat="53.242978" lon="6.634958">
        <ele>-3.300888</ele>
        <time>2026-09-01T15:38:01.966Z</time>
      </trkpt>
      <trkpt lat="53.243021" lon="6.635162">
        <ele>-3.259270</ele>
        <time>2026-09-01T15:38:04.961Z</time>
      </trkpt>
      <trkpt lat="53.243052" lon="6.635305">
        <ele>-3.230004</ele>
        <time>2026-09-01T15:38:06.958Z</time>
      </trkpt>
      <trkpt lat="53.243084" lon="6.635446">
        <ele>-3.200987</ele>
        <time>2026-09-01T15:38:08.966Z</time>
      </trkpt>
      <trkpt lat="53.243116" lon="6.635588">
        <ele>-3.171790</ele>
        <time>2026-09-01T15:38:10.966Z</time>
      </trkpt>
      <trkpt lat="53.243145" lon="6.635731">
        <ele>-3.142736</ele>
        <time>2026-09-01T15:38:12.959Z</time>
      </trkpt>
      <trkpt lat="53.243175" lon="6.635880">
        <ele>-3.112486</ele>
        <time>2026-09-01T15:38:14.967Z</time>
      </trkpt>
      <trkpt lat="53.243209" lon="6.636023">
        <ele>-3.082877</ele>
        <time>2026-09-01T15:38:16.966Z</time>
      </trkpt>
      <trkpt lat="53.243246" lon="6.636168">
        <ele>-3.052545</ele>
        <time>2026-09-01T15:38:18.966Z</time>
      </trkpt>
      <trkpt lat="53.243273" lon="6.636322">
        <ele>-3.021667</ele>
        <time>2026-09-01T15:38:20.968Z</time>
      </trkpt>
      <trkpt lat="53.243304" lon="6.636471">
        <ele>-2.991313</ele>
        <time>2026-09-01T15:38:22.966Z</time>
      </trkpt>
      <trkpt lat="53.243335" lon="6.636614">
        <ele>-2.962047</ele>
        <time>2026-09-01T15:38:24.962Z</time>
      </trkpt>
      <trkpt lat="53.243370" lon="6.636753">
        <ele>-2.933029</ele>
        <time>2026-09-01T15:38:26.965Z</time>
      </trkpt>
      <trkpt lat="53.243399" lon="6.636908">
        <ele>-2.901780</ele>
        <time>2026-09-01T15:38:28.967Z</time>
      </trkpt>
      <trkpt lat="53.243430" lon="6.637058">
        <ele>-2.871244</ele>
        <time>2026-09-01T15:38:30.961Z</time>
      </trkpt>
      <trkpt lat="53.243465" lon="6.637210">
        <ele>-2.839905</ele>
        <time>2026-09-01T15:38:32.964Z</time>
      </trkpt>
      <trkpt lat="53.243499" lon="6.637365">
        <ele>-2.808140</ele>
        <time>2026-09-01T15:38:34.960Z</time>
      </trkpt>
      <trkpt lat="53.243533" lon="6.637513">
        <ele>-2.777635</ele>
        <time>2026-09-01T15:38:36.961Z</time>
      </trkpt>
      <trkpt lat="53.243571" lon="6.637665">
        <ele>-2.745937</ele>
        <time>2026-09-01T15:38:38.974Z</time>
      </trkpt>
      <trkpt lat="53.243603" lon="6.637816">
        <ele>-2.742625</ele>
        <time>2026-09-01T15:38:40.962Z</time>
      </trkpt>
      <trkpt lat="53.243640" lon="6.637965">
        <ele>-2.771962</ele>
        <time>2026-09-01T15:38:42.975Z</time>
      </trkpt>
      <trkpt lat="53.243675" lon="6.638115">
        <ele>-2.801240</ele>
        <time>2026-09-01T15:38:44.975Z</time>
      </trkpt>
      <trkpt lat="53.243722" lon="6.638326">
        <ele>-2.842183</ele>
        <time>2026-09-01T15:38:47.960Z</time>
      </trkpt>
      <trkpt lat="53.243771" lon="6.638534">
        <ele>-2.882833</ele>
        <time>2026-09-01T15:38:50.960Z</time>
      </trkpt>
      <trkpt lat="53.243816" lon="6.638736">
        <ele>-2.922030</ele>
        <time>2026-09-01T15:38:53.961Z</time>
      </trkpt>
      <trkpt lat="53.243846" lon="6.638922">
        <ele>-2.957061</ele>
        <time>2026-09-01T15:38:56.961Z</time>
      </trkpt>
      <trkpt lat="53.243801" lon="6.639058">
        <ele>-2.985322</ele>
        <time>2026-09-01T15:38:59.962Z</time>
      </trkpt>
      <trkpt lat="53.243706" lon="6.639130">
        <ele>-3.017022</ele>
        <time>2026-09-01T15:39:02.961Z</time>
      </trkpt>
      <trkpt lat="53.243620" lon="6.639176">
        <ele>-3.044463</ele>
        <time>2026-09-01T15:39:05.961Z</time>
      </trkpt>
      <trkpt lat="53.243520" lon="6.639223">
        <ele>-3.076031</ele>
        <time>2026-09-01T15:39:08.962Z</time>
      </trkpt>
      <trkpt lat="53.243422" lon="6.639278">
        <ele>-3.107447</ele>
        <time>2026-09-01T15:39:11.966Z</time>
      </trkpt>
      <trkpt lat="53.243325" lon="6.639338">
        <ele>-3.138879</ele>
        <time>2026-09-01T15:39:14.962Z</time>
      </trkpt>
      <trkpt lat="53.243214" lon="6.639403">
        <ele>-3.174621</ele>
        <time>2026-09-01T15:39:17.962Z</time>
      </trkpt>
      <trkpt lat="53.243095" lon="6.639467">
        <ele>-3.212611</ele>
        <time>2026-09-01T15:39:20.961Z</time>
      </trkpt>
      <trkpt lat="53.242978" lon="6.639534">
        <ele>-3.250196</ele>
        <time>2026-09-01T15:39:23.975Z</time>
      </trkpt>
      <trkpt lat="53.242875" lon="6.639582">
        <ele>-3.275567</ele>
        <time>2026-09-01T15:39:26.961Z</time>
      </trkpt>
      <trkpt lat="53.242766" lon="6.639649">
        <ele>-3.274120</ele>
        <time>2026-09-01T15:39:29.961Z</time>
      </trkpt>
      <trkpt lat="53.242650" lon="6.639716">
        <ele>-3.272590</ele>
        <time>2026-09-01T15:39:32.963Z</time>
      </trkpt>
      <trkpt lat="53.242540" lon="6.639789">
        <ele>-3.271115</ele>
        <time>2026-09-01T15:39:35.962Z</time>
      </trkpt>
      <trkpt lat="53.242427" lon="6.639862">
        <ele>-3.269605</ele>
        <time>2026-09-01T15:39:38.959Z</time>
      </trkpt>
      <trkpt lat="53.242317" lon="6.639932">
        <ele>-3.268138</ele>
        <time>2026-09-01T15:39:41.960Z</time>
      </trkpt>
      <trkpt lat="53.242200" lon="6.640001">
        <ele>-3.266592</ele>
        <time>2026-09-01T15:39:44.961Z</time>
      </trkpt>
      <trkpt lat="53.242094" lon="6.640071">
        <ele>-3.265171</ele>
        <time>2026-09-01T15:39:47.961Z</time>
      </trkpt>
      <trkpt lat="53.241988" lon="6.640132">
        <ele>-3.263774</ele>
        <time>2026-09-01T15:39:50.961Z</time>
      </trkpt>
      <trkpt lat="53.241878" lon="6.640196">
        <ele>-3.262322</ele>
        <time>2026-09-01T15:39:53.960Z</time>
      </trkpt>
      <trkpt lat="53.241773" lon="6.640256">
        <ele>-3.260939</ele>
        <time>2026-09-01T15:39:56.963Z</time>
      </trkpt>
      <trkpt lat="53.241673" lon="6.640311">
        <ele>-3.259627</ele>
        <time>2026-09-01T15:39:59.963Z</time>
      </trkpt>
      <trkpt lat="53.241567" lon="6.640376">
        <ele>-3.258220</ele>
        <time>2026-09-01T15:40:03.960Z</time>
      </trkpt>
      <trkpt lat="53.241477" lon="6.640364">
        <ele>-3.257095</ele>
        <time>2026-09-01T15:40:08.958Z</time>
      </trkpt>
      <trkpt lat="53.241455" lon="6.640215">
        <ele>-3.255950</ele>
        <time>2026-09-01T15:40:11.960Z</time>
      </trkpt>
      <trkpt lat="53.241415" lon="6.640049">
        <ele>-3.254615</ele>
        <time>2026-09-01T15:40:14.961Z</time>
      </trkpt>
      <trkpt lat="53.241384" lon="6.639895">
        <ele>-3.253717</ele>
        <time>2026-09-01T15:40:17.961Z</time>
      </trkpt>
      <trkpt lat="53.241361" lon="6.639723">
        <ele>-3.267350</ele>
        <time>2026-09-01T15:40:20.962Z</time>
      </trkpt>
      <trkpt lat="53.241343" lon="6.639527">
        <ele>-3.282688</ele>
        <time>2026-09-01T15:40:23.960Z</time>
      </trkpt>
      <trkpt lat="53.241310" lon="6.639330">
        <ele>-3.298512</ele>
        <time>2026-09-01T15:40:26.957Z</time>
      </trkpt>
      <trkpt lat="53.241275" lon="6.639184">
        <ele>-3.310677</ele>
        <time>2026-09-01T15:40:28.966Z</time>
      </trkpt>
      <trkpt lat="53.241237" lon="6.639001">
        <ele>-3.325660</ele>
        <time>2026-09-01T15:40:31.960Z</time>
      </trkpt>
      <trkpt lat="53.241203" lon="6.638793">
        <ele>-3.342339</ele>
        <time>2026-09-01T15:40:34.959Z</time>
      </trkpt>
      <trkpt lat="53.241158" lon="6.638599">
        <ele>-3.358432</ele>
        <time>2026-09-01T15:40:37.959Z</time>
      </trkpt>
      <trkpt lat="53.241129" lon="6.638417">
        <ele>-3.373001</ele>
        <time>2026-09-01T15:40:40.959Z</time>
      </trkpt>
      <trkpt lat="53.241099" lon="6.638234">
        <ele>-3.387677</ele>
        <time>2026-09-01T15:40:43.959Z</time>
      </trkpt>
      <trkpt lat="53.241068" lon="6.638044">
        <ele>-3.402911</ele>
        <time>2026-09-01T15:40:46.957Z</time>
      </trkpt>
      <trkpt lat="53.241029" lon="6.637888">
        <ele>-3.415988</ele>
        <time>2026-09-01T15:40:48.960Z</time>
      </trkpt>
      <trkpt lat="53.240996" lon="6.637746">
        <ele>-3.427771</ele>
        <time>2026-09-01T15:40:50.959Z</time>
      </trkpt>
      <trkpt lat="53.240957" lon="6.637564">
        <ele>-3.442724</ele>
        <time>2026-09-01T15:40:53.961Z</time>
      </trkpt>
      <trkpt lat="53.240907" lon="6.637382">
        <ele>-3.458214</ele>
        <time>2026-09-01T15:40:56.957Z</time>
      </trkpt>
      <trkpt lat="53.240877" lon="6.637206">
        <ele>-3.472370</ele>
        <time>2026-09-01T15:40:59.960Z</time>
      </trkpt>
      <trkpt lat="53.240841" lon="6.637065">
        <ele>-3.484227</ele>
        <time>2026-09-01T15:41:01.959Z</time>
      </trkpt>
      <trkpt lat="53.240819" lon="6.636877">
        <ele>-3.549968</ele>
        <time>2026-09-01T15:41:04.960Z</time>
      </trkpt>
      <trkpt lat="53.240789" lon="6.636668">
        <ele>-3.631046</ele>
        <time>2026-09-01T15:41:07.959Z</time>
      </trkpt>
      <trkpt lat="53.240742" lon="6.636476">
        <ele>-3.709300</ele>
        <time>2026-09-01T15:41:10.960Z</time>
      </trkpt>
      <trkpt lat="53.240710" lon="6.636322">
        <ele>-3.770797</ele>
        <time>2026-09-01T15:41:13.977Z</time>
      </trkpt>
      <trkpt lat="53.240672" lon="6.636141">
        <ele>-3.843157</ele>
        <time>2026-09-01T15:41:16.959Z</time>
      </trkpt>
      <trkpt lat="53.240630" lon="6.635956">
        <ele>-3.917799</ele>
        <time>2026-09-01T15:41:19.959Z</time>
      </trkpt>
      <trkpt lat="53.240587" lon="6.635747">
        <ele>-4.001170</ele>
        <time>2026-09-01T15:41:22.960Z</time>
      </trkpt>
      <trkpt lat="53.240557" lon="6.635567">
        <ele>-4.071657</ele>
        <time>2026-09-01T15:41:25.959Z</time>
      </trkpt>
      <trkpt lat="53.240515" lon="6.635381">
        <ele>-4.146652</ele>
        <time>2026-09-01T15:41:28.962Z</time>
      </trkpt>
      <trkpt lat="53.240413" lon="6.635341">
        <ele>-4.212695</ele>
        <time>2026-09-01T15:41:31.975Z</time>
      </trkpt>
      <trkpt lat="53.240308" lon="6.635409">
        <ele>-4.283679</ele>
        <time>2026-09-01T15:41:34.957Z</time>
      </trkpt>
      <trkpt lat="53.240237" lon="6.635286">
        <ele>-4.348146</ele>
        <time>2026-09-01T15:41:37.959Z</time>
      </trkpt>
      <trkpt lat="53.240203" lon="6.635087">
        <ele>-4.426217</ele>
        <time>2026-09-01T15:41:40.957Z</time>
      </trkpt>
      <trkpt lat="53.240168" lon="6.634886">
        <ele>-4.505187</ele>
        <time>2026-09-01T15:41:43.961Z</time>
      </trkpt>
      <trkpt lat="53.240130" lon="6.634691">
        <ele>-4.582550</ele>
        <time>2026-09-01T15:41:46.960Z</time>
      </trkpt>
      <trkpt lat="53.240094" lon="6.634498">
        <ele>-4.606563</ele>
        <time>2026-09-01T15:41:49.959Z</time>
      </trkpt>
      <trkpt lat="53.240059" lon="6.634308">
        <ele>-4.581407</ele>
        <time>2026-09-01T15:41:52.961Z</time>
      </trkpt>
      <trkpt lat="53.240018" lon="6.634120">
        <ele>-4.556086</ele>
        <time>2026-09-01T15:41:55.959Z</time>
      </trkpt>
      <trkpt lat="53.239999" lon="6.633941">
        <ele>-4.533081</ele>
        <time>2026-09-01T15:41:58.959Z</time>
      </trkpt>
      <trkpt lat="53.240064" lon="6.633815">
        <ele>-4.512030</ele>
        <time>2026-09-01T15:42:01.961Z</time>
      </trkpt>
      <trkpt lat="53.240171" lon="6.633745">
        <ele>-4.487733</ele>
        <time>2026-09-01T15:42:04.959Z</time>
      </trkpt>
      <trkpt lat="53.240232" lon="6.633604">
        <ele>-4.465717</ele>
        <time>2026-09-01T15:42:08.959Z</time>
      </trkpt>
      <trkpt lat="53.240188" lon="6.633461">
        <ele>-4.445369</ele>
        <time>2026-09-01T15:42:11.959Z</time>
      </trkpt>
      <trkpt lat="53.240137" lon="6.633300">
        <ele>-4.422318</ele>
        <time>2026-09-01T15:42:14.959Z</time>
      </trkpt>
      <trkpt lat="53.240095" lon="6.633113">
        <ele>-4.397043</ele>
        <time>2026-09-01T15:42:17.959Z</time>
      </trkpt>
      <trkpt lat="53.240057" lon="6.632920">
        <ele>-4.371332</ele>
        <time>2026-09-01T15:42:20.960Z</time>
      </trkpt>
      <trkpt lat="53.240022" lon="6.632724">
        <ele>-4.345449</ele>
        <time>2026-09-01T15:42:23.961Z</time>
      </trkpt>
      <trkpt lat="53.239984" lon="6.632518">
        <ele>-4.318170</ele>
        <time>2026-09-01T15:42:26.960Z</time>
      </trkpt>
      <trkpt lat="53.239945" lon="6.632323">
        <ele>-4.292153</ele>
        <time>2026-09-01T15:42:29.960Z</time>
      </trkpt>
      <trkpt lat="53.239905" lon="6.632141">
        <ele>-4.267618</ele>
        <time>2026-09-01T15:42:32.959Z</time>
      </trkpt>
      <trkpt lat="53.239861" lon="6.631943">
        <ele>-4.240890</ele>
        <time>2026-09-01T15:42:35.959Z</time>
      </trkpt>
      <trkpt lat="53.239823" lon="6.631762">
        <ele>-4.227698</ele>
        <time>2026-09-01T15:42:38.958Z</time>
      </trkpt>
      <trkpt lat="53.239782" lon="6.631573">
        <ele>-4.214649</ele>
        <time>2026-09-01T15:42:41.957Z</time>
      </trkpt>
      <trkpt lat="53.239746" lon="6.631385">
        <ele>-4.201836</ele>
        <time>2026-09-01T15:42:44.959Z</time>
      </trkpt>
      <trkpt lat="53.239716" lon="6.631208">
        <ele>-4.189895</ele>
        <time>2026-09-01T15:42:47.960Z</time>
      </trkpt>
      <trkpt lat="53.239688" lon="6.631051">
        <ele>-4.179261</ele>
        <time>2026-09-01T15:42:50.959Z</time>
      </trkpt>
      <trkpt lat="53.239653" lon="6.630890">
        <ele>-4.168143</ele>
        <time>2026-09-01T15:42:53.959Z</time>
      </trkpt>
      <trkpt lat="53.239620" lon="6.630737">
        <ele>-4.157586</ele>
        <time>2026-09-01T15:42:56.959Z</time>
      </trkpt>
      <trkpt lat="53.239503" lon="6.630745">
        <ele>-4.144885</ele>
        <time>2026-09-01T15:43:00.959Z</time>
      </trkpt>
      <trkpt lat="53.239388" lon="6.630811">
        <ele>-4.131697</ele>
        <time>2026-09-01T15:43:03.960Z</time>
      </trkpt>
      <trkpt lat="53.239278" lon="6.630866">
        <ele>-4.119244</ele>
        <time>2026-09-01T15:43:06.975Z</time>
      </trkpt>
      <trkpt lat="53.239169" lon="6.630926">
        <ele>-4.106796</ele>
        <time>2026-09-01T15:43:09.959Z</time>
      </trkpt>
      <trkpt lat="53.239068" lon="6.630971">
        <ele>-4.095459</ele>
        <time>2026-09-01T15:43:12.960Z</time>
      </trkpt>
      <trkpt lat="53.238968" lon="6.630994">
        <ele>-4.084511</ele>
        <time>2026-09-01T15:43:15.959Z</time>
      </trkpt>
      <trkpt lat="53.238862" lon="6.631037">
        <ele>-4.072680</ele>
        <time>2026-09-01T15:43:18.960Z</time>
      </trkpt>
      <trkpt lat="53.238757" lon="6.631085">
        <ele>-4.060873</ele>
        <time>2026-09-01T15:43:21.959Z</time>
      </trkpt>
      <trkpt lat="53.238648" lon="6.631136">
        <ele>-4.048596</ele>
        <time>2026-09-01T15:43:24.961Z</time>
      </trkpt>
      <trkpt lat="53.238528" lon="6.631176">
        <ele>-4.114144</ele>
        <time>2026-09-01T15:43:27.959Z</time>
      </trkpt>
      <trkpt lat="53.238408" lon="6.631230">
        <ele>-4.219228</ele>
        <time>2026-09-01T15:43:30.960Z</time>
      </trkpt>
      <trkpt lat="53.238289" lon="6.631280">
        <ele>-4.322984</ele>
        <time>2026-09-01T15:43:33.960Z</time>
      </trkpt>
      <trkpt lat="53.238169" lon="6.631352">
        <ele>-4.430796</ele>
        <time>2026-09-01T15:43:36.959Z</time>
      </trkpt>
      <trkpt lat="53.238050" lon="6.631394">
        <ele>-4.533639</ele>
        <time>2026-09-01T15:43:39.963Z</time>
      </trkpt>
      <trkpt lat="53.237932" lon="6.631436">
        <ele>-4.635656</ele>
        <time>2026-09-01T15:43:42.959Z</time>
      </trkpt>
      <trkpt lat="53.237812" lon="6.631487">
        <ele>-4.740355</ele>
        <time>2026-09-01T15:43:45.956Z</time>
      </trkpt>
      <trkpt lat="53.237707" lon="6.631538">
        <ele>-4.832816</ele>
        <time>2026-09-01T15:43:48.966Z</time>
      </trkpt>
      <trkpt lat="53.237610" lon="6.631578">
        <ele>-4.917297</ele>
        <time>2026-09-01T15:43:51.967Z</time>
      </trkpt>
      <trkpt lat="53.237504" lon="6.631618">
        <ele>-5.009185</ele>
        <time>2026-09-01T15:43:54.960Z</time>
      </trkpt>
      <trkpt lat="53.237391" lon="6.631662">
        <ele>-5.107295</ele>
        <time>2026-09-01T15:43:57.959Z</time>
      </trkpt>
      <trkpt lat="53.237269" lon="6.631709">
        <ele>-5.213162</ele>
        <time>2026-09-01T15:44:00.961Z</time>
      </trkpt>
      <trkpt lat="53.237145" lon="6.631748">
        <ele>-5.319854</ele>
        <time>2026-09-01T15:44:03.961Z</time>
      </trkpt>
      <trkpt lat="53.237024" lon="6.631787">
        <ele>-5.424054</ele>
        <time>2026-09-01T15:44:06.962Z</time>
      </trkpt>
      <trkpt lat="53.236919" lon="6.631828">
        <ele>-5.515232</ele>
        <time>2026-09-01T15:44:09.961Z</time>
      </trkpt>
      <trkpt lat="53.236805" lon="6.631870">
        <ele>-5.545307</ele>
        <time>2026-09-01T15:44:12.963Z</time>
      </trkpt>
      <trkpt lat="53.236679" lon="6.631920">
        <ele>-5.500719</ele>
        <time>2026-09-01T15:44:15.959Z</time>
      </trkpt>
      <trkpt lat="53.236559" lon="6.631975">
        <ele>-5.457877</ele>
        <time>2026-09-01T15:44:18.961Z</time>
      </trkpt>
      <trkpt lat="53.236440" lon="6.632028">
        <ele>-5.415476</ele>
        <time>2026-09-01T15:44:21.959Z</time>
      </trkpt>
      <trkpt lat="53.236323" lon="6.632095">
        <ele>-5.372893</ele>
        <time>2026-09-01T15:44:24.960Z</time>
      </trkpt>
      <trkpt lat="53.236202" lon="6.632171">
        <ele>-5.328388</ele>
        <time>2026-09-01T15:44:27.963Z</time>
      </trkpt>
      <trkpt lat="53.236082" lon="6.632220">
        <ele>-5.285856</ele>
        <time>2026-09-01T15:44:30.960Z</time>
      </trkpt>
      <trkpt lat="53.235970" lon="6.632276">
        <ele>-5.245606</ele>
        <time>2026-09-01T15:44:33.961Z</time>
      </trkpt>
      <trkpt lat="53.235861" lon="6.632331">
        <ele>-5.206404</ele>
        <time>2026-09-01T15:44:36.960Z</time>
      </trkpt>
      <trkpt lat="53.235740" lon="6.632405">
        <ele>-5.162041</ele>
        <time>2026-09-01T15:44:39.975Z</time>
      </trkpt>
      <trkpt lat="53.235654" lon="6.632453">
        <ele>-5.130824</ele>
        <time>2026-09-01T15:44:41.959Z</time>
      </trkpt>
      <trkpt lat="53.235539" lon="6.632511">
        <ele>-5.089465</ele>
        <time>2026-09-01T15:44:44.959Z</time>
      </trkpt>
      <trkpt lat="53.235426" lon="6.632575">
        <ele>-5.048386</ele>
        <time>2026-09-01T15:44:47.958Z</time>
      </trkpt>
      <trkpt lat="53.235314" lon="6.632634">
        <ele>-5.007954</ele>
        <time>2026-09-01T15:44:50.960Z</time>
      </trkpt>
      <trkpt lat="53.235197" lon="6.632696">
        <ele>-4.965694</ele>
        <time>2026-09-01T15:44:53.959Z</time>
      </trkpt>
      <trkpt lat="53.235081" lon="6.632771">
        <ele>-4.841963</ele>
        <time>2026-09-01T15:44:56.966Z</time>
      </trkpt>
      <trkpt lat="53.234964" lon="6.632829">
        <ele>-4.652376</ele>
        <time>2026-09-01T15:44:59.966Z</time>
      </trkpt>
      <trkpt lat="53.234847" lon="6.632905">
        <ele>-4.457367</ele>
        <time>2026-09-01T15:45:02.958Z</time>
      </trkpt>
      <trkpt lat="53.234736" lon="6.632999">
        <ele>-4.264047</ele>
        <time>2026-09-01T15:45:05.959Z</time>
      </trkpt>
      <trkpt lat="53.234622" lon="6.633091">
        <ele>-4.067375</ele>
        <time>2026-09-01T15:45:08.966Z</time>
      </trkpt>
      <trkpt lat="53.234508" lon="6.633184">
        <ele>-3.870297</ele>
        <time>2026-09-01T15:45:11.959Z</time>
      </trkpt>
      <trkpt lat="53.234402" lon="6.633268">
        <ele>-3.688046</ele>
        <time>2026-09-01T15:45:14.966Z</time>
      </trkpt>
      <trkpt lat="53.234305" lon="6.633345">
        <ele>-3.521216</ele>
        <time>2026-09-01T15:45:17.966Z</time>
      </trkpt>
      <trkpt lat="53.234212" lon="6.633437">
        <ele>-3.353318</ele>
        <time>2026-09-01T15:45:20.958Z</time>
      </trkpt>
      <trkpt lat="53.234120" lon="6.633525">
        <ele>-3.188634</ele>
        <time>2026-09-01T15:45:23.960Z</time>
      </trkpt>
      <trkpt lat="53.234053" lon="6.633643">
        <ele>-3.037402</ele>
        <time>2026-09-01T15:45:26.959Z</time>
      </trkpt>
      <trkpt lat="53.234034" lon="6.633811">
        <ele>-2.878428</ele>
        <time>2026-09-01T15:45:30.960Z</time>
      </trkpt>
      <trkpt lat="53.233847" lon="6.633906">
        <ele>-2.574797</ele>
        <time>2026-09-01T15:46:08.967Z</time>
      </trkpt>
      <trkpt lat="53.233741" lon="6.633952">
        <ele>-2.404666</ele>
        <time>2026-09-01T15:46:11.966Z</time>
      </trkpt>
      <trkpt lat="53.233640" lon="6.633942">
        <ele>-2.247491</ele>
        <time>2026-09-01T15:46:14.966Z</time>
      </trkpt>
      <trkpt lat="53.233546" lon="6.633994">
        <ele>-2.107199</ele>
        <time>2026-09-01T15:46:17.963Z</time>
      </trkpt>
      <trkpt lat="53.233457" lon="6.634067">
        <ele>-1.989034</ele>
        <time>2026-09-01T15:46:20.958Z</time>
      </trkpt>
      <trkpt lat="53.233379" lon="6.634168">
        <ele>-1.871420</ele>
        <time>2026-09-01T15:46:23.964Z</time>
      </trkpt>
      <trkpt lat="53.233273" lon="6.634223">
        <ele>-1.739135</ele>
        <time>2026-09-01T15:46:26.974Z</time>
      </trkpt>
      <trkpt lat="53.233168" lon="6.634240">
        <ele>-1.613409</ele>
        <time>2026-09-01T15:46:29.966Z</time>
      </trkpt>
      <trkpt lat="53.233078" lon="6.634286">
        <ele>-1.501238</ele>
        <time>2026-09-01T15:46:32.961Z</time>
      </trkpt>
      <trkpt lat="53.232985" lon="6.634339">
        <ele>-1.384129</ele>
        <time>2026-09-01T15:46:35.965Z</time>
      </trkpt>
      <trkpt lat="53.232898" lon="6.634403">
        <ele>-1.270835</ele>
        <time>2026-09-01T15:46:38.961Z</time>
      </trkpt>
      <trkpt lat="53.232801" lon="6.634473">
        <ele>-1.144905</ele>
        <time>2026-09-01T15:46:41.963Z</time>
      </trkpt>
      <trkpt lat="53.232700" lon="6.634543">
        <ele>-1.014585</ele>
        <time>2026-09-01T15:46:44.963Z</time>
      </trkpt>
      <trkpt lat="53.232598" lon="6.634609">
        <ele>-0.884221</ele>
        <time>2026-09-01T15:46:47.974Z</time>
      </trkpt>
      <trkpt lat="53.232505" lon="6.634682">
        <ele>-0.761758</ele>
        <time>2026-09-01T15:46:50.962Z</time>
      </trkpt>
      <trkpt lat="53.232404" lon="6.634735">
        <ele>-0.635586</ele>
        <time>2026-09-01T15:46:53.967Z</time>
      </trkpt>
      <trkpt lat="53.232292" lon="6.634820">
        <ele>-0.488976</ele>
        <time>2026-09-01T15:46:56.963Z</time>
      </trkpt>
      <trkpt lat="53.232190" lon="6.634913">
        <ele>-0.350486</ele>
        <time>2026-09-01T15:46:59.959Z</time>
      </trkpt>
      <trkpt lat="53.232092" lon="6.634982">
        <ele>-0.223739</ele>
        <time>2026-09-01T15:47:03.960Z</time>
      </trkpt>
      <trkpt lat="53.232002" lon="6.635006">
        <ele>-0.115118</ele>
        <time>2026-09-01T15:47:10.959Z</time>
      </trkpt>
      <trkpt lat="53.231969" lon="6.634826">
        <ele>-0.015271</ele>
        <time>2026-09-01T15:47:15.960Z</time>
      </trkpt>
      <trkpt lat="53.231936" lon="6.634670">
        <ele>-0.046074</ele>
        <time>2026-09-01T15:47:19.955Z</time>
      </trkpt>
      <trkpt lat="53.231899" lon="6.634513">
        <ele>-0.077487</ele>
        <time>2026-09-01T15:47:23.961Z</time>
      </trkpt>
      <trkpt lat="53.231874" lon="6.634359">
        <ele>-0.107193</ele>
        <time>2026-09-01T15:47:27.963Z</time>
      </trkpt>
      <trkpt lat="53.231855" lon="6.634209">
        <ele>-0.135738</ele>
        <time>2026-09-01T15:47:32.960Z</time>
      </trkpt>
      <trkpt lat="53.231820" lon="6.634053">
        <ele>-0.166754</ele>
        <time>2026-09-01T15:47:48.966Z</time>
      </trkpt>
      <trkpt lat="53.231773" lon="6.633909">
        <ele>-0.197289</ele>
        <time>2026-09-01T15:47:54.958Z</time>
      </trkpt>
      <trkpt lat="53.231734" lon="6.633772">
        <ele>-0.225533</ele>
        <time>2026-09-01T15:47:59.967Z</time>
      </trkpt>
      <trkpt lat="53.231690" lon="6.633608">
        <ele>-0.258992</ele>
        <time>2026-09-01T15:48:05.959Z</time>
      </trkpt>
      <trkpt lat="53.231649" lon="6.633469">
        <ele>-0.287842</ele>
        <time>2026-09-01T15:48:10.957Z</time>
      </trkpt>
      <trkpt lat="53.231610" lon="6.633332">
        <ele>-0.316085</ele>
        <time>2026-09-01T15:48:15.966Z</time>
      </trkpt>
      <trkpt lat="53.231566" lon="6.633170">
        <ele>-0.349205</ele>
        <time>2026-09-01T15:48:21.966Z</time>
      </trkpt>
      <trkpt lat="53.231521" lon="6.633012">
        <ele>-0.381780</ele>
        <time>2026-09-01T15:48:27.958Z</time>
      </trkpt>
      <trkpt lat="53.231485" lon="6.632871">
        <ele>-0.410319</ele>
        <time>2026-09-01T15:48:32.967Z</time>
      </trkpt>
      <trkpt lat="53.231449" lon="6.632726">
        <ele>-0.439545</ele>
        <time>2026-09-01T15:48:37.955Z</time>
      </trkpt>
      <trkpt lat="53.231412" lon="6.632588">
        <ele>-0.467696</ele>
        <time>2026-09-01T15:48:42.958Z</time>
      </trkpt>
      <trkpt lat="53.231358" lon="6.632460">
        <ele>-0.496851</ele>
        <time>2026-09-01T15:48:48.955Z</time>
      </trkpt>
      <trkpt lat="53.231276" lon="6.632359">
        <ele>-0.528537</ele>
        <time>2026-09-01T15:48:54.959Z</time>
      </trkpt>
      <trkpt lat="53.231207" lon="6.632242">
        <ele>-0.559116</ele>
        <time>2026-09-01T15:49:00.969Z</time>
      </trkpt>
      <trkpt lat="53.231170" lon="6.632091">
        <ele>-0.583736</ele>
        <time>2026-09-01T15:49:06.958Z</time>
      </trkpt>
      <trkpt lat="53.231130" lon="6.631939">
        <ele>-0.606532</ele>
        <time>2026-09-01T15:49:12.964Z</time>
      </trkpt>
      <trkpt lat="53.231092" lon="6.631790">
        <ele>-0.628768</ele>
        <time>2026-09-01T15:49:18.962Z</time>
      </trkpt>
      <trkpt lat="53.231053" lon="6.631636">
        <ele>-0.651726</ele>
        <time>2026-09-01T15:49:24.961Z</time>
      </trkpt>
      <trkpt lat="53.231015" lon="6.631477">
        <ele>-0.675232</ele>
        <time>2026-09-01T15:49:30.962Z</time>
      </trkpt>
      <trkpt lat="53.230978" lon="6.631320">
        <ele>-0.698398</ele>
        <time>2026-09-01T15:49:36.959Z</time>
      </trkpt>
      <trkpt lat="53.230945" lon="6.631171">
        <ele>-0.720210</ele>
        <time>2026-09-01T15:49:42.974Z</time>
      </trkpt>
      <trkpt lat="53.230904" lon="6.631028">
        <ele>-0.741979</ele>
        <time>2026-09-01T15:49:48.970Z</time>
      </trkpt>
      <trkpt lat="53.230858" lon="6.630886">
        <ele>-0.764147</ele>
        <time>2026-09-01T15:49:54.974Z</time>
      </trkpt>
      <trkpt lat="53.230819" lon="6.630737">
        <ele>-0.786475</ele>
        <time>2026-09-01T15:50:00.963Z</time>
      </trkpt>
      <trkpt lat="53.230775" lon="6.630581">
        <ele>-0.810151</ele>
        <time>2026-09-01T15:50:07.958Z</time>
      </trkpt>
      <trkpt lat="53.230733" lon="6.630442">
        <ele>-0.831529</ele>
        <time>2026-09-01T15:50:13.962Z</time>
      </trkpt>
      <trkpt lat="53.230691" lon="6.630292">
        <ele>-0.854265</ele>
        <time>2026-09-01T15:50:19.962Z</time>
      </trkpt>
      <trkpt lat="53.230646" lon="6.630144">
        <ele>-0.877056</ele>
        <time>2026-09-01T15:50:25.961Z</time>
      </trkpt>
      <trkpt lat="53.230604" lon="6.629981">
        <ele>-0.901421</ele>
        <time>2026-09-01T15:50:31.974Z</time>
      </trkpt>
      <trkpt lat="53.230564" lon="6.629838">
        <ele>-0.923092</ele>
        <time>2026-09-01T15:50:37.961Z</time>
      </trkpt>
      <trkpt lat="53.230530" lon="6.629690">
        <ele>-0.944857</ele>
        <time>2026-09-01T15:50:42.963Z</time>
      </trkpt>
      <trkpt lat="53.230496" lon="6.629521">
        <ele>-0.969336</ele>
        <time>2026-09-01T15:50:48.964Z</time>
      </trkpt>
      <trkpt lat="53.230452" lon="6.629357">
        <ele>-0.957665</ele>
        <time>2026-09-01T15:50:54.960Z</time>
      </trkpt>
      <trkpt lat="53.230408" lon="6.629211">
        <ele>-0.921424</ele>
        <time>2026-09-01T15:51:00.961Z</time>
      </trkpt>
      <trkpt lat="53.230369" lon="6.629061">
        <ele>-0.885166</ele>
        <time>2026-09-01T15:51:06.962Z</time>
      </trkpt>
      <trkpt lat="53.230326" lon="6.628900">
        <ele>-0.846079</ele>
        <time>2026-09-01T15:51:12.974Z</time>
      </trkpt>
      <trkpt lat="53.230279" lon="6.628737">
        <ele>-0.805965</ele>
        <time>2026-09-01T15:51:18.966Z</time>
      </trkpt>
      <trkpt lat="53.230240" lon="6.628595">
        <ele>-0.771327</ele>
        <time>2026-09-01T15:51:23.968Z</time>
      </trkpt>
      <trkpt lat="53.230201" lon="6.628429">
        <ele>-0.731789</ele>
        <time>2026-09-01T15:51:29.958Z</time>
      </trkpt>
      <trkpt lat="53.230159" lon="6.628273">
        <ele>-0.693865</ele>
        <time>2026-09-01T15:51:35.967Z</time>
      </trkpt>
      <trkpt lat="53.230116" lon="6.628116">
        <ele>-0.655586</ele>
        <time>2026-09-01T15:51:41.966Z</time>
      </trkpt>
      <trkpt lat="53.230080" lon="6.627976">
        <ele>-0.621803</ele>
        <time>2026-09-01T15:51:46.957Z</time>
      </trkpt>
      <trkpt lat="53.230040" lon="6.627812">
        <ele>-0.582540</ele>
        <time>2026-09-01T15:51:52.959Z</time>
      </trkpt>
      <trkpt lat="53.229997" lon="6.627658">
        <ele>-0.544864</ele>
        <time>2026-09-01T15:51:58.967Z</time>
      </trkpt>
      <trkpt lat="53.229948" lon="6.627502">
        <ele>-0.505805</ele>
        <time>2026-09-01T15:52:04.958Z</time>
      </trkpt>
      <trkpt lat="53.229908" lon="6.627367">
        <ele>-0.472407</ele>
        <time>2026-09-01T15:52:09.958Z</time>
      </trkpt>
      <trkpt lat="53.229864" lon="6.627205">
        <ele>-0.432965</ele>
        <time>2026-09-01T15:52:15.961Z</time>
      </trkpt>
      <trkpt lat="53.229826" lon="6.627043">
        <ele>-0.394389</ele>
        <time>2026-09-01T15:52:21.963Z</time>
      </trkpt>
      <trkpt lat="53.229786" lon="6.626883">
        <ele>-0.355945</ele>
        <time>2026-09-01T15:52:27.961Z</time>
      </trkpt>
      <trkpt lat="53.229748" lon="6.626732">
        <ele>-0.319628</ele>
        <time>2026-09-01T15:52:33.962Z</time>
      </trkpt>
      <trkpt lat="53.229709" lon="6.626574">
        <ele>-0.352835</ele>
        <time>2026-09-01T15:52:39.967Z</time>
      </trkpt>
      <trkpt lat="53.229664" lon="6.626430">
        <ele>-0.396374</ele>
        <time>2026-09-01T15:52:45.962Z</time>
      </trkpt>
      <trkpt lat="53.229621" lon="6.626298">
        <ele>-0.436653</ele>
        <time>2026-09-01T15:52:51.962Z</time>
      </trkpt>
      <trkpt lat="53.229574" lon="6.626147">
        <ele>-0.482270</ele>
        <time>2026-09-01T15:52:57.968Z</time>
      </trkpt>
      <trkpt lat="53.229535" lon="6.625997">
        <ele>-0.526103</ele>
        <time>2026-09-01T15:53:03.956Z</time>
      </trkpt>
      <trkpt lat="53.229501" lon="6.625845">
        <ele>-0.569595</ele>
        <time>2026-09-01T15:53:09.967Z</time>
      </trkpt>
      <trkpt lat="53.229462" lon="6.625694">
        <ele>-0.613674</ele>
        <time>2026-09-01T15:53:15.968Z</time>
      </trkpt>
      <trkpt lat="53.229424" lon="6.625557">
        <ele>-0.654145</ele>
        <time>2026-09-01T15:53:20.967Z</time>
      </trkpt>
      <trkpt lat="53.229356" lon="6.625283">
        <ele>-0.733646</ele>
        <time>2026-09-01T15:54:03.966Z</time>
      </trkpt>
      <trkpt lat="53.229318" lon="6.625143">
        <ele>-0.774848</ele>
        <time>2026-09-01T15:54:08.963Z</time>
      </trkpt>
      <trkpt lat="53.229269" lon="6.624986">
        <ele>-0.822305</ele>
        <time>2026-09-01T15:54:14.964Z</time>
      </trkpt>
      <trkpt lat="53.229225" lon="6.624837">
        <ele>-0.866837</ele>
        <time>2026-09-01T15:54:20.978Z</time>
      </trkpt>
      <trkpt lat="53.229186" lon="6.624695">
        <ele>-0.908712</ele>
        <time>2026-09-01T15:54:26.963Z</time>
      </trkpt>
      <trkpt lat="53.229147" lon="6.624550">
        <ele>-0.951319</ele>
        <time>2026-09-01T15:54:32.965Z</time>
      </trkpt>
      <trkpt lat="53.229103" lon="6.624404">
        <ele>-0.995131</ele>
        <time>2026-09-01T15:54:38.967Z</time>
      </trkpt>
      <trkpt lat="53.229065" lon="6.624259">
        <ele>-1.037557</ele>
        <time>2026-09-01T15:54:44.961Z</time>
      </trkpt>
      <trkpt lat="53.229025" lon="6.624122">
        <ele>-1.078413</ele>
        <time>2026-09-01T15:54:50.961Z</time>
      </trkpt>
      <trkpt lat="53.228986" lon="6.623970">
        <ele>-1.118608</ele>
        <time>2026-09-01T15:54:56.962Z</time>
      </trkpt>
      <trkpt lat="53.228949" lon="6.623826">
        <ele>-1.110570</ele>
        <time>2026-09-01T15:55:02.978Z</time>
      </trkpt>
      <trkpt lat="53.228910" lon="6.623690">
        <ele>-1.102836</ele>
        <time>2026-09-01T15:55:07.963Z</time>
      </trkpt>
      <trkpt lat="53.228870" lon="6.623550">
        <ele>-1.094879</ele>
        <time>2026-09-01T15:55:12.961Z</time>
      </trkpt>
      <trkpt lat="53.228834" lon="6.623387">
        <ele>-1.085968</ele>
        <time>2026-09-01T15:55:18.957Z</time>
      </trkpt>
      <trkpt lat="53.228803" lon="6.623242">
        <ele>-1.078071</ele>
        <time>2026-09-01T15:55:23.958Z</time>
      </trkpt>
      <trkpt lat="53.228766" lon="6.623104">
        <ele>-1.070315</ele>
        <time>2026-09-01T15:55:28.963Z</time>
      </trkpt>
      <trkpt lat="53.228733" lon="6.622964">
        <ele>-1.062598</ele>
        <time>2026-09-01T15:55:33.964Z</time>
      </trkpt>
      <trkpt lat="53.228689" lon="6.622807">
        <ele>-1.053706</ele>
        <time>2026-09-01T15:55:39.955Z</time>
      </trkpt>
      <trkpt lat="53.228648" lon="6.622667">
        <ele>-1.045712</ele>
        <time>2026-09-01T15:55:44.970Z</time>
      </trkpt>
      <trkpt lat="53.228607" lon="6.622523">
        <ele>-1.037533</ele>
        <time>2026-09-01T15:55:49.963Z</time>
      </trkpt>
      <trkpt lat="53.228568" lon="6.622382">
        <ele>-1.029567</ele>
        <time>2026-09-01T15:55:54.964Z</time>
      </trkpt>
      <trkpt lat="53.228527" lon="6.622240">
        <ele>-1.021480</ele>
        <time>2026-09-01T15:55:59.970Z</time>
      </trkpt>
      <trkpt lat="53.228472" lon="6.622046">
        <ele>-1.010470</ele>
        <time>2026-09-01T15:56:28.974Z</time>
      </trkpt>
      <trkpt lat="53.228420" lon="6.621900">
        <ele>-1.001757</ele>
        <time>2026-09-01T15:56:34.962Z</time>
      </trkpt>
      <trkpt lat="53.228375" lon="6.621746">
        <ele>-0.992967</ele>
        <time>2026-09-01T15:56:40.960Z</time>
      </trkpt>
      <trkpt lat="53.228325" lon="6.621602">
        <ele>-0.984429</ele>
        <time>2026-09-01T15:56:46.973Z</time>
      </trkpt>
      <trkpt lat="53.228284" lon="6.621446">
        <ele>-0.975690</ele>
        <time>2026-09-01T15:56:52.965Z</time>
      </trkpt>
      <trkpt lat="53.228245" lon="6.621298">
        <ele>-0.967396</ele>
        <time>2026-09-01T15:56:58.968Z</time>
      </trkpt>
      <trkpt lat="53.228207" lon="6.621140">
        <ele>-0.960007</ele>
        <time>2026-09-01T15:57:04.973Z</time>
      </trkpt>
      <trkpt lat="53.228169" lon="6.620988">
        <ele>-0.953306</ele>
        <time>2026-09-01T15:57:10.958Z</time>
      </trkpt>
      <trkpt lat="53.228128" lon="6.620836">
        <ele>-0.946524</ele>
        <time>2026-09-01T15:57:16.973Z</time>
      </trkpt>
      <trkpt lat="53.228092" lon="6.620694">
        <ele>-0.940251</ele>
        <time>2026-09-01T15:57:21.958Z</time>
      </trkpt>
      <trkpt lat="53.228045" lon="6.620538">
        <ele>-0.933147</ele>
        <time>2026-09-01T15:57:27.974Z</time>
      </trkpt>
      <trkpt lat="53.228006" lon="6.620394">
        <ele>-0.926717</ele>
        <time>2026-09-01T15:57:33.958Z</time>
      </trkpt>
      <trkpt lat="53.227966" lon="6.620233">
        <ele>-0.919626</ele>
        <time>2026-09-01T15:57:39.967Z</time>
      </trkpt>
      <trkpt lat="53.227928" lon="6.620093">
        <ele>-0.913373</ele>
        <time>2026-09-01T15:57:44.961Z</time>
      </trkpt>
      <trkpt lat="53.227886" lon="6.619935">
        <ele>-0.906341</ele>
        <time>2026-09-01T15:57:50.966Z</time>
      </trkpt>
      <trkpt lat="53.227837" lon="6.619775">
        <ele>-0.899030</ele>
        <time>2026-09-01T15:57:56.960Z</time>
      </trkpt>
      <trkpt lat="53.227792" lon="6.619612">
        <ele>-0.891728</ele>
        <time>2026-09-01T15:58:02.960Z</time>
      </trkpt>
      <trkpt lat="53.227750" lon="6.619472">
        <ele>-0.885358</ele>
        <time>2026-09-01T15:58:07.967Z</time>
      </trkpt>
      <trkpt lat="53.227707" lon="6.619335">
        <ele>-0.879065</ele>
        <time>2026-09-01T15:58:12.968Z</time>
      </trkpt>
      <trkpt lat="53.227668" lon="6.619193">
        <ele>-0.872710</ele>
        <time>2026-09-01T15:58:17.956Z</time>
      </trkpt>
      <trkpt lat="53.227627" lon="6.619051">
        <ele>-0.866297</ele>
        <time>2026-09-01T15:58:22.958Z</time>
      </trkpt>
      <trkpt lat="53.227590" lon="6.618907">
        <ele>-0.859922</ele>
        <time>2026-09-01T15:58:27.965Z</time>
      </trkpt>
      <trkpt lat="53.227554" lon="6.618764">
        <ele>-0.853611</ele>
        <time>2026-09-01T15:58:32.958Z</time>
      </trkpt>
      <trkpt lat="53.227511" lon="6.618623">
        <ele>-0.847174</ele>
        <time>2026-09-01T15:58:37.959Z</time>
      </trkpt>
      <trkpt lat="53.227475" lon="6.618484">
        <ele>-0.843683</ele>
        <time>2026-09-01T15:58:42.968Z</time>
      </trkpt>
      <trkpt lat="53.227437" lon="6.618341">
        <ele>-0.846153</ele>
        <time>2026-09-01T15:58:47.968Z</time>
      </trkpt>
      <trkpt lat="53.227399" lon="6.618192">
        <ele>-0.848709</ele>
        <time>2026-09-01T15:58:52.968Z</time>
      </trkpt>
      <trkpt lat="53.227360" lon="6.618047">
        <ele>-0.851218</ele>
        <time>2026-09-01T15:58:57.966Z</time>
      </trkpt>
      <trkpt lat="53.227327" lon="6.617902">
        <ele>-0.853666</ele>
        <time>2026-09-01T15:59:02.965Z</time>
      </trkpt>
      <trkpt lat="53.227291" lon="6.617753">
        <ele>-0.856202</ele>
        <time>2026-09-01T15:59:07.968Z</time>
      </trkpt>
      <trkpt lat="53.227254" lon="6.617609">
        <ele>-0.858675</ele>
        <time>2026-09-01T15:59:12.959Z</time>
      </trkpt>
      <trkpt lat="53.227209" lon="6.617466">
        <ele>-0.861225</ele>
        <time>2026-09-01T15:59:17.967Z</time>
      </trkpt>
      <trkpt lat="53.227168" lon="6.617315">
        <ele>-0.863842</ele>
        <time>2026-09-01T15:59:22.959Z</time>
      </trkpt>
      <trkpt lat="53.227128" lon="6.617167">
        <ele>-0.866405</ele>
        <time>2026-09-01T15:59:27.957Z</time>
      </trkpt>
      <trkpt lat="53.227087" lon="6.617019">
        <ele>-0.868979</ele>
        <time>2026-09-01T15:59:32.957Z</time>
      </trkpt>
      <trkpt lat="53.227050" lon="6.616875">
        <ele>-0.871452</ele>
        <time>2026-09-01T15:59:37.968Z</time>
      </trkpt>
      <trkpt lat="53.227008" lon="6.616733">
        <ele>-0.873952</ele>
        <time>2026-09-01T15:59:42.968Z</time>
      </trkpt>
      <trkpt lat="53.226970" lon="6.616589">
        <ele>-0.876436</ele>
        <time>2026-09-01T15:59:47.957Z</time>
      </trkpt>
      <trkpt lat="53.226930" lon="6.616440">
        <ele>-0.879013</ele>
        <time>2026-09-01T15:59:52.960Z</time>
      </trkpt>
      <trkpt lat="53.226888" lon="6.616278">
        <ele>-0.881800</ele>
        <time>2026-09-01T15:59:57.965Z</time>
      </trkpt>
      <trkpt lat="53.226845" lon="6.616120">
        <ele>-0.884539</ele>
        <time>2026-09-01T16:00:02.961Z</time>
      </trkpt>
      <trkpt lat="53.226809" lon="6.615981">
        <ele>-0.886929</ele>
        <time>2026-09-01T16:00:07.959Z</time>
      </trkpt>
      <trkpt lat="53.226768" lon="6.615822">
        <ele>-0.889662</ele>
        <time>2026-09-01T16:00:12.959Z</time>
      </trkpt>
      <trkpt lat="53.226727" lon="6.615673">
        <ele>-0.954652</ele>
        <time>2026-09-01T16:00:17.959Z</time>
      </trkpt>
      <trkpt lat="53.226688" lon="6.615525">
        <ele>-1.041374</ele>
        <time>2026-09-01T16:00:22.965Z</time>
      </trkpt>
      <trkpt lat="53.226653" lon="6.615369">
        <ele>-1.130719</ele>
        <time>2026-09-01T16:00:27.968Z</time>
      </trkpt>
      <trkpt lat="53.226611" lon="6.615225">
        <ele>-1.216624</ele>
        <time>2026-09-01T16:00:32.958Z</time>
      </trkpt>
      <trkpt lat="53.226565" lon="6.615083">
        <ele>-1.303213</ele>
        <time>2026-09-01T16:00:37.959Z</time>
      </trkpt>
      <trkpt lat="53.226522" lon="6.614929">
        <ele>-1.394345</ele>
        <time>2026-09-01T16:00:42.966Z</time>
      </trkpt>
      <trkpt lat="53.226479" lon="6.614771">
        <ele>-1.487426</ele>
        <time>2026-09-01T16:00:47.958Z</time>
      </trkpt>
      <trkpt lat="53.226438" lon="6.614615">
        <ele>-1.578796</ele>
        <time>2026-09-01T16:00:52.966Z</time>
      </trkpt>
      <trkpt lat="53.226398" lon="6.614463">
        <ele>-1.667842</ele>
        <time>2026-09-01T16:00:57.955Z</time>
      </trkpt>
      <trkpt lat="53.226357" lon="6.614307">
        <ele>-1.759213</ele>
        <time>2026-09-01T16:01:02.960Z</time>
      </trkpt>
      <trkpt lat="53.226315" lon="6.614158">
        <ele>-1.847537</ele>
        <time>2026-09-01T16:01:07.959Z</time>
      </trkpt>
      <trkpt lat="53.226270" lon="6.614006">
        <ele>-1.938478</ele>
        <time>2026-09-01T16:01:12.963Z</time>
      </trkpt>
      <trkpt lat="53.226226" lon="6.613855">
        <ele>-2.028544</ele>
        <time>2026-09-01T16:01:17.959Z</time>
      </trkpt>
      <trkpt lat="53.226186" lon="6.613709">
        <ele>-2.114654</ele>
        <time>2026-09-01T16:01:22.959Z</time>
      </trkpt>
      <trkpt lat="53.226139" lon="6.613570">
        <ele>-2.200270</ele>
        <time>2026-09-01T16:01:27.966Z</time>
      </trkpt>
      <trkpt lat="53.226093" lon="6.613435">
        <ele>-2.283577</ele>
        <time>2026-09-01T16:01:32.958Z</time>
      </trkpt>
      <trkpt lat="53.226037" lon="6.613285">
        <ele>-2.378384</ele>
        <time>2026-09-01T16:01:38.960Z</time>
      </trkpt>
      <trkpt lat="53.225997" lon="6.613147">
        <ele>-2.460612</ele>
        <time>2026-09-01T16:01:43.959Z</time>
      </trkpt>
      <trkpt lat="53.225963" lon="6.613001">
        <ele>-2.463863</ele>
        <time>2026-09-01T16:01:48.959Z</time>
      </trkpt>
      <trkpt lat="53.225923" lon="6.612854">
        <ele>-2.387674</ele>
        <time>2026-09-01T16:01:53.958Z</time>
      </trkpt>
      <trkpt lat="53.225855" lon="6.612626">
        <ele>-2.267483</ele>
        <time>2026-09-01T16:02:54.955Z</time>
      </trkpt>
      <trkpt lat="53.225819" lon="6.612474">
        <ele>-2.190354</ele>
        <time>2026-09-01T16:02:59.965Z</time>
      </trkpt>
      <trkpt lat="53.225774" lon="6.612329">
        <ele>-2.113290</ele>
        <time>2026-09-01T16:03:06.965Z</time>
      </trkpt>
      <trkpt lat="53.225668" lon="6.612027">
        <ele>-1.948108</ele>
        <time>2026-09-01T16:03:44.975Z</time>
      </trkpt>
      <trkpt lat="53.225634" lon="6.611861">
        <ele>-1.865324</ele>
        <time>2026-09-01T16:03:49.959Z</time>
      </trkpt>
      <trkpt lat="53.225596" lon="6.611712">
        <ele>-1.788906</ele>
        <time>2026-09-01T16:03:53.958Z</time>
      </trkpt>
      <trkpt lat="53.225548" lon="6.611544">
        <ele>-1.701071</ele>
        <time>2026-09-01T16:03:58.957Z</time>
      </trkpt>
      <trkpt lat="53.225514" lon="6.611384">
        <ele>-1.620960</ele>
        <time>2026-09-01T16:04:03.959Z</time>
      </trkpt>
      <trkpt lat="53.225449" lon="6.611269">
        <ele>-1.546335</ele>
        <time>2026-09-01T16:04:09.958Z</time>
      </trkpt>
      <trkpt lat="53.225418" lon="6.611105">
        <ele>-1.465186</ele>
        <time>2026-09-01T16:04:16.958Z</time>
      </trkpt>
      <trkpt lat="53.225386" lon="6.610945">
        <ele>-1.385589</ele>
        <time>2026-09-01T16:04:23.958Z</time>
      </trkpt>
      <trkpt lat="53.225347" lon="6.610784">
        <ele>-1.303638</ele>
        <time>2026-09-01T16:04:30.960Z</time>
      </trkpt>
      <trkpt lat="53.225314" lon="6.610641">
        <ele>-1.231325</ele>
        <time>2026-09-01T16:04:36.958Z</time>
      </trkpt>
      <trkpt lat="53.225267" lon="6.610498">
        <ele>-1.154351</ele>
        <time>2026-09-01T16:04:42.960Z</time>
      </trkpt>
      <trkpt lat="53.225230" lon="6.610354">
        <ele>-1.077529</ele>
        <time>2026-09-01T16:04:48.958Z</time>
      </trkpt>
      <trkpt lat="53.225195" lon="6.610215">
        <ele>-0.949922</ele>
        <time>2026-09-01T16:04:54.965Z</time>
      </trkpt>
      <trkpt lat="53.225152" lon="6.610055">
        <ele>-0.801507</ele>
        <time>2026-09-01T16:05:00.957Z</time>
      </trkpt>
      <trkpt lat="53.225109" lon="6.609901">
        <ele>-0.657709</ele>
        <time>2026-09-01T16:05:06.966Z</time>
      </trkpt>
      <trkpt lat="53.225069" lon="6.609736">
        <ele>-0.507067</ele>
        <time>2026-09-01T16:05:12.956Z</time>
      </trkpt>
      <trkpt lat="53.225028" lon="6.609586">
        <ele>-0.367527</ele>
        <time>2026-09-01T16:05:18.965Z</time>
      </trkpt>
      <trkpt lat="53.224984" lon="6.609429">
        <ele>-0.220830</ele>
        <time>2026-09-01T16:05:24.959Z</time>
      </trkpt>
      <trkpt lat="53.224944" lon="6.609274">
        <ele>-0.077996</ele>
        <time>2026-09-01T16:05:30.965Z</time>
      </trkpt>
      <trkpt lat="53.224903" lon="6.609119">
        <ele>0.065404</ele>
        <time>2026-09-01T16:05:36.958Z</time>
      </trkpt>
      <trkpt lat="53.224859" lon="6.608974">
        <ele>0.202972</ele>
        <time>2026-09-01T16:05:42.969Z</time>
      </trkpt>
      <trkpt lat="53.224823" lon="6.608815">
        <ele>0.346825</ele>
        <time>2026-09-01T16:05:48.960Z</time>
      </trkpt>
      <trkpt lat="53.224774" lon="6.608671">
        <ele>0.486993</ele>
        <time>2026-09-01T16:05:54.965Z</time>
      </trkpt>
      <trkpt lat="53.224732" lon="6.608512">
        <ele>0.634061</ele>
        <time>2026-09-01T16:06:00.966Z</time>
      </trkpt>
      <trkpt lat="53.224696" lon="6.608371">
        <ele>0.763779</ele>
        <time>2026-09-01T16:06:05.966Z</time>
      </trkpt>
      <trkpt lat="53.224659" lon="6.608232">
        <ele>0.892510</ele>
        <time>2026-09-01T16:06:10.966Z</time>
      </trkpt>
      <trkpt lat="53.224617" lon="6.608078">
        <ele>1.035718</ele>
        <time>2026-09-01T16:06:16.958Z</time>
      </trkpt>
      <trkpt lat="53.224573" lon="6.607933">
        <ele>1.173286</ele>
        <time>2026-09-01T16:06:22.966Z</time>
      </trkpt>
      <trkpt lat="53.224530" lon="6.607786">
        <ele>1.311739</ele>
        <time>2026-09-01T16:06:28.965Z</time>
      </trkpt>
      <trkpt lat="53.224484" lon="6.607632">
        <ele>1.457382</ele>
        <time>2026-09-01T16:06:34.965Z</time>
      </trkpt>
      <trkpt lat="53.224445" lon="6.607484">
        <ele>1.478808</ele>
        <time>2026-09-01T16:06:40.965Z</time>
      </trkpt>
      <trkpt lat="53.224407" lon="6.607342">
        <ele>1.498600</ele>
        <time>2026-09-01T16:06:45.965Z</time>
      </trkpt>
      <trkpt lat="53.224374" lon="6.607195">
        <ele>1.518578</ele>
        <time>2026-09-01T16:06:50.960Z</time>
      </trkpt>
      <trkpt lat="53.224333" lon="6.607058">
        <ele>1.538068</ele>
        <time>2026-09-01T16:06:55.961Z</time>
      </trkpt>
      <trkpt lat="53.224293" lon="6.606901">
        <ele>1.559780</ele>
        <time>2026-09-01T16:07:01.961Z</time>
      </trkpt>
      <trkpt lat="53.224249" lon="6.606756">
        <ele>1.580466</ele>
        <time>2026-09-01T16:07:07.960Z</time>
      </trkpt>
      <trkpt lat="53.224207" lon="6.606595">
        <ele>1.602814</ele>
        <time>2026-09-01T16:07:14.960Z</time>
      </trkpt>
      <trkpt lat="53.224170" lon="6.606434">
        <ele>1.624759</ele>
        <time>2026-09-01T16:07:20.962Z</time>
      </trkpt>
      <trkpt lat="53.224129" lon="6.606272">
        <ele>1.647140</ele>
        <time>2026-09-01T16:07:26.960Z</time>
      </trkpt>
      <trkpt lat="53.224085" lon="6.606113">
        <ele>1.669430</ele>
        <time>2026-09-01T16:07:32.960Z</time>
      </trkpt>
      <trkpt lat="53.224039" lon="6.605978">
        <ele>1.689197</ele>
        <time>2026-09-01T16:07:37.973Z</time>
      </trkpt>
      <trkpt lat="53.223994" lon="6.605817">
        <ele>1.711807</ele>
        <time>2026-09-01T16:07:43.960Z</time>
      </trkpt>
      <trkpt lat="53.223952" lon="6.605674">
        <ele>1.732076</ele>
        <time>2026-09-01T16:07:48.961Z</time>
      </trkpt>
      <trkpt lat="53.223910" lon="6.605540">
        <ele>1.751323</ele>
        <time>2026-09-01T16:07:53.963Z</time>
      </trkpt>
      <trkpt lat="53.223877" lon="6.605394">
        <ele>1.771182</ele>
        <time>2026-09-01T16:07:58.961Z</time>
      </trkpt>
      <trkpt lat="53.223839" lon="6.605248">
        <ele>1.791440</ele>
        <time>2026-09-01T16:08:03.960Z</time>
      </trkpt>
      <trkpt lat="53.223798" lon="6.605086">
        <ele>1.813821</ele>
        <time>2026-09-01T16:08:09.961Z</time>
      </trkpt>
      <trkpt lat="53.223761" lon="6.604929">
        <ele>1.835292</ele>
        <time>2026-09-01T16:08:15.965Z</time>
      </trkpt>
      <trkpt lat="53.223727" lon="6.604787">
        <ele>1.790714</ele>
        <time>2026-09-01T16:08:20.965Z</time>
      </trkpt>
      <trkpt lat="53.223668" lon="6.604666">
        <ele>1.720182</ele>
        <time>2026-09-01T16:08:29.960Z</time>
      </trkpt>
      <trkpt lat="53.223632" lon="6.604500">
        <ele>1.640383</ele>
        <time>2026-09-01T16:08:38.960Z</time>
      </trkpt>
      <trkpt lat="53.223588" lon="6.604341">
        <ele>1.561214</ele>
        <time>2026-09-01T16:08:42.974Z</time>
      </trkpt>
      <trkpt lat="53.223553" lon="6.604202">
        <ele>1.493059</ele>
        <time>2026-09-01T16:08:47.961Z</time>
      </trkpt>
      <trkpt lat="53.223470" lon="6.603900">
        <ele>1.342867</ele>
        <time>2026-09-01T16:09:44.964Z</time>
      </trkpt>
      <trkpt lat="53.223434" lon="6.603741">
        <ele>1.266035</ele>
        <time>2026-09-01T16:09:50.973Z</time>
      </trkpt>
      <trkpt lat="53.223387" lon="6.603589">
        <ele>1.188713</ele>
        <time>2026-09-01T16:09:56.974Z</time>
      </trkpt>
      <trkpt lat="53.223347" lon="6.603451">
        <ele>1.119414</ele>
        <time>2026-09-01T16:10:01.960Z</time>
      </trkpt>
      <trkpt lat="53.223307" lon="6.603289">
        <ele>1.040211</ele>
        <time>2026-09-01T16:10:07.958Z</time>
      </trkpt>
      <trkpt lat="53.223270" lon="6.603119">
        <ele>0.958455</ele>
        <time>2026-09-01T16:10:13.962Z</time>
      </trkpt>
      <trkpt lat="53.223223" lon="6.602981">
        <ele>0.886696</ele>
        <time>2026-09-01T16:10:18.962Z</time>
      </trkpt>
      <trkpt lat="53.223175" lon="6.602828">
        <ele>0.808624</ele>
        <time>2026-09-01T16:10:24.976Z</time>
      </trkpt>
      <trkpt lat="53.223137" lon="6.602684">
        <ele>0.737497</ele>
        <time>2026-09-01T16:10:30.967Z</time>
      </trkpt>
      <trkpt lat="53.223099" lon="6.602532">
        <ele>0.663047</ele>
        <time>2026-09-01T16:10:35.972Z</time>
      </trkpt>
      <trkpt lat="53.223054" lon="6.602365">
        <ele>0.580274</ele>
        <time>2026-09-01T16:10:40.957Z</time>
      </trkpt>
      <trkpt lat="53.222998" lon="6.602227">
        <ele>0.504923</ele>
        <time>2026-09-01T16:10:45.967Z</time>
      </trkpt>
      <trkpt lat="53.222932" lon="6.602099">
        <ele>0.458879</ele>
        <time>2026-09-01T16:10:50.973Z</time>
      </trkpt>
      <trkpt lat="53.222822" lon="6.602052">
        <ele>0.421046</ele>
        <time>2026-09-01T16:10:54.966Z</time>
      </trkpt>
      <trkpt lat="53.222712" lon="6.602022">
        <ele>0.383909</ele>
        <time>2026-09-01T16:10:58.958Z</time>
      </trkpt>
      <trkpt lat="53.222621" lon="6.602001">
        <ele>0.353299</ele>
        <time>2026-09-01T16:11:02.958Z</time>
      </trkpt>
      <trkpt lat="53.222511" lon="6.601967">
        <ele>0.316025</ele>
        <time>2026-09-01T16:11:06.961Z</time>
      </trkpt>
      <trkpt lat="53.222418" lon="6.601939">
        <ele>0.284538</ele>
        <time>2026-09-01T16:11:09.959Z</time>
      </trkpt>
      <trkpt lat="53.222322" lon="6.601897">
        <ele>0.251471</ele>
        <time>2026-09-01T16:11:12.960Z</time>
      </trkpt>
      <trkpt lat="53.222213" lon="6.601862">
        <ele>0.214487</ele>
        <time>2026-09-01T16:11:16.962Z</time>
      </trkpt>
      <trkpt lat="53.222113" lon="6.601840">
        <ele>0.180879</ele>
        <time>2026-09-01T16:11:20.960Z</time>
      </trkpt>
      <trkpt lat="53.222001" lon="6.601795">
        <ele>0.142496</ele>
        <time>2026-09-01T16:11:24.973Z</time>
      </trkpt>
      <trkpt lat="53.221917" lon="6.601733">
        <ele>0.111896</ele>
        <time>2026-09-01T16:11:27.960Z</time>
      </trkpt>
      <trkpt lat="53.221841" lon="6.601610">
        <ele>0.076635</ele>
        <time>2026-09-01T16:11:31.973Z</time>
      </trkpt>
      <trkpt lat="53.221751" lon="6.601562">
        <ele>0.045155</ele>
        <time>2026-09-01T16:11:37.965Z</time>
      </trkpt>
      <trkpt lat="53.221755" lon="6.601397">
        <ele>0.012211</ele>
        <time>2026-09-01T16:12:02.966Z</time>
      </trkpt>
      <trkpt lat="53.221709" lon="6.601257">
        <ele>-0.019647</ele>
        <time>2026-09-01T16:12:07.964Z</time>
      </trkpt>
      <trkpt lat="53.221668" lon="6.601104">
        <ele>-0.053088</ele>
        <time>2026-09-01T16:12:13.965Z</time>
      </trkpt>
      <trkpt lat="53.221635" lon="6.600943">
        <ele>-0.087036</ele>
        <time>2026-09-01T16:12:18.964Z</time>
      </trkpt>
      <trkpt lat="53.221689" lon="6.600819">
        <ele>-0.116115</ele>
        <time>2026-09-01T16:12:28.965Z</time>
      </trkpt>
      <trkpt lat="53.221792" lon="6.600852">
        <ele>-0.104711</ele>
        <time>2026-09-01T16:12:33.964Z</time>
      </trkpt>
      <trkpt lat="53.221887" lon="6.600872">
        <ele>-0.094299</ele>
        <time>2026-09-01T16:12:37.967Z</time>
      </trkpt>
      <trkpt lat="53.221990" lon="6.600880">
        <ele>-0.083087</ele>
        <time>2026-09-01T16:12:41.959Z</time>
      </trkpt>
      <trkpt lat="53.222094" lon="6.600909">
        <ele>-0.071622</ele>
        <time>2026-09-01T16:12:46.967Z</time>
      </trkpt>
      <trkpt lat="53.222191" lon="6.600942">
        <ele>-0.060858</ele>
        <time>2026-09-01T16:12:51.965Z</time>
      </trkpt>
      <trkpt lat="53.222291" lon="6.600963">
        <ele>-0.049899</ele>
        <time>2026-09-01T16:12:56.966Z</time>
      </trkpt>
      <trkpt lat="53.222183" lon="6.600983">
        <ele>-0.038083</ele>
        <time>2026-09-01T16:13:20.960Z</time>
      </trkpt>
      <trkpt lat="53.222079" lon="6.600956">
        <ele>-0.026639</ele>
        <time>2026-09-01T16:13:25.960Z</time>
      </trkpt>
      <trkpt lat="53.221985" lon="6.600920">
        <ele>-0.016152</ele>
        <time>2026-09-01T16:13:29.965Z</time>
      </trkpt>
      <trkpt lat="53.221896" lon="6.600895">
        <ele>-0.006339</ele>
        <time>2026-09-01T16:13:33.959Z</time>
      </trkpt>
      <trkpt lat="53.221786" lon="6.600873">
        <ele>0.005707</ele>
        <time>2026-09-01T16:13:37.968Z</time>
      </trkpt>
      <trkpt lat="53.221689" lon="6.600841">
        <ele>0.016459</ele>
        <time>2026-09-01T16:13:41.957Z</time>
      </trkpt>
      <trkpt lat="53.221600" lon="6.600797">
        <ele>0.026551</ele>
        <time>2026-09-01T16:13:46.969Z</time>
      </trkpt>
      <trkpt lat="53.221561" lon="6.600644">
        <ele>0.037377</ele>
        <time>2026-09-01T16:13:50.957Z</time>
      </trkpt>
      <trkpt lat="53.221517" lon="6.600511">
        <ele>0.047270</ele>
        <time>2026-09-01T16:13:53.969Z</time>
      </trkpt>
      <trkpt lat="53.221447" lon="6.600401">
        <ele>0.057721</ele>
        <time>2026-09-01T16:13:57.969Z</time>
      </trkpt>
      <trkpt lat="53.221339" lon="6.600504">
        <ele>0.071244</ele>
        <time>2026-09-01T16:14:01.962Z</time>
      </trkpt>
      <trkpt lat="53.221248" lon="6.600668">
        <ele>0.097471</ele>
        <time>2026-09-01T16:14:04.966Z</time>
      </trkpt>
      <trkpt lat="53.221283" lon="6.600884">
        <ele>0.137380</ele>
        <time>2026-09-01T16:14:07.965Z</time>
      </trkpt>
      <trkpt lat="53.221362" lon="6.601051">
        <ele>0.175339</ele>
        <time>2026-09-01T16:14:10.965Z</time>
      </trkpt>
      <trkpt lat="53.221434" lon="6.601212">
        <ele>0.211178</ele>
        <time>2026-09-01T16:14:13.961Z</time>
      </trkpt>
      <trkpt lat="53.221498" lon="6.601362">
        <ele>0.244028</ele>
        <time>2026-09-01T16:14:16.967Z</time>
      </trkpt>
      <trkpt lat="53.221552" lon="6.601504">
        <ele>0.274030</ele>
        <time>2026-09-01T16:14:19.965Z</time>
      </trkpt>
      <trkpt lat="53.221558" lon="6.601654">
        <ele>0.300842</ele>
        <time>2026-09-01T16:14:22.968Z</time>
      </trkpt>
      <trkpt lat="53.221474" lon="6.601733">
        <ele>0.329557</ele>
        <time>2026-09-01T16:14:25.958Z</time>
      </trkpt>
      <trkpt lat="53.221376" lon="6.601795">
        <ele>0.360773</ele>
        <time>2026-09-01T16:14:28.965Z</time>
      </trkpt>
      <trkpt lat="53.221278" lon="6.601870">
        <ele>0.392884</ele>
        <time>2026-09-01T16:14:31.960Z</time>
      </trkpt>
      <trkpt lat="53.221180" lon="6.601907">
        <ele>0.422813</ele>
        <time>2026-09-01T16:14:34.969Z</time>
      </trkpt>
      <trkpt lat="53.221124" lon="6.601762">
        <ele>0.453586</ele>
        <time>2026-09-01T16:14:37.970Z</time>
      </trkpt>
      <trkpt lat="53.221079" lon="6.601573">
        <ele>0.489862</ele>
        <time>2026-09-01T16:14:40.964Z</time>
      </trkpt>
      <trkpt lat="53.221031" lon="6.601379">
        <ele>0.527299</ele>
        <time>2026-09-01T16:14:43.967Z</time>
      </trkpt>
      <trkpt lat="53.220982" lon="6.601206">
        <ele>0.561432</ele>
        <time>2026-09-01T16:14:46.969Z</time>
      </trkpt>
      <trkpt lat="53.220933" lon="6.601057">
        <ele>0.591750</ele>
        <time>2026-09-01T16:14:49.958Z</time>
      </trkpt>
      <trkpt lat="53.220879" lon="6.600924">
        <ele>0.664459</ele>
        <time>2026-09-01T16:14:52.967Z</time>
      </trkpt>
      <trkpt lat="53.220810" lon="6.600769">
        <ele>0.972670</ele>
        <time>2026-09-01T16:14:56.965Z</time>
      </trkpt>
      <trkpt lat="53.220758" lon="6.600640">
        <ele>1.220825</ele>
        <time>2026-09-01T16:14:59.961Z</time>
      </trkpt>
      <trkpt lat="53.220709" lon="6.600493">
        <ele>1.489299</ele>
        <time>2026-09-01T16:15:02.969Z</time>
      </trkpt>
      <trkpt lat="53.220665" lon="6.600341">
        <ele>1.758711</ele>
        <time>2026-09-01T16:15:05.970Z</time>
      </trkpt>
      <trkpt lat="53.220625" lon="6.600192">
        <ele>2.019281</ele>
        <time>2026-09-01T16:15:08.969Z</time>
      </trkpt>
      <trkpt lat="53.220579" lon="6.600048">
        <ele>2.279727</ele>
        <time>2026-09-01T16:15:11.965Z</time>
      </trkpt>
      <trkpt lat="53.220541" lon="6.599898">
        <ele>2.539631</ele>
        <time>2026-09-01T16:15:14.967Z</time>
      </trkpt>
      <trkpt lat="53.220501" lon="6.599742">
        <ele>2.810433</ele>
        <time>2026-09-01T16:15:17.968Z</time>
      </trkpt>
      <trkpt lat="53.220458" lon="6.599580">
        <ele>3.093206</ele>
        <time>2026-09-01T16:15:20.961Z</time>
      </trkpt>
      <trkpt lat="53.220416" lon="6.599438">
        <ele>3.345942</ele>
        <time>2026-09-01T16:15:23.965Z</time>
      </trkpt>
      <trkpt lat="53.220371" lon="6.599281">
        <ele>3.623701</ele>
        <time>2026-09-01T16:15:26.961Z</time>
      </trkpt>
      <trkpt lat="53.220322" lon="6.599112">
        <ele>3.923338</ele>
        <time>2026-09-01T16:15:29.967Z</time>
      </trkpt>
      <trkpt lat="53.220273" lon="6.598960">
        <ele>4.198813</ele>
        <time>2026-09-01T16:15:32.965Z</time>
      </trkpt>
      <trkpt lat="53.220230" lon="6.598804">
        <ele>4.472863</ele>
        <time>2026-09-01T16:15:35.969Z</time>
      </trkpt>
      <trkpt lat="53.220183" lon="6.598652">
        <ele>4.745852</ele>
        <time>2026-09-01T16:15:38.969Z</time>
      </trkpt>
      <trkpt lat="53.220138" lon="6.598496">
        <ele>5.022173</ele>
        <time>2026-09-01T16:15:41.965Z</time>
      </trkpt>
      <trkpt lat="53.220091" lon="6.598339">
        <ele>5.302276</ele>
        <time>2026-09-01T16:15:44.969Z</time>
      </trkpt>
      <trkpt lat="53.220045" lon="6.598179">
        <ele>5.421445</ele>
        <time>2026-09-01T16:15:47.965Z</time>
      </trkpt>
      <trkpt lat="53.220002" lon="6.598018">
        <ele>5.441928</ele>
        <time>2026-09-01T16:15:50.967Z</time>
      </trkpt>
      <trkpt lat="53.219953" lon="6.597870">
        <ele>5.461577</ele>
        <time>2026-09-01T16:15:53.969Z</time>
      </trkpt>
      <trkpt lat="53.219909" lon="6.597716">
        <ele>5.481402</ele>
        <time>2026-09-01T16:15:56.969Z</time>
      </trkpt>
      <trkpt lat="53.219868" lon="6.597561">
        <ele>5.501089</ele>
        <time>2026-09-01T16:15:59.965Z</time>
      </trkpt>
      <trkpt lat="53.219826" lon="6.597405">
        <ele>5.520962</ele>
        <time>2026-09-01T16:16:02.961Z</time>
      </trkpt>
      <trkpt lat="53.219780" lon="6.597240">
        <ele>5.542109</ele>
        <time>2026-09-01T16:16:05.965Z</time>
      </trkpt>
      <trkpt lat="53.219734" lon="6.597066">
        <ele>5.564208</ele>
        <time>2026-09-01T16:16:08.965Z</time>
      </trkpt>
      <trkpt lat="53.219681" lon="6.596890">
        <ele>5.587097</ele>
        <time>2026-09-01T16:16:11.965Z</time>
      </trkpt>
      <trkpt lat="53.219632" lon="6.596722">
        <ele>5.608809</ele>
        <time>2026-09-01T16:16:14.965Z</time>
      </trkpt>
      <trkpt lat="53.219586" lon="6.596552">
        <ele>5.630484</ele>
        <time>2026-09-01T16:16:17.959Z</time>
      </trkpt>
      <trkpt lat="53.219538" lon="6.596386">
        <ele>5.651902</ele>
        <time>2026-09-01T16:16:20.964Z</time>
      </trkpt>
      <trkpt lat="53.219494" lon="6.596224">
        <ele>5.672570</ele>
        <time>2026-09-01T16:16:23.965Z</time>
      </trkpt>
      <trkpt lat="53.219451" lon="6.596069">
        <ele>5.692418</ele>
        <time>2026-09-01T16:16:26.958Z</time>
      </trkpt>
      <trkpt lat="53.219401" lon="6.595905">
        <ele>5.713801</ele>
        <time>2026-09-01T16:16:29.969Z</time>
      </trkpt>
      <trkpt lat="53.219346" lon="6.595723">
        <ele>5.737487</ele>
        <time>2026-09-01T16:16:32.965Z</time>
      </trkpt>
      <trkpt lat="53.219297" lon="6.595548">
        <ele>5.731524</ele>
        <time>2026-09-01T16:16:35.967Z</time>
      </trkpt>
      <trkpt lat="53.219250" lon="6.595374">
        <ele>5.485576</ele>
        <time>2026-09-01T16:16:38.965Z</time>
      </trkpt>
      <trkpt lat="53.219197" lon="6.595197">
        <ele>5.230591</ele>
        <time>2026-09-01T16:16:41.960Z</time>
      </trkpt>
      <trkpt lat="53.219150" lon="6.595021">
        <ele>4.982292</ele>
        <time>2026-09-01T16:16:44.965Z</time>
      </trkpt>
      <trkpt lat="53.219099" lon="6.594847">
        <ele>4.732680</ele>
        <time>2026-09-01T16:16:47.965Z</time>
      </trkpt>
      <trkpt lat="53.219042" lon="6.594657">
        <ele>4.458864</ele>
        <time>2026-09-01T16:16:50.966Z</time>
      </trkpt>
      <trkpt lat="53.218993" lon="6.594469">
        <ele>4.194679</ele>
        <time>2026-09-01T16:16:53.964Z</time>
      </trkpt>
      <trkpt lat="53.218942" lon="6.594286">
        <ele>3.934602</ele>
        <time>2026-09-01T16:16:56.967Z</time>
      </trkpt>
      <trkpt lat="53.218891" lon="6.594113">
        <ele>3.686146</ele>
        <time>2026-09-01T16:16:59.966Z</time>
      </trkpt>
      <trkpt lat="53.218839" lon="6.593941">
        <ele>3.437882</ele>
        <time>2026-09-01T16:17:02.959Z</time>
      </trkpt>
      <trkpt lat="53.218783" lon="6.593755">
        <ele>3.169636</ele>
        <time>2026-09-01T16:17:05.965Z</time>
      </trkpt>
      <trkpt lat="53.218733" lon="6.593572">
        <ele>2.910458</ele>
        <time>2026-09-01T16:17:08.959Z</time>
      </trkpt>
      <trkpt lat="53.218686" lon="6.593401">
        <ele>2.668026</ele>
        <time>2026-09-01T16:17:11.957Z</time>
      </trkpt>
      <trkpt lat="53.218639" lon="6.593229">
        <ele>2.424422</ele>
        <time>2026-09-01T16:17:14.960Z</time>
      </trkpt>
      <trkpt lat="53.218591" lon="6.593070">
        <ele>2.194989</ele>
        <time>2026-09-01T16:17:17.964Z</time>
      </trkpt>
      <trkpt lat="53.218563" lon="6.592888">
        <ele>1.952870</ele>
        <time>2026-09-01T16:17:20.959Z</time>
      </trkpt>
      <trkpt lat="53.218565" lon="6.592686">
        <ele>1.905887</ele>
        <time>2026-09-01T16:17:23.965Z</time>
      </trkpt>
      <trkpt lat="53.218597" lon="6.592506">
        <ele>1.929241</ele>
        <time>2026-09-01T16:17:26.960Z</time>
      </trkpt>
      <trkpt lat="53.218665" lon="6.592357">
        <ele>1.952543</ele>
        <time>2026-09-01T16:17:29.959Z</time>
      </trkpt>
      <trkpt lat="53.218730" lon="6.592221">
        <ele>1.974186</ele>
        <time>2026-09-01T16:17:32.958Z</time>
      </trkpt>
      <trkpt lat="53.218797" lon="6.592076">
        <ele>1.996966</ele>
        <time>2026-09-01T16:17:35.960Z</time>
      </trkpt>
      <trkpt lat="53.218869" lon="6.591930">
        <ele>2.020492</ele>
        <time>2026-09-01T16:17:38.961Z</time>
      </trkpt>
      <trkpt lat="53.218938" lon="6.591794">
        <ele>2.042663</ele>
        <time>2026-09-01T16:17:41.973Z</time>
      </trkpt>
      <trkpt lat="53.218996" lon="6.591667">
        <ele>2.062529</ele>
        <time>2026-09-01T16:17:44.965Z</time>
      </trkpt>
      <trkpt lat="53.219127" lon="6.591420">
        <ele>2.103569</ele>
        <time>2026-09-01T16:18:19.967Z</time>
      </trkpt>
      <trkpt lat="53.219209" lon="6.591291">
        <ele>2.126969</ele>
        <time>2026-09-01T16:18:23.965Z</time>
      </trkpt>
      <trkpt lat="53.219303" lon="6.591177">
        <ele>2.151100</ele>
        <time>2026-09-01T16:18:27.962Z</time>
      </trkpt>
      <trkpt lat="53.219382" lon="6.591096">
        <ele>2.170356</ele>
        <time>2026-09-01T16:18:30.965Z</time>
      </trkpt>
      <trkpt lat="53.219463" lon="6.591024">
        <ele>2.189417</ele>
        <time>2026-09-01T16:18:33.965Z</time>
      </trkpt>
      <trkpt lat="53.219564" lon="6.590934">
        <ele>2.213196</ele>
        <time>2026-09-01T16:18:37.967Z</time>
      </trkpt>
      <trkpt lat="53.219663" lon="6.590862">
        <ele>2.235626</ele>
        <time>2026-09-01T16:18:41.959Z</time>
      </trkpt>
      <trkpt lat="53.219764" lon="6.590796">
        <ele>2.258155</ele>
        <time>2026-09-01T16:18:45.957Z</time>
      </trkpt>
      <trkpt lat="53.219849" lon="6.590737">
        <ele>2.176773</ele>
        <time>2026-09-01T16:18:48.961Z</time>
      </trkpt>
      <trkpt lat="53.219941" lon="6.590686">
        <ele>2.074599</ele>
        <time>2026-09-01T16:18:51.967Z</time>
      </trkpt>
      <trkpt lat="53.220026" lon="6.590623">
        <ele>1.976579</ele>
        <time>2026-09-01T16:18:54.958Z</time>
      </trkpt>
      <trkpt lat="53.220109" lon="6.590566">
        <ele>1.881987</ele>
        <time>2026-09-01T16:18:57.965Z</time>
      </trkpt>
      <trkpt lat="53.220202" lon="6.590513">
        <ele>1.778411</ele>
        <time>2026-09-01T16:19:00.964Z</time>
      </trkpt>
      <trkpt lat="53.220288" lon="6.590445">
        <ele>1.678118</ele>
        <time>2026-09-01T16:19:03.966Z</time>
      </trkpt>
      <trkpt lat="53.220374" lon="6.590371">
        <ele>1.576147</ele>
        <time>2026-09-01T16:19:06.965Z</time>
      </trkpt>
      <trkpt lat="53.220470" lon="6.590290">
        <ele>1.462780</ele>
        <time>2026-09-01T16:19:09.964Z</time>
      </trkpt>
      <trkpt lat="53.220584" lon="6.590205">
        <ele>1.331189</ele>
        <time>2026-09-01T16:19:12.959Z</time>
      </trkpt>
      <trkpt lat="53.220702" lon="6.590114">
        <ele>1.194193</ele>
        <time>2026-09-01T16:19:15.964Z</time>
      </trkpt>
      <trkpt lat="53.220793" lon="6.590127">
        <ele>1.097925</ele>
        <time>2026-09-01T16:19:19.968Z</time>
      </trkpt>
      <trkpt lat="53.220697" lon="6.590233">
        <ele>0.976623</ele>
        <time>2026-09-01T16:19:23.959Z</time>
      </trkpt>
      <trkpt lat="53.220600" lon="6.590328">
        <ele>0.858099</ele>
        <time>2026-09-01T16:19:26.958Z</time>
      </trkpt>
      <trkpt lat="53.220503" lon="6.590429">
        <ele>0.737616</ele>
        <time>2026-09-01T16:19:29.960Z</time>
      </trkpt>
      <trkpt lat="53.220409" lon="6.590426">
        <ele>0.638517</ele>
        <time>2026-09-01T16:19:32.960Z</time>
      </trkpt>
      <trkpt lat="53.220356" lon="6.590209">
        <ele>0.490614</ele>
        <time>2026-09-01T16:19:35.958Z</time>
      </trkpt>
      <trkpt lat="53.220315" lon="6.590065">
        <ele>0.389983</ele>
        <time>2026-09-01T16:19:39.958Z</time>
      </trkpt>
      <trkpt lat="53.220280" lon="6.589922">
        <ele>0.336415</ele>
        <time>2026-09-01T16:19:41.958Z</time>
      </trkpt>
      <trkpt lat="53.220239" lon="6.589755">
        <ele>0.291624</ele>
        <time>2026-09-01T16:19:44.973Z</time>
      </trkpt>
      <trkpt lat="53.220193" lon="6.589579">
        <ele>0.243968</ele>
        <time>2026-09-01T16:19:47.958Z</time>
      </trkpt>
      <trkpt lat="53.220146" lon="6.589413">
        <ele>0.198400</ele>
        <time>2026-09-01T16:19:50.959Z</time>
      </trkpt>
      <trkpt lat="53.220099" lon="6.589269">
        <ele>0.157700</ele>
        <time>2026-09-01T16:19:53.960Z</time>
      </trkpt>
      <trkpt lat="53.220053" lon="6.589119">
        <ele>0.115878</ele>
        <time>2026-09-01T16:19:56.959Z</time>
      </trkpt>
      <trkpt lat="53.220005" lon="6.588972">
        <ele>0.074326</ele>
        <time>2026-09-01T16:19:59.973Z</time>
      </trkpt>
      <trkpt lat="53.219957" lon="6.588816">
        <ele>0.030800</ele>
        <time>2026-09-01T16:20:02.959Z</time>
      </trkpt>
      <trkpt lat="53.219912" lon="6.588676">
        <ele>-0.008632</ele>
        <time>2026-09-01T16:20:05.958Z</time>
      </trkpt>
      <trkpt lat="53.219889" lon="6.588528">
        <ele>-0.046577</ele>
        <time>2026-09-01T16:20:09.973Z</time>
      </trkpt>
      <trkpt lat="53.219943" lon="6.588387">
        <ele>-0.088113</ele>
        <time>2026-09-01T16:20:13.960Z</time>
      </trkpt>
      <trkpt lat="53.220019" lon="6.588290">
        <ele>-0.127757</ele>
        <time>2026-09-01T16:20:17.959Z</time>
      </trkpt>
      <trkpt lat="53.220118" lon="6.588230">
        <ele>-0.171407</ele>
        <time>2026-09-01T16:20:22.973Z</time>
      </trkpt>
      <trkpt lat="53.220221" lon="6.588192">
        <ele>-0.215127</ele>
        <time>2026-09-01T16:20:26.958Z</time>
      </trkpt>
      <trkpt lat="53.220309" lon="6.588164">
        <ele>-0.252256</ele>
        <time>2026-09-01T16:20:30.960Z</time>
      </trkpt>
      <trkpt lat="53.220398" lon="6.588089">
        <ele>-0.293573</ele>
        <time>2026-09-01T16:20:34.958Z</time>
      </trkpt>
      <trkpt lat="53.220469" lon="6.587993">
        <ele>-0.331435</ele>
        <time>2026-09-01T16:20:40.958Z</time>
      </trkpt>
      <trkpt lat="53.220367" lon="6.588073">
        <ele>-0.378140</ele>
        <time>2026-09-01T16:21:00.958Z</time>
      </trkpt>
      <trkpt lat="53.220265" lon="6.588136">
        <ele>-0.272987</ele>
        <time>2026-09-01T16:21:04.959Z</time>
      </trkpt>
      <trkpt lat="53.220157" lon="6.588203">
        <ele>-0.152409</ele>
        <time>2026-09-01T16:21:09.975Z</time>
      </trkpt>
      <trkpt lat="53.220053" lon="6.588273">
        <ele>-0.035057</ele>
        <time>2026-09-01T16:21:13.962Z</time>
      </trkpt>
      <trkpt lat="53.219952" lon="6.588337">
        <ele>0.078002</ele>
        <time>2026-09-01T16:21:17.959Z</time>
      </trkpt>
      <trkpt lat="53.219856" lon="6.588375">
        <ele>0.181258</ele>
        <time>2026-09-01T16:21:22.960Z</time>
      </trkpt>
      <trkpt lat="53.219851" lon="6.588556">
        <ele>0.294802</ele>
        <time>2026-09-01T16:21:27.958Z</time>
      </trkpt>
      <trkpt lat="53.219902" lon="6.588697">
        <ele>0.398030</ele>
        <time>2026-09-01T16:21:30.958Z</time>
      </trkpt>
      <trkpt lat="53.219943" lon="6.588851">
        <ele>0.503643</ele>
        <time>2026-09-01T16:21:33.959Z</time>
      </trkpt>
      <trkpt lat="53.219988" lon="6.588996">
        <ele>0.605987</ele>
        <time>2026-09-01T16:21:36.960Z</time>
      </trkpt>
      <trkpt lat="53.220040" lon="6.589151">
        <ele>0.717324</ele>
        <time>2026-09-01T16:21:40.962Z</time>
      </trkpt>
      <trkpt lat="53.220099" lon="6.589329">
        <ele>0.844818</ele>
        <time>2026-09-01T16:21:44.973Z</time>
      </trkpt>
      <trkpt lat="53.220150" lon="6.589480">
        <ele>0.953457</ele>
        <time>2026-09-01T16:21:47.957Z</time>
      </trkpt>
      <trkpt lat="53.220190" lon="6.589648">
        <ele>1.066751</ele>
        <time>2026-09-01T16:21:50.957Z</time>
      </trkpt>
      <trkpt lat="53.220234" lon="6.589802">
        <ele>1.173678</ele>
        <time>2026-09-01T16:21:53.973Z</time>
      </trkpt>
      <trkpt lat="53.220274" lon="6.589938">
        <ele>1.268629</ele>
        <time>2026-09-01T16:21:56.957Z</time>
      </trkpt>
      <trkpt lat="53.220355" lon="6.590019">
        <ele>1.367437</ele>
        <time>2026-09-01T16:21:59.960Z</time>
      </trkpt>
      <trkpt lat="53.220449" lon="6.589975">
        <ele>1.469607</ele>
        <time>2026-09-01T16:22:02.958Z</time>
      </trkpt>
      <trkpt lat="53.220553" lon="6.589912">
        <ele>1.397204</ele>
        <time>2026-09-01T16:22:05.961Z</time>
      </trkpt>
      <trkpt lat="53.220653" lon="6.589868">
        <ele>1.261616</ele>
        <time>2026-09-01T16:22:08.960Z</time>
      </trkpt>
      <trkpt lat="53.220744" lon="6.589856">
        <ele>1.141932</ele>
        <time>2026-09-01T16:22:11.962Z</time>
      </trkpt>
      <trkpt lat="53.220837" lon="6.589834">
        <ele>1.018779</ele>
        <time>2026-09-01T16:22:14.958Z</time>
      </trkpt>
      <trkpt lat="53.220935" lon="6.589743">
        <ele>0.871764</ele>
        <time>2026-09-01T16:22:17.958Z</time>
      </trkpt>
      <trkpt lat="53.221042" lon="6.589679">
        <ele>0.722747</ele>
        <time>2026-09-01T16:22:20.959Z</time>
      </trkpt>
      <trkpt lat="53.221145" lon="6.589610">
        <ele>0.577242</ele>
        <time>2026-09-01T16:22:23.958Z</time>
      </trkpt>
      <trkpt lat="53.221242" lon="6.589520">
        <ele>0.431755</ele>
        <time>2026-09-01T16:22:26.959Z</time>
      </trkpt>
      <trkpt lat="53.221342" lon="6.589456">
        <ele>0.291345</ele>
        <time>2026-09-01T16:22:29.973Z</time>
      </trkpt>
      <trkpt lat="53.221456" lon="6.589418">
        <ele>0.138928</ele>
        <time>2026-09-01T16:22:32.960Z</time>
      </trkpt>
      <trkpt lat="53.221566" lon="6.589362">
        <ele>-0.011848</ele>
        <time>2026-09-01T16:22:35.965Z</time>
      </trkpt>
      <trkpt lat="53.221668" lon="6.589311">
        <ele>-0.151448</ele>
        <time>2026-09-01T16:22:38.960Z</time>
      </trkpt>
      <trkpt lat="53.221756" lon="6.589251">
        <ele>-0.276072</ele>
        <time>2026-09-01T16:22:41.959Z</time>
      </trkpt>
      <trkpt lat="53.221840" lon="6.589190">
        <ele>-0.396167</ele>
        <time>2026-09-01T16:22:44.961Z</time>
      </trkpt>
      <trkpt lat="53.221929" lon="6.589120">
        <ele>-0.525149</ele>
        <time>2026-09-01T16:22:47.973Z</time>
      </trkpt>
      <trkpt lat="53.221960" lon="6.588945">
        <ele>-0.668411</ele>
        <time>2026-09-01T16:22:51.965Z</time>
      </trkpt>
      <trkpt lat="53.221921" lon="6.588789">
        <ele>-0.801118</ele>
        <time>2026-09-01T16:22:54.964Z</time>
      </trkpt>
      <trkpt lat="53.221875" lon="6.588629">
        <ele>-0.855549</ele>
        <time>2026-09-01T16:22:57.981Z</time>
      </trkpt>
      <trkpt lat="53.221829" lon="6.588487">
        <ele>-0.854242</ele>
        <time>2026-09-01T16:23:00.957Z</time>
      </trkpt>
      <trkpt lat="53.221788" lon="6.588315">
        <ele>-0.852744</ele>
        <time>2026-09-01T16:23:04.961Z</time>
      </trkpt>
      <trkpt lat="53.221728" lon="6.588164">
        <ele>-0.851278</ele>
        <time>2026-09-01T16:23:08.966Z</time>
      </trkpt>
      <trkpt lat="53.221677" lon="6.588002">
        <ele>-0.849797</ele>
        <time>2026-09-01T16:23:12.965Z</time>
      </trkpt>
      <trkpt lat="53.221628" lon="6.587855">
        <ele>-0.848435</ele>
        <time>2026-09-01T16:23:16.965Z</time>
      </trkpt>
      <trkpt lat="53.221637" lon="6.587690">
        <ele>-0.847095</ele>
        <time>2026-09-01T16:23:21.965Z</time>
      </trkpt>
      <trkpt lat="53.221727" lon="6.587607">
        <ele>-0.845705</ele>
        <time>2026-09-01T16:23:26.965Z</time>
      </trkpt>
      <trkpt lat="53.221824" lon="6.587600">
        <ele>-0.844393</ele>
        <time>2026-09-01T16:23:30.965Z</time>
      </trkpt>
      <trkpt lat="53.221889" lon="6.587717">
        <ele>-0.843101</ele>
        <time>2026-09-01T16:23:33.965Z</time>
      </trkpt>
      <trkpt lat="53.221998" lon="6.587753">
        <ele>-0.841600</ele>
        <time>2026-09-01T16:23:37.962Z</time>
      </trkpt>
      <trkpt lat="53.222088" lon="6.587665">
        <ele>-0.840190</ele>
        <time>2026-09-01T16:23:42.965Z</time>
      </trkpt>
      <trkpt lat="53.222165" lon="6.587578">
        <ele>-0.838934</ele>
        <time>2026-09-01T16:23:47.965Z</time>
      </trkpt>
      <trkpt lat="53.222064" lon="6.587643">
        <ele>-0.837471</ele>
        <time>2026-09-01T16:24:01.965Z</time>
      </trkpt>
      <trkpt lat="53.221971" lon="6.587747">
        <ele>-0.835958</ele>
        <time>2026-09-01T16:24:06.965Z</time>
      </trkpt>
      <trkpt lat="53.221894" lon="6.587658">
        <ele>-0.834693</ele>
        <time>2026-09-01T16:24:10.957Z</time>
      </trkpt>
      <trkpt lat="53.221851" lon="6.587510">
        <ele>-0.833361</ele>
        <time>2026-09-01T16:24:13.959Z</time>
      </trkpt>
      <trkpt lat="53.221807" lon="6.587377">
        <ele>-0.832132</ele>
        <time>2026-09-01T16:24:16.966Z</time>
      </trkpt>
      <trkpt lat="53.221854" lon="6.587241">
        <ele>-0.772195</ele>
        <time>2026-09-01T16:24:23.966Z</time>
      </trkpt>
      <trkpt lat="53.221942" lon="6.587155">
        <ele>-0.705860</ele>
        <time>2026-09-01T16:24:27.964Z</time>
      </trkpt>
      <trkpt lat="53.221970" lon="6.586993">
        <ele>-0.640177</ele>
        <time>2026-09-01T16:24:33.965Z</time>
      </trkpt>
      <trkpt lat="53.221915" lon="6.586840">
        <ele>-0.570660</ele>
        <time>2026-09-01T16:24:37.966Z</time>
      </trkpt>
      <trkpt lat="53.221858" lon="6.586672">
        <ele>-0.495439</ele>
        <time>2026-09-01T16:24:41.965Z</time>
      </trkpt>
      <trkpt lat="53.221803" lon="6.586507">
        <ele>-0.421874</ele>
        <time>2026-09-01T16:24:45.960Z</time>
      </trkpt>
      <trkpt lat="53.221776" lon="6.586360">
        <ele>-0.361978</ele>
        <time>2026-09-01T16:24:48.958Z</time>
      </trkpt>
      <trkpt lat="53.221722" lon="6.586206">
        <ele>-0.292457</ele>
        <time>2026-09-01T16:24:52.973Z</time>
      </trkpt>
      <trkpt lat="53.221657" lon="6.586041">
        <ele>-0.215517</ele>
        <time>2026-09-01T16:24:56.960Z</time>
      </trkpt>
      <trkpt lat="53.221617" lon="6.585887">
        <ele>-0.150125</ele>
        <time>2026-09-01T16:25:00.959Z</time>
      </trkpt>
      <trkpt lat="53.221579" lon="6.585710">
        <ele>-0.076877</ele>
        <time>2026-09-01T16:25:05.973Z</time>
      </trkpt>
      <trkpt lat="53.221520" lon="6.585580">
        <ele>-0.013331</ele>
        <time>2026-09-01T16:25:08.961Z</time>
      </trkpt>
      <trkpt lat="53.221482" lon="6.585429">
        <ele>0.050475</ele>
        <time>2026-09-01T16:25:11.957Z</time>
      </trkpt>
      <trkpt lat="53.221438" lon="6.585285">
        <ele>0.113452</ele>
        <time>2026-09-01T16:25:14.973Z</time>
      </trkpt>
      <trkpt lat="53.221384" lon="6.585118">
        <ele>0.187387</ele>
        <time>2026-09-01T16:25:18.960Z</time>
      </trkpt>
      <trkpt lat="53.221334" lon="6.584981">
        <ele>0.249889</ele>
        <time>2026-09-01T16:25:21.958Z</time>
      </trkpt>
      <trkpt lat="53.221285" lon="6.584852">
        <ele>0.309400</ele>
        <time>2026-09-01T16:25:24.959Z</time>
      </trkpt>
      <trkpt lat="53.221227" lon="6.584692">
        <ele>0.303656</ele>
        <time>2026-09-01T16:25:28.959Z</time>
      </trkpt>
      <trkpt lat="53.221257" lon="6.584539">
        <ele>0.254640</ele>
        <time>2026-09-01T16:25:35.965Z</time>
      </trkpt>
      <trkpt lat="53.221371" lon="6.584472">
        <ele>0.193186</ele>
        <time>2026-09-01T16:25:39.975Z</time>
      </trkpt>
      <trkpt lat="53.221457" lon="6.584419">
        <ele>0.146572</ele>
        <time>2026-09-01T16:25:42.960Z</time>
      </trkpt>
      <trkpt lat="53.221542" lon="6.584370">
        <ele>0.100846</ele>
        <time>2026-09-01T16:25:45.961Z</time>
      </trkpt>
      <trkpt lat="53.221601" lon="6.584218">
        <ele>0.045695</ele>
        <time>2026-09-01T16:25:49.960Z</time>
      </trkpt>
      <trkpt lat="53.221568" lon="6.584041">
        <ele>-0.010746</ele>
        <time>2026-09-01T16:25:53.973Z</time>
      </trkpt>
      <trkpt lat="53.221534" lon="6.583900">
        <ele>-0.057025</ele>
        <time>2026-09-01T16:25:56.973Z</time>
      </trkpt>
      <trkpt lat="53.221497" lon="6.583739">
        <ele>-0.109530</ele>
        <time>2026-09-01T16:26:00.958Z</time>
      </trkpt>
      <trkpt lat="53.221513" lon="6.583588">
        <ele>-0.156217</ele>
        <time>2026-09-01T16:26:06.960Z</time>
      </trkpt>
      <trkpt lat="53.221631" lon="6.583631">
        <ele>-0.217633</ele>
        <time>2026-09-01T16:26:11.958Z</time>
      </trkpt>
      <trkpt lat="53.221726" lon="6.583704">
        <ele>-0.270809</ele>
        <time>2026-09-01T16:26:14.960Z</time>
      </trkpt>
      <trkpt lat="53.221818" lon="6.583764">
        <ele>-0.321031</ele>
        <time>2026-09-01T16:26:17.958Z</time>
      </trkpt>
      <trkpt lat="53.221930" lon="6.583826">
        <ele>-0.381031</ele>
        <time>2026-09-01T16:26:21.959Z</time>
      </trkpt>
      <trkpt lat="53.222021" lon="6.583896">
        <ele>-0.431977</ele>
        <time>2026-09-01T16:26:24.973Z</time>
      </trkpt>
      <trkpt lat="53.222108" lon="6.583940">
        <ele>-0.478201</ele>
        <time>2026-09-01T16:26:27.963Z</time>
      </trkpt>
      <trkpt lat="53.222218" lon="6.583975">
        <ele>-0.535143</ele>
        <time>2026-09-01T16:26:31.959Z</time>
      </trkpt>
      <trkpt lat="53.222319" lon="6.583925">
        <ele>-0.530435</ele>
        <time>2026-09-01T16:26:34.962Z</time>
      </trkpt>
      <trkpt lat="53.222413" lon="6.583860">
        <ele>-0.335534</ele>
        <time>2026-09-01T16:26:37.957Z</time>
      </trkpt>
      <trkpt lat="53.222522" lon="6.583779">
        <ele>-0.106984</ele>
        <time>2026-09-01T16:26:41.959Z</time>
      </trkpt>
      <trkpt lat="53.222609" lon="6.583710">
        <ele>0.077519</ele>
        <time>2026-09-01T16:26:44.959Z</time>
      </trkpt>
      <trkpt lat="53.222690" lon="6.583645">
        <ele>0.249674</ele>
        <time>2026-09-01T16:26:47.957Z</time>
      </trkpt>
      <trkpt lat="53.222760" lon="6.583529">
        <ele>0.438578</ele>
        <time>2026-09-01T16:26:50.958Z</time>
      </trkpt>
      <trkpt lat="53.222810" lon="6.583382">
        <ele>0.632490</ele>
        <time>2026-09-01T16:26:53.960Z</time>
      </trkpt>
      <trkpt lat="53.222773" lon="6.583213">
        <ele>0.838879</ele>
        <time>2026-09-01T16:26:57.959Z</time>
      </trkpt>
      <trkpt lat="53.222717" lon="6.583087">
        <ele>1.018864</ele>
        <time>2026-09-01T16:27:01.959Z</time>
      </trkpt>
      <trkpt lat="53.222666" lon="6.582945">
        <ele>1.208790</ele>
        <time>2026-09-01T16:27:06.960Z</time>
      </trkpt>
      <trkpt lat="53.222569" lon="6.582742">
        <ele>1.506687</ele>
        <time>2026-09-01T16:29:53.963Z</time>
      </trkpt>
      <trkpt lat="53.222515" lon="6.582598">
        <ele>1.701573</ele>
        <time>2026-09-01T16:29:57.962Z</time>
      </trkpt>
      <trkpt lat="53.222470" lon="6.582467">
        <ele>1.874800</ele>
        <time>2026-09-01T16:30:00.963Z</time>
      </trkpt>
      <trkpt lat="53.222428" lon="6.582329">
        <ele>2.052358</ele>
        <time>2026-09-01T16:30:03.966Z</time>
      </trkpt>
      <trkpt lat="53.222371" lon="6.582172">
        <ele>2.262954</ele>
        <time>2026-09-01T16:30:07.963Z</time>
      </trkpt>
      <trkpt lat="53.222325" lon="6.582027">
        <ele>2.451169</ele>
        <time>2026-09-01T16:30:10.964Z</time>
      </trkpt>
      <trkpt lat="53.222268" lon="6.581874">
        <ele>2.657856</ele>
        <time>2026-09-01T16:30:13.965Z</time>
      </trkpt>
      <trkpt lat="53.222222" lon="6.581739">
        <ele>2.836018</ele>
        <time>2026-09-01T16:30:16.964Z</time>
      </trkpt>
      <trkpt lat="53.222174" lon="6.581606">
        <ele>2.797273</ele>
        <time>2026-09-01T16:30:19.963Z</time>
      </trkpt>
      <trkpt lat="53.222109" lon="6.581497">
        <ele>2.709652</ele>
        <time>2026-09-01T16:30:22.963Z</time>
      </trkpt>
      <trkpt lat="53.222017" lon="6.581474">
        <ele>2.621159</ele>
        <time>2026-09-01T16:30:25.965Z</time>
      </trkpt>
      <trkpt lat="53.221917" lon="6.581567">
        <ele>2.512278</ele>
        <time>2026-09-01T16:30:29.956Z</time>
      </trkpt>
      <trkpt lat="53.221832" lon="6.581668">
        <ele>2.413044</ele>
        <time>2026-09-01T16:30:33.969Z</time>
      </trkpt>
      <trkpt lat="53.221744" lon="6.581760">
        <ele>2.314284</ele>
        <time>2026-09-01T16:30:36.958Z</time>
      </trkpt>
      <trkpt lat="53.221652" lon="6.581844">
        <ele>2.214542</ele>
        <time>2026-09-01T16:30:39.969Z</time>
      </trkpt>
      <trkpt lat="53.221569" lon="6.581923">
        <ele>2.123664</ele>
        <time>2026-09-01T16:30:42.959Z</time>
      </trkpt>
      <trkpt lat="53.221490" lon="6.582002">
        <ele>2.036072</ele>
        <time>2026-09-01T16:30:45.962Z</time>
      </trkpt>
      <trkpt lat="53.221403" lon="6.582080">
        <ele>1.942141</ele>
        <time>2026-09-01T16:30:48.962Z</time>
      </trkpt>
      <trkpt lat="53.221306" lon="6.582181">
        <ele>1.833403</ele>
        <time>2026-09-01T16:30:51.962Z</time>
      </trkpt>
      <trkpt lat="53.221207" lon="6.582286">
        <ele>1.721842</ele>
        <time>2026-09-01T16:30:55.969Z</time>
      </trkpt>
      <trkpt lat="53.221115" lon="6.582386">
        <ele>1.617422</ele>
        <time>2026-09-01T16:30:59.962Z</time>
      </trkpt>
      <trkpt lat="53.221025" lon="6.582424">
        <ele>1.529113</ele>
        <time>2026-09-01T16:31:05.963Z</time>
      </trkpt>
      <trkpt lat="53.220929" lon="6.582487">
        <ele>1.430993</ele>
        <time>2026-09-01T16:31:09.964Z</time>
      </trkpt>
      <trkpt lat="53.220833" lon="6.582613">
        <ele>1.314845</ele>
        <time>2026-09-01T16:31:13.964Z</time>
      </trkpt>
      <trkpt lat="53.220759" lon="6.582710">
        <ele>1.225358</ele>
        <time>2026-09-01T16:31:16.962Z</time>
      </trkpt>
      <trkpt lat="53.220655" lon="6.582789">
        <ele>1.112848</ele>
        <time>2026-09-01T16:31:20.964Z</time>
      </trkpt>
      <trkpt lat="53.220577" lon="6.582670">
        <ele>1.003095</ele>
        <time>2026-09-01T16:31:24.959Z</time>
      </trkpt>
      <trkpt lat="53.220524" lon="6.582528">
        <ele>0.899010</ele>
        <time>2026-09-01T16:31:27.962Z</time>
      </trkpt>
      <trkpt lat="53.220482" lon="6.582385">
        <ele>0.799934</ele>
        <time>2026-09-01T16:31:30.962Z</time>
      </trkpt>
      <trkpt lat="53.220422" lon="6.582243">
        <ele>0.691826</ele>
        <time>2026-09-01T16:31:34.963Z</time>
      </trkpt>
      <trkpt lat="53.220352" lon="6.582100">
        <ele>0.576931</ele>
        <time>2026-09-01T16:31:38.956Z</time>
      </trkpt>
      <trkpt lat="53.220258" lon="6.582134">
        <ele>0.477011</ele>
        <time>2026-09-01T16:31:42.971Z</time>
      </trkpt>
      <trkpt lat="53.220182" lon="6.582002">
        <ele>0.363099</ele>
        <time>2026-09-01T16:31:46.964Z</time>
      </trkpt>
      <trkpt lat="53.220128" lon="6.581868">
        <ele>0.262626</ele>
        <time>2026-09-01T16:31:49.964Z</time>
      </trkpt>
      <trkpt lat="53.220063" lon="6.581717">
        <ele>0.146943</ele>
        <time>2026-09-01T16:31:52.961Z</time>
      </trkpt>
      <trkpt lat="53.219993" lon="6.581571">
        <ele>0.030597</ele>
        <time>2026-09-01T16:31:55.964Z</time>
      </trkpt>
      <trkpt lat="53.219913" lon="6.581422">
        <ele>-0.093893</ele>
        <time>2026-09-01T16:31:58.965Z</time>
      </trkpt>
      <trkpt lat="53.219830" lon="6.581274">
        <ele>-0.220031</ele>
        <time>2026-09-01T16:32:01.961Z</time>
      </trkpt>
      <trkpt lat="53.219755" lon="6.581110">
        <ele>-0.348398</ele>
        <time>2026-09-01T16:32:04.958Z</time>
      </trkpt>
      <trkpt lat="53.219677" lon="6.580947">
        <ele>-0.478194</ele>
        <time>2026-09-01T16:32:07.969Z</time>
      </trkpt>
      <trkpt lat="53.219599" lon="6.580775">
        <ele>-0.612409</ele>
        <time>2026-09-01T16:32:10.961Z</time>
      </trkpt>
      <trkpt lat="53.219525" lon="6.580624">
        <ele>-0.707429</ele>
        <time>2026-09-01T16:32:13.959Z</time>
      </trkpt>
      <trkpt lat="53.219461" lon="6.580481">
        <ele>-0.693265</ele>
        <time>2026-09-01T16:32:16.970Z</time>
      </trkpt>
      <trkpt lat="53.219390" lon="6.580329">
        <ele>-0.677971</ele>
        <time>2026-09-01T16:32:19.958Z</time>
      </trkpt>
      <trkpt lat="53.219326" lon="6.580188">
        <ele>-0.663934</ele>
        <time>2026-09-01T16:32:22.962Z</time>
      </trkpt>
      <trkpt lat="53.219262" lon="6.580040">
        <ele>-0.649451</ele>
        <time>2026-09-01T16:32:25.969Z</time>
      </trkpt>
      <trkpt lat="53.219194" lon="6.579888">
        <ele>-0.634398</ele>
        <time>2026-09-01T16:32:28.969Z</time>
      </trkpt>
      <trkpt lat="53.219124" lon="6.579726">
        <ele>-0.618548</ele>
        <time>2026-09-01T16:32:31.970Z</time>
      </trkpt>
      <trkpt lat="53.219062" lon="6.579570">
        <ele>-0.603694</ele>
        <time>2026-09-01T16:32:34.959Z</time>
      </trkpt>
      <trkpt lat="53.218998" lon="6.579403">
        <ele>-0.587964</ele>
        <time>2026-09-01T16:32:37.963Z</time>
      </trkpt>
      <trkpt lat="53.218939" lon="6.579229">
        <ele>-0.572100</ele>
        <time>2026-09-01T16:32:40.969Z</time>
      </trkpt>
      <trkpt lat="53.218880" lon="6.579063">
        <ele>-0.556785</ele>
        <time>2026-09-01T16:32:43.956Z</time>
      </trkpt>
      <trkpt lat="53.218823" lon="6.578900">
        <ele>-0.541809</ele>
        <time>2026-09-01T16:32:46.969Z</time>
      </trkpt>
      <trkpt lat="53.218759" lon="6.578727">
        <ele>-0.525676</ele>
        <time>2026-09-01T16:32:49.969Z</time>
      </trkpt>
      <trkpt lat="53.218702" lon="6.578574">
        <ele>-0.511380</ele>
        <time>2026-09-01T16:32:52.965Z</time>
      </trkpt>
      <trkpt lat="53.218646" lon="6.578423">
        <ele>-0.497289</ele>
        <time>2026-09-01T16:32:55.958Z</time>
      </trkpt>
      <trkpt lat="53.218589" lon="6.578268">
        <ele>-0.482858</ele>
        <time>2026-09-01T16:32:58.963Z</time>
      </trkpt>
      <trkpt lat="53.218532" lon="6.578103">
        <ele>-0.419111</ele>
        <time>2026-09-01T16:33:01.965Z</time>
      </trkpt>
      <trkpt lat="53.218473" lon="6.577935">
        <ele>-0.230836</ele>
        <time>2026-09-01T16:33:04.957Z</time>
      </trkpt>
      <trkpt lat="53.218411" lon="6.577774">
        <ele>-0.045792</ele>
        <time>2026-09-01T16:33:07.969Z</time>
      </trkpt>
      <trkpt lat="53.218356" lon="6.577615">
        <ele>0.131715</ele>
        <time>2026-09-01T16:33:10.966Z</time>
      </trkpt>
      <trkpt lat="53.218299" lon="6.577451">
        <ele>0.315023</ele>
        <time>2026-09-01T16:33:13.969Z</time>
      </trkpt>
      <trkpt lat="53.218245" lon="6.577295">
        <ele>0.489211</ele>
        <time>2026-09-01T16:33:16.958Z</time>
      </trkpt>
      <trkpt lat="53.218180" lon="6.577147">
        <ele>0.666640</ele>
        <time>2026-09-01T16:33:19.963Z</time>
      </trkpt>
      <trkpt lat="53.218115" lon="6.576994">
        <ele>0.847988</ele>
        <time>2026-09-01T16:33:22.969Z</time>
      </trkpt>
      <trkpt lat="53.218038" lon="6.576856">
        <ele>1.030333</ele>
        <time>2026-09-01T16:33:25.969Z</time>
      </trkpt>
      <trkpt lat="53.217959" lon="6.576723">
        <ele>1.211432</ele>
        <time>2026-09-01T16:33:28.962Z</time>
      </trkpt>
      <trkpt lat="53.217892" lon="6.576593">
        <ele>1.377243</ele>
        <time>2026-09-01T16:33:31.970Z</time>
      </trkpt>
      <trkpt lat="53.217827" lon="6.576463">
        <ele>1.540965</ele>
        <time>2026-09-01T16:33:34.963Z</time>
      </trkpt>
      <trkpt lat="53.217766" lon="6.576330">
        <ele>1.702918</ele>
        <time>2026-09-01T16:33:37.969Z</time>
      </trkpt>
      <trkpt lat="53.217715" lon="6.576186">
        <ele>1.864650</ele>
        <time>2026-09-01T16:33:41.956Z</time>
      </trkpt>
      <trkpt lat="53.217650" lon="6.576311">
        <ele>2.024692</ele>
        <time>2026-09-01T16:33:50.959Z</time>
      </trkpt>
      <trkpt lat="53.217581" lon="6.576183">
        <ele>2.191186</ele>
        <time>2026-09-01T16:34:03.964Z</time>
      </trkpt>
      <trkpt lat="53.217529" lon="6.576036">
        <ele>2.356236</ele>
        <time>2026-09-01T16:34:07.969Z</time>
      </trkpt>
      <trkpt lat="53.217470" lon="6.575881">
        <ele>2.544764</ele>
        <time>2026-09-01T16:34:11.969Z</time>
      </trkpt>
      <trkpt lat="53.217415" lon="6.575722">
        <ele>2.741365</ele>
        <time>2026-09-01T16:34:15.969Z</time>
      </trkpt>
      <trkpt lat="53.217372" lon="6.575589">
        <ele>2.903196</ele>
        <time>2026-09-01T16:34:19.969Z</time>
      </trkpt>
      <trkpt lat="53.217333" lon="6.575427">
        <ele>3.090138</ele>
        <time>2026-09-01T16:34:23.966Z</time>
      </trkpt>
      <trkpt lat="53.217283" lon="6.575260">
        <ele>3.290047</ele>
        <time>2026-09-01T16:34:27.959Z</time>
      </trkpt>
      <trkpt lat="53.217217" lon="6.575098">
        <ele>3.499837</ele>
        <time>2026-09-01T16:34:31.964Z</time>
      </trkpt>
      <trkpt lat="53.217154" lon="6.574946">
        <ele>3.697763</ele>
        <time>2026-09-01T16:34:35.969Z</time>
      </trkpt>
      <trkpt lat="53.217132" lon="6.574787">
        <ele>3.872487</ele>
        <time>2026-09-01T16:34:39.958Z</time>
      </trkpt>
      <trkpt lat="53.217080" lon="6.574664">
        <ele>4.033696</ele>
        <time>2026-09-01T16:34:43.963Z</time>
      </trkpt>
      <trkpt lat="53.216994" lon="6.574586">
        <ele>4.208685</ele>
        <time>2026-09-01T16:34:50.957Z</time>
      </trkpt>
      <trkpt lat="53.217063" lon="6.574457">
        <ele>4.393884</ele>
        <time>2026-09-01T16:35:00.969Z</time>
      </trkpt>
      <trkpt lat="53.217030" lon="6.574295">
        <ele>4.577096</ele>
        <time>2026-09-01T16:35:04.962Z</time>
      </trkpt>
      <trkpt lat="53.216975" lon="6.574130">
        <ele>4.779286</ele>
        <time>2026-09-01T16:35:08.962Z</time>
      </trkpt>
      <trkpt lat="53.216931" lon="6.573966">
        <ele>4.971698</ele>
        <time>2026-09-01T16:35:12.964Z</time>
      </trkpt>
      <trkpt lat="53.216889" lon="6.573799">
        <ele>5.165633</ele>
        <time>2026-09-01T16:35:16.963Z</time>
      </trkpt>
      <trkpt lat="53.216838" lon="6.573641">
        <ele>5.357815</ele>
        <time>2026-09-01T16:35:20.962Z</time>
      </trkpt>
      <trkpt lat="53.216804" lon="6.573500">
        <ele>5.520563</ele>
        <time>2026-09-01T16:35:24.960Z</time>
      </trkpt>
      <trkpt lat="53.216762" lon="6.573361">
        <ele>5.655699</ele>
        <time>2026-09-01T16:35:28.958Z</time>
      </trkpt>
      <trkpt lat="53.216732" lon="6.573189">
        <ele>5.693919</ele>
        <time>2026-09-01T16:35:32.959Z</time>
      </trkpt>
      <trkpt lat="53.216687" lon="6.573024">
        <ele>5.732600</ele>
        <time>2026-09-01T16:35:36.956Z</time>
      </trkpt>
      <trkpt lat="53.216636" lon="6.572867">
        <ele>5.770706</ele>
        <time>2026-09-01T16:35:40.958Z</time>
      </trkpt>
      <trkpt lat="53.216568" lon="6.572719">
        <ele>5.810505</ele>
        <time>2026-09-01T16:35:45.958Z</time>
      </trkpt>
      <trkpt lat="53.216506" lon="6.572567">
        <ele>5.849742</ele>
        <time>2026-09-01T16:35:49.969Z</time>
      </trkpt>
      <trkpt lat="53.216450" lon="6.572430">
        <ele>5.885130</ele>
        <time>2026-09-01T16:35:53.957Z</time>
      </trkpt>
      <trkpt lat="53.216403" lon="6.572292">
        <ele>5.919001</ele>
        <time>2026-09-01T16:35:57.958Z</time>
      </trkpt>
      <trkpt lat="53.216344" lon="6.572141">
        <ele>5.957468</ele>
        <time>2026-09-01T16:36:01.957Z</time>
      </trkpt>
      <trkpt lat="53.216280" lon="6.571979">
        <ele>5.998874</ele>
        <time>2026-09-01T16:36:05.958Z</time>
      </trkpt>
      <trkpt lat="53.216227" lon="6.571856">
        <ele>6.031203</ele>
        <time>2026-09-01T16:36:08.960Z</time>
      </trkpt>
      <trkpt lat="53.216164" lon="6.571716">
        <ele>6.068565</ele>
        <time>2026-09-01T16:36:12.956Z</time>
      </trkpt>
      <trkpt lat="53.216090" lon="6.571572">
        <ele>6.109049</ele>
        <time>2026-09-01T16:36:16.956Z</time>
      </trkpt>
      <trkpt lat="53.216041" lon="6.571438">
        <ele>6.142547</ele>
        <time>2026-09-01T16:36:20.969Z</time>
      </trkpt>
      <trkpt lat="53.216048" lon="6.571280">
        <ele>6.176347</ele>
        <time>2026-09-01T16:36:26.969Z</time>
      </trkpt>
      <trkpt lat="53.216116" lon="6.571167">
        <ele>6.210526</ele>
        <time>2026-09-01T16:36:30.960Z</time>
      </trkpt>
      <trkpt lat="53.216187" lon="6.571051">
        <ele>6.245915</ele>
        <time>2026-09-01T16:36:34.957Z</time>
      </trkpt>
      <trkpt lat="53.216214" lon="6.570886">
        <ele>6.282407</ele>
        <time>2026-09-01T16:36:39.969Z</time>
      </trkpt>
      <trkpt lat="53.216149" lon="6.570763">
        <ele>6.483395</ele>
        <time>2026-09-01T16:36:43.959Z</time>
      </trkpt>
      <trkpt lat="53.216105" lon="6.570609">
        <ele>6.730153</ele>
        <time>2026-09-01T16:36:47.969Z</time>
      </trkpt>
      <trkpt lat="53.216054" lon="6.570438">
        <ele>7.006419</ele>
        <time>2026-09-01T16:36:51.959Z</time>
      </trkpt>
      <trkpt lat="53.216008" lon="6.570261">
        <ele>7.285455</ele>
        <time>2026-09-01T16:36:55.958Z</time>
      </trkpt>
      <trkpt lat="53.215953" lon="6.570099">
        <ele>7.554766</ele>
        <time>2026-09-01T16:36:59.957Z</time>
      </trkpt>
      <trkpt lat="53.215900" lon="6.569933">
        <ele>7.826819</ele>
        <time>2026-09-01T16:37:03.968Z</time>
      </trkpt>
      <trkpt lat="53.215853" lon="6.569766">
        <ele>8.093671</ele>
        <time>2026-09-01T16:37:07.958Z</time>
      </trkpt>
      <trkpt lat="53.215864" lon="6.569594">
        <ele>8.343823</ele>
        <time>2026-09-01T16:37:12.960Z</time>
      </trkpt>
      <trkpt lat="53.215947" lon="6.569495">
        <ele>8.590152</ele>
        <time>2026-09-01T16:37:16.961Z</time>
      </trkpt>
      <trkpt lat="53.216030" lon="6.569395">
        <ele>8.837324</ele>
        <time>2026-09-01T16:37:19.956Z</time>
      </trkpt>
      <trkpt lat="53.216125" lon="6.569289">
        <ele>9.113253</ele>
        <time>2026-09-01T16:37:23.961Z</time>
      </trkpt>
      <trkpt lat="53.216221" lon="6.569238">
        <ele>9.356548</ele>
        <time>2026-09-01T16:37:27.960Z</time>
      </trkpt>
      <trkpt lat="53.216301" lon="6.569408">
        <ele>9.669226</ele>
        <time>2026-09-01T16:38:55.961Z</time>
      </trkpt>
      <trkpt lat="53.216213" lon="6.569231">
        <ele>10.001921</ele>
        <time>2026-09-01T16:41:29.960Z</time>
      </trkpt>
      <trkpt lat="53.216258" lon="6.569436">
        <ele>10.317671</ele>
        <time>2026-09-01T17:18:50.960Z</time>
      </trkpt>
      <trkpt lat="53.216264" lon="6.569279">
        <ele>10.545177</ele>
        <time>2026-09-01T17:19:09.959Z</time>
      </trkpt>
      <trkpt lat="53.216416" lon="6.569122">
        <ele>10.852828</ele>
        <time>2026-09-01T17:20:19.958Z</time>
      </trkpt>
      <trkpt lat="53.216517" lon="6.569027">
        <ele>11.031963</ele>
        <time>2026-09-01T17:20:24.956Z</time>
      </trkpt>
      <trkpt lat="53.216629" lon="6.568989">
        <ele>11.208580</ele>
        <time>2026-09-01T17:20:28.964Z</time>
      </trkpt>
      <trkpt lat="53.216729" lon="6.568943">
        <ele>11.368872</ele>
        <time>2026-09-01T17:20:32.954Z</time>
      </trkpt>
      <trkpt lat="53.216831" lon="6.568911">
        <ele>11.529256</ele>
        <time>2026-09-01T17:20:37.962Z</time>
      </trkpt>
      <trkpt lat="53.216923" lon="6.568863">
        <ele>11.678207</ele>
        <time>2026-09-01T17:20:42.963Z</time>
      </trkpt>
      <trkpt lat="53.216987" lon="6.568737">
        <ele>11.831098</ele>
        <time>2026-09-01T17:20:48.957Z</time>
      </trkpt>
      <trkpt lat="53.217154" lon="6.568610">
        <ele>12.114672</ele>
        <time>2026-09-01T17:21:09.957Z</time>
      </trkpt>
      <trkpt lat="53.217249" lon="6.568549">
        <ele>12.271959</ele>
        <time>2026-09-01T17:21:14.955Z</time>
      </trkpt>
      <trkpt lat="53.217320" lon="6.568420">
        <ele>12.434093</ele>
        <time>2026-09-01T17:21:20.958Z</time>
      </trkpt>
      <trkpt lat="53.217402" lon="6.568345">
        <ele>12.578573</ele>
        <time>2026-09-01T17:21:25.965Z</time>
      </trkpt>
      <trkpt lat="53.217492" lon="6.568270">
        <ele>12.734009</ele>
        <time>2026-09-01T17:21:30.955Z</time>
      </trkpt>
      <trkpt lat="53.217593" lon="6.568273">
        <ele>12.890116</ele>
        <time>2026-09-01T17:21:35.956Z</time>
      </trkpt>
      <trkpt lat="53.217699" lon="6.568223">
        <ele>13.060333</ele>
        <time>2026-09-01T17:21:41.963Z</time>
      </trkpt>
      <trkpt lat="53.217791" lon="6.568160">
        <ele>13.213994</ele>
        <time>2026-09-01T17:21:45.964Z</time>
      </trkpt>
      <trkpt lat="53.217893" lon="6.568101">
        <ele>13.380808</ele>
        <time>2026-09-01T17:21:49.956Z</time>
      </trkpt>
      <trkpt lat="53.217985" lon="6.568080">
        <ele>13.108138</ele>
        <time>2026-09-01T17:21:52.961Z</time>
      </trkpt>
      <trkpt lat="53.218097" lon="6.568038">
        <ele>12.627614</ele>
        <time>2026-09-01T17:21:56.957Z</time>
      </trkpt>
      <trkpt lat="53.218181" lon="6.567976">
        <ele>12.243166</ele>
        <time>2026-09-01T17:21:59.964Z</time>
      </trkpt>
      <trkpt lat="53.218286" lon="6.567911">
        <ele>11.774395</ele>
        <time>2026-09-01T17:22:03.964Z</time>
      </trkpt>
      <trkpt lat="53.218376" lon="6.567860">
        <ele>11.376544</ele>
        <time>2026-09-01T17:22:10.958Z</time>
      </trkpt>
      <trkpt lat="53.218432" lon="6.567728">
        <ele>10.971051</ele>
        <time>2026-09-01T17:22:20.957Z</time>
      </trkpt>
      <trkpt lat="53.218488" lon="6.567860">
        <ele>10.565557</ele>
        <time>2026-09-01T17:22:38.958Z</time>
      </trkpt>
      <trkpt lat="53.218576" lon="6.567896">
        <ele>10.186285</ele>
        <time>2026-09-01T17:22:42.958Z</time>
      </trkpt>
      <trkpt lat="53.218677" lon="6.567862">
        <ele>9.754979</ele>
        <time>2026-09-01T17:22:46.956Z</time>
      </trkpt>
      <trkpt lat="53.218778" lon="6.567829">
        <ele>9.324161</ele>
        <time>2026-09-01T17:22:50.960Z</time>
      </trkpt>
      <trkpt lat="53.218867" lon="6.567797">
        <ele>8.943057</ele>
        <time>2026-09-01T17:22:54.958Z</time>
      </trkpt>
      <trkpt lat="53.218964" lon="6.567784">
        <ele>8.535694</ele>
        <time>2026-09-01T17:23:00.960Z</time>
      </trkpt>
      <trkpt lat="53.218982" lon="6.567616">
        <ele>8.107913</ele>
        <time>2026-09-01T17:23:06.956Z</time>
      </trkpt>
      <trkpt lat="53.218952" lon="6.567454">
        <ele>7.682883</ele>
        <time>2026-09-01T17:23:10.956Z</time>
      </trkpt>
      <trkpt lat="53.218938" lon="6.567290">
        <ele>7.267660</ele>
        <time>2026-09-01T17:23:14.956Z</time>
      </trkpt>
      <trkpt lat="53.218982" lon="6.567148">
        <ele>6.866901</ele>
        <time>2026-09-01T17:23:19.956Z</time>
      </trkpt>
      <trkpt lat="53.218920" lon="6.567029">
        <ele>6.471516</ele>
        <time>2026-09-01T17:23:29.958Z</time>
      </trkpt>
      <trkpt lat="53.218841" lon="6.566948">
        <ele>6.083461</ele>
        <time>2026-09-01T17:23:33.957Z</time>
      </trkpt>
      <trkpt lat="53.218792" lon="6.566786">
        <ele>5.854159</ele>
        <time>2026-09-01T17:23:38.956Z</time>
      </trkpt>
      <trkpt lat="53.218736" lon="6.566661">
        <ele>5.810242</ele>
        <time>2026-09-01T17:23:44.958Z</time>
      </trkpt>
      <trkpt lat="53.218666" lon="6.566563">
        <ele>5.767328</ele>
        <time>2026-09-01T17:23:49.956Z</time>
      </trkpt>
      <trkpt lat="53.218573" lon="6.566628">
        <ele>5.719962</ele>
        <time>2026-09-01T17:23:54.956Z</time>
      </trkpt>
      <trkpt lat="53.218484" lon="6.566676">
        <ele>5.676022</ele>
        <time>2026-09-01T17:23:58.958Z</time>
      </trkpt>
      <trkpt lat="53.218386" lon="6.566742">
        <ele>5.626377</ele>
        <time>2026-09-01T17:24:03.958Z</time>
      </trkpt>
      <trkpt lat="53.218300" lon="6.566825">
        <ele>5.579711</ele>
        <time>2026-09-01T17:24:07.956Z</time>
      </trkpt>
      <trkpt lat="53.218215" lon="6.566884">
        <ele>5.536464</ele>
        <time>2026-09-01T17:24:11.958Z</time>
      </trkpt>
      <trkpt lat="53.218144" lon="6.566767">
        <ele>5.489602</ele>
        <time>2026-09-01T17:24:16.958Z</time>
      </trkpt>
      <trkpt lat="53.218094" lon="6.566626">
        <ele>5.443503</ele>
        <time>2026-09-01T17:24:20.958Z</time>
      </trkpt>
      <trkpt lat="53.218043" lon="6.566484">
        <ele>5.396921</ele>
        <time>2026-09-01T17:24:24.972Z</time>
      </trkpt>
      <trkpt lat="53.217994" lon="6.566336">
        <ele>5.349345</ele>
        <time>2026-09-01T17:24:28.956Z</time>
      </trkpt>
      <trkpt lat="53.217941" lon="6.566200">
        <ele>5.303697</ele>
        <time>2026-09-01T17:24:32.956Z</time>
      </trkpt>
      <trkpt lat="53.217878" lon="6.566081">
        <ele>5.259011</ele>
        <time>2026-09-01T17:24:36.957Z</time>
      </trkpt>
      <trkpt lat="53.217802" lon="6.565981">
        <ele>5.213554</ele>
        <time>2026-09-01T17:24:40.957Z</time>
      </trkpt>
      <trkpt lat="53.217744" lon="6.565862">
        <ele>5.170389</ele>
        <time>2026-09-01T17:24:43.964Z</time>
      </trkpt>
      <trkpt lat="53.217705" lon="6.565723">
        <ele>5.127206</ele>
        <time>2026-09-01T17:24:46.963Z</time>
      </trkpt>
      <trkpt lat="53.217645" lon="6.565560">
        <ele>5.073379</ele>
        <time>2026-09-01T17:24:50.963Z</time>
      </trkpt>
      <trkpt lat="53.217589" lon="6.565398">
        <ele>4.996875</ele>
        <time>2026-09-01T17:24:54.956Z</time>
      </trkpt>
      <trkpt lat="53.217539" lon="6.565231">
        <ele>4.870056</ele>
        <time>2026-09-01T17:24:58.959Z</time>
      </trkpt>
      <trkpt lat="53.217488" lon="6.565065">
        <ele>4.743331</ele>
        <time>2026-09-01T17:25:02.965Z</time>
      </trkpt>
      <trkpt lat="53.217442" lon="6.564927">
        <ele>4.636053</ele>
        <time>2026-09-01T17:25:05.965Z</time>
      </trkpt>
      <trkpt lat="53.217392" lon="6.564759">
        <ele>4.508626</ele>
        <time>2026-09-01T17:25:09.964Z</time>
      </trkpt>
      <trkpt lat="53.217350" lon="6.564624">
        <ele>4.405293</ele>
        <time>2026-09-01T17:25:12.964Z</time>
      </trkpt>
      <trkpt lat="53.217297" lon="6.564446">
        <ele>4.270269</ele>
        <time>2026-09-01T17:25:16.964Z</time>
      </trkpt>
      <trkpt lat="53.217252" lon="6.564272">
        <ele>4.141532</ele>
        <time>2026-09-01T17:25:20.964Z</time>
      </trkpt>
      <trkpt lat="53.217207" lon="6.564100">
        <ele>4.014040</ele>
        <time>2026-09-01T17:25:24.964Z</time>
      </trkpt>
      <trkpt lat="53.217163" lon="6.563925">
        <ele>3.885123</ele>
        <time>2026-09-01T17:25:28.964Z</time>
      </trkpt>
      <trkpt lat="53.217124" lon="6.563789">
        <ele>3.782701</ele>
        <time>2026-09-01T17:25:31.964Z</time>
      </trkpt>
      <trkpt lat="53.217084" lon="6.563641">
        <ele>3.672410</ele>
        <time>2026-09-01T17:25:34.964Z</time>
      </trkpt>
      <trkpt lat="53.217057" lon="6.563496">
        <ele>3.569270</ele>
        <time>2026-09-01T17:25:37.964Z</time>
      </trkpt>
      <trkpt lat="53.217027" lon="6.563339">
        <ele>3.457333</ele>
        <time>2026-09-01T17:25:40.957Z</time>
      </trkpt>
      <trkpt lat="53.216996" lon="6.563170">
        <ele>3.337279</ele>
        <time>2026-09-01T17:25:43.956Z</time>
      </trkpt>
      <trkpt lat="53.216954" lon="6.562997">
        <ele>3.210482</ele>
        <time>2026-09-01T17:25:46.958Z</time>
      </trkpt>
      <trkpt lat="53.216914" lon="6.562822">
        <ele>3.083251</ele>
        <time>2026-09-01T17:25:49.964Z</time>
      </trkpt>
      <trkpt lat="53.216879" lon="6.562661">
        <ele>3.008593</ele>
        <time>2026-09-01T17:25:52.963Z</time>
      </trkpt>
      <trkpt lat="53.216855" lon="6.562516">
        <ele>3.046256</ele>
        <time>2026-09-01T17:25:55.964Z</time>
      </trkpt>
      <trkpt lat="53.216825" lon="6.562352">
        <ele>3.089188</ele>
        <time>2026-09-01T17:25:58.964Z</time>
      </trkpt>
      <trkpt lat="53.216802" lon="6.562179">
        <ele>3.133555</ele>
        <time>2026-09-01T17:26:01.964Z</time>
      </trkpt>
      <trkpt lat="53.216777" lon="6.562007">
        <ele>3.177867</ele>
        <time>2026-09-01T17:26:04.955Z</time>
      </trkpt>
      <trkpt lat="53.216765" lon="6.561847">
        <ele>3.218237</ele>
        <time>2026-09-01T17:26:07.964Z</time>
      </trkpt>
      <trkpt lat="53.216747" lon="6.561676">
        <ele>3.261704</ele>
        <time>2026-09-01T17:26:10.960Z</time>
      </trkpt>
      <trkpt lat="53.216726" lon="6.561516">
        <ele>3.302713</ele>
        <time>2026-09-01T17:26:13.965Z</time>
      </trkpt>
      <trkpt lat="53.216699" lon="6.561359">
        <ele>3.343608</ele>
        <time>2026-09-01T17:26:16.966Z</time>
      </trkpt>
      <trkpt lat="53.216677" lon="6.561190">
        <ele>3.386907</ele>
        <time>2026-09-01T17:26:19.964Z</time>
      </trkpt>
      <trkpt lat="53.216661" lon="6.561028">
        <ele>3.428013</ele>
        <time>2026-09-01T17:26:22.960Z</time>
      </trkpt>
      <trkpt lat="53.216645" lon="6.560873">
        <ele>3.467390</ele>
        <time>2026-09-01T17:26:25.972Z</time>
      </trkpt>
      <trkpt lat="53.216644" lon="6.560721">
        <ele>3.505447</ele>
        <time>2026-09-01T17:26:28.958Z</time>
      </trkpt>
      <trkpt lat="53.216640" lon="6.560570">
        <ele>3.543288</ele>
        <time>2026-09-01T17:26:31.958Z</time>
      </trkpt>
      <trkpt lat="53.216645" lon="6.560370">
        <ele>3.593404</ele>
        <time>2026-09-01T17:26:35.958Z</time>
      </trkpt>
      <trkpt lat="53.216649" lon="6.560190">
        <ele>3.638499</ele>
        <time>2026-09-01T17:26:39.957Z</time>
      </trkpt>
      <trkpt lat="53.216656" lon="6.560031">
        <ele>3.678413</ele>
        <time>2026-09-01T17:26:44.957Z</time>
      </trkpt>
      <trkpt lat="53.216657" lon="6.559872">
        <ele>3.718223</ele>
        <time>2026-09-01T17:26:51.956Z</time>
      </trkpt>
      <trkpt lat="53.216636" lon="6.559724">
        <ele>3.753346</ele>
        <time>2026-09-01T17:27:00.972Z</time>
      </trkpt>
      <trkpt lat="53.216547" lon="6.559658">
        <ele>3.776647</ele>
        <time>2026-09-01T17:27:05.957Z</time>
      </trkpt>
      <trkpt lat="53.216453" lon="6.559660">
        <ele>3.799141</ele>
        <time>2026-09-01T17:27:10.957Z</time>
      </trkpt>
      <trkpt lat="53.216345" lon="6.559663">
        <ele>3.824987</ele>
        <time>2026-09-01T17:27:15.959Z</time>
      </trkpt>
      <trkpt lat="53.216234" lon="6.559659">
        <ele>3.851553</ele>
        <time>2026-09-01T17:27:20.956Z</time>
      </trkpt>
      <trkpt lat="53.216141" lon="6.559659">
        <ele>3.873806</ele>
        <time>2026-09-01T17:27:24.958Z</time>
      </trkpt>
      <trkpt lat="53.216051" lon="6.559657">
        <ele>3.895343</ele>
        <time>2026-09-01T17:27:28.957Z</time>
      </trkpt>
      <trkpt lat="53.215958" lon="6.559736">
        <ele>3.920310</ele>
        <time>2026-09-01T17:27:33.972Z</time>
      </trkpt>
      <trkpt lat="53.215946" lon="6.559912">
        <ele>3.945690</ele>
        <time>2026-09-01T17:27:38.959Z</time>
      </trkpt>
      <trkpt lat="53.215937" lon="6.560092">
        <ele>3.971571</ele>
        <time>2026-09-01T17:27:42.960Z</time>
      </trkpt>
      <trkpt lat="53.215919" lon="6.560282">
        <ele>3.999133</ele>
        <time>2026-09-01T17:27:46.957Z</time>
      </trkpt>
      <trkpt lat="53.215914" lon="6.560436">
        <ele>4.021230</ele>
        <time>2026-09-01T17:27:49.959Z</time>
      </trkpt>
      <trkpt lat="53.215907" lon="6.560586">
        <ele>4.042788</ele>
        <time>2026-09-01T17:27:52.959Z</time>
      </trkpt>
      <trkpt lat="53.215913" lon="6.560780">
        <ele>4.070621</ele>
        <time>2026-09-01T17:27:56.958Z</time>
      </trkpt>
      <trkpt lat="53.215938" lon="6.560925">
        <ele>4.092241</ele>
        <time>2026-09-01T17:27:59.959Z</time>
      </trkpt>
      <trkpt lat="53.215965" lon="6.561088">
        <ele>4.116473</ele>
        <time>2026-09-01T17:28:02.960Z</time>
      </trkpt>
      <trkpt lat="53.215994" lon="6.561232">
        <ele>4.138241</ele>
        <time>2026-09-01T17:28:05.958Z</time>
      </trkpt>
      <trkpt lat="53.216022" lon="6.561398">
        <ele>4.162951</ele>
        <time>2026-09-01T17:28:09.957Z</time>
      </trkpt>
      <trkpt lat="53.216018" lon="6.561567">
        <ele>4.143616</ele>
        <time>2026-09-01T17:28:14.957Z</time>
      </trkpt>
      <trkpt lat="53.215928" lon="6.561661">
        <ele>4.019753</ele>
        <time>2026-09-01T17:28:18.960Z</time>
      </trkpt>
      <trkpt lat="53.215830" lon="6.561712">
        <ele>3.899979</ele>
        <time>2026-09-01T17:28:21.960Z</time>
      </trkpt>
      <trkpt lat="53.215728" lon="6.561771">
        <ele>3.774025</ele>
        <time>2026-09-01T17:28:24.958Z</time>
      </trkpt>
      <trkpt lat="53.215628" lon="6.561825">
        <ele>3.651392</ele>
        <time>2026-09-01T17:28:27.956Z</time>
      </trkpt>
      <trkpt lat="53.215542" lon="6.561889">
        <ele>3.541531</ele>
        <time>2026-09-01T17:28:30.957Z</time>
      </trkpt>
      <trkpt lat="53.215461" lon="6.561961">
        <ele>3.434462</ele>
        <time>2026-09-01T17:28:33.958Z</time>
      </trkpt>
      <trkpt lat="53.215361" lon="6.562039">
        <ele>3.305678</ele>
        <time>2026-09-01T17:28:37.958Z</time>
      </trkpt>
      <trkpt lat="53.215267" lon="6.562095">
        <ele>3.189225</ele>
        <time>2026-09-01T17:28:41.956Z</time>
      </trkpt>
      <trkpt lat="53.215158" lon="6.562127">
        <ele>3.060088</ele>
        <time>2026-09-01T17:28:45.956Z</time>
      </trkpt>
      <trkpt lat="53.215049" lon="6.562137">
        <ele>2.932711</ele>
        <time>2026-09-01T17:28:49.959Z</time>
      </trkpt>
      <trkpt lat="53.214954" lon="6.562093">
        <ele>2.817677</ele>
        <time>2026-09-01T17:29:03.957Z</time>
      </trkpt>
      <trkpt lat="53.214863" lon="6.562058">
        <ele>2.708714</ele>
        <time>2026-09-01T17:29:09.959Z</time>
      </trkpt>
      <trkpt lat="53.214797" lon="6.562207">
        <ele>2.579217</ele>
        <time>2026-09-01T17:29:14.959Z</time>
      </trkpt>
      <trkpt lat="53.214758" lon="6.562387">
        <ele>2.445467</ele>
        <time>2026-09-01T17:29:18.958Z</time>
      </trkpt>
      <trkpt lat="53.214670" lon="6.562331">
        <ele>2.335582</ele>
        <time>2026-09-01T17:29:25.957Z</time>
      </trkpt>
      <trkpt lat="53.214582" lon="6.562273">
        <ele>2.225192</ele>
        <time>2026-09-01T17:29:28.959Z</time>
      </trkpt>
      <trkpt lat="53.214493" lon="6.562213">
        <ele>2.113200</ele>
        <time>2026-09-01T17:29:31.956Z</time>
      </trkpt>
      <trkpt lat="53.214405" lon="6.562172">
        <ele>2.093998</ele>
        <time>2026-09-01T17:29:34.959Z</time>
      </trkpt>
      <trkpt lat="53.214310" lon="6.562122">
        <ele>2.114228</ele>
        <time>2026-09-01T17:29:38.960Z</time>
      </trkpt>
      <trkpt lat="53.214211" lon="6.562095">
        <ele>2.134602</ele>
        <time>2026-09-01T17:29:43.965Z</time>
      </trkpt>
      <trkpt lat="53.214297" lon="6.562167">
        <ele>2.154141</ele>
        <time>2026-09-01T17:29:54.961Z</time>
      </trkpt>
      <trkpt lat="53.214389" lon="6.562225">
        <ele>2.174114</ele>
        <time>2026-09-01T17:29:58.958Z</time>
      </trkpt>
      <trkpt lat="53.214489" lon="6.562264">
        <ele>2.194970</ele>
        <time>2026-09-01T17:30:02.955Z</time>
      </trkpt>
      <trkpt lat="53.214587" lon="6.562313">
        <ele>2.215747</ele>
        <time>2026-09-01T17:30:06.958Z</time>
      </trkpt>
      <trkpt lat="53.214638" lon="6.562462">
        <ele>2.236621</ele>
        <time>2026-09-01T17:30:13.962Z</time>
      </trkpt>
      <trkpt lat="53.214595" lon="6.562616">
        <ele>2.257287</ele>
        <time>2026-09-01T17:30:17.957Z</time>
      </trkpt>
      <trkpt lat="53.214500" lon="6.562666">
        <ele>2.277517</ele>
        <time>2026-09-01T17:30:21.961Z</time>
      </trkpt>
      <trkpt lat="53.214403" lon="6.562629">
        <ele>2.297725</ele>
        <time>2026-09-01T17:30:24.958Z</time>
      </trkpt>
      <trkpt lat="53.214295" lon="6.562597">
        <ele>2.320003</ele>
        <time>2026-09-01T17:30:27.956Z</time>
      </trkpt>
      <trkpt lat="53.214180" lon="6.562567">
        <ele>2.343643</ele>
        <time>2026-09-01T17:30:30.972Z</time>
      </trkpt>
      <trkpt lat="53.214072" lon="6.562537">
        <ele>2.365880</ele>
        <time>2026-09-01T17:30:33.958Z</time>
      </trkpt>
      <trkpt lat="53.213975" lon="6.562513">
        <ele>2.385796</ele>
        <time>2026-09-01T17:30:36.961Z</time>
      </trkpt>
      <trkpt lat="53.213882" lon="6.562481">
        <ele>2.405081</ele>
        <time>2026-09-01T17:30:39.959Z</time>
      </trkpt>
      <trkpt lat="53.213783" lon="6.562455">
        <ele>2.425435</ele>
        <time>2026-09-01T17:30:42.964Z</time>
      </trkpt>
      <trkpt lat="53.213681" lon="6.562423">
        <ele>2.447880</ele>
        <time>2026-09-01T17:30:45.959Z</time>
      </trkpt>
      <trkpt lat="53.213630" lon="6.562267">
        <ele>2.649014</ele>
        <time>2026-09-01T17:30:48.959Z</time>
      </trkpt>
      <trkpt lat="53.213614" lon="6.562081">
        <ele>2.861664</ele>
        <time>2026-09-01T17:30:51.972Z</time>
      </trkpt>
      <trkpt lat="53.213549" lon="6.561909">
        <ele>3.091828</ele>
        <time>2026-09-01T17:30:55.954Z</time>
      </trkpt>
      <trkpt lat="53.213454" lon="6.561789">
        <ele>3.316933</ele>
        <time>2026-09-01T17:30:58.958Z</time>
      </trkpt>
      <trkpt lat="53.213338" lon="6.561718">
        <ele>3.550409</ele>
        <time>2026-09-01T17:31:01.955Z</time>
      </trkpt>
      <trkpt lat="53.213219" lon="6.561707">
        <ele>3.775637</ele>
        <time>2026-09-01T17:31:04.964Z</time>
      </trkpt>
      <trkpt lat="53.213119" lon="6.561737">
        <ele>3.967641</ele>
        <time>2026-09-01T17:31:07.956Z</time>
      </trkpt>
      <trkpt lat="53.213027" lon="6.561801">
        <ele>4.155983</ele>
        <time>2026-09-01T17:31:10.956Z</time>
      </trkpt>
      <trkpt lat="53.212938" lon="6.561916">
        <ele>4.368645</ele>
        <time>2026-09-01T17:31:13.960Z</time>
      </trkpt>
      <trkpt lat="53.212836" lon="6.561973">
        <ele>4.571910</ele>
        <time>2026-09-01T17:31:16.958Z</time>
      </trkpt>
      <trkpt lat="53.212733" lon="6.561912">
        <ele>4.778436</ele>
        <time>2026-09-01T17:31:19.964Z</time>
      </trkpt>
      <trkpt lat="53.212631" lon="6.561837">
        <ele>4.989053</ele>
        <time>2026-09-01T17:31:22.955Z</time>
      </trkpt>
      <trkpt lat="53.212535" lon="6.561767">
        <ele>5.187014</ele>
        <time>2026-09-01T17:31:25.964Z</time>
      </trkpt>
      <trkpt lat="53.212443" lon="6.561692">
        <ele>5.380485</ele>
        <time>2026-09-01T17:31:29.956Z</time>
      </trkpt>
      <trkpt lat="53.212269" lon="6.561502">
        <ele>5.773370</ele>
        <time>2026-09-01T17:32:09.958Z</time>
      </trkpt>
      <trkpt lat="53.212153" lon="6.561406">
        <ele>5.987821</ele>
        <time>2026-09-01T17:32:12.958Z</time>
      </trkpt>
      <trkpt lat="53.212023" lon="6.561337">
        <ele>6.200498</ele>
        <time>2026-09-01T17:32:15.957Z</time>
      </trkpt>
      <trkpt lat="53.211900" lon="6.561275">
        <ele>6.400815</ele>
        <time>2026-09-01T17:32:18.960Z</time>
      </trkpt>
      <trkpt lat="53.211777" lon="6.561208">
        <ele>6.602531</ele>
        <time>2026-09-01T17:32:21.959Z</time>
      </trkpt>
      <trkpt lat="53.211664" lon="6.561148">
        <ele>6.787403</ele>
        <time>2026-09-01T17:32:24.956Z</time>
      </trkpt>
      <trkpt lat="53.211570" lon="6.561134">
        <ele>6.934541</ele>
        <time>2026-09-01T17:32:26.959Z</time>
      </trkpt>
      <trkpt lat="53.211450" lon="6.561102">
        <ele>7.124005</ele>
        <time>2026-09-01T17:32:29.959Z</time>
      </trkpt>
      <trkpt lat="53.211327" lon="6.561075">
        <ele>7.317425</ele>
        <time>2026-09-01T17:32:32.958Z</time>
      </trkpt>
      <trkpt lat="53.211205" lon="6.561049">
        <ele>7.509180</ele>
        <time>2026-09-01T17:32:35.958Z</time>
      </trkpt>
      <trkpt lat="53.211091" lon="6.561036">
        <ele>7.687332</ele>
        <time>2026-09-01T17:32:38.960Z</time>
      </trkpt>
      <trkpt lat="53.210966" lon="6.561003">
        <ele>7.884642</ele>
        <time>2026-09-01T17:32:41.955Z</time>
      </trkpt>
      <trkpt lat="53.210845" lon="6.560975">
        <ele>8.075097</ele>
        <time>2026-09-01T17:32:44.958Z</time>
      </trkpt>
      <trkpt lat="53.210721" lon="6.560958">
        <ele>8.269077</ele>
        <time>2026-09-01T17:32:47.956Z</time>
      </trkpt>
      <trkpt lat="53.210606" lon="6.560946">
        <ele>8.448724</ele>
        <time>2026-09-01T17:32:50.956Z</time>
      </trkpt>
      <trkpt lat="53.210486" lon="6.560936">
        <ele>8.636050</ele>
        <time>2026-09-01T17:32:53.959Z</time>
      </trkpt>
      <trkpt lat="53.210354" lon="6.560916">
        <ele>8.468041</ele>
        <time>2026-09-01T17:32:56.957Z</time>
      </trkpt>
      <trkpt lat="53.210219" lon="6.560905">
        <ele>8.269752</ele>
        <time>2026-09-01T17:32:59.958Z</time>
      </trkpt>
      <trkpt lat="53.210119" lon="6.560887">
        <ele>8.122196</ele>
        <time>2026-09-01T17:33:01.958Z</time>
      </trkpt>
      <trkpt lat="53.210018" lon="6.560870">
        <ele>7.973272</ele>
        <time>2026-09-01T17:33:03.956Z</time>
      </trkpt>
      <trkpt lat="53.209916" lon="6.560861">
        <ele>7.823423</ele>
        <time>2026-09-01T17:33:05.965Z</time>
      </trkpt>
      <trkpt lat="53.209816" lon="6.560833">
        <ele>7.674668</ele>
        <time>2026-09-01T17:33:07.959Z</time>
      </trkpt>
      <trkpt lat="53.209718" lon="6.560832">
        <ele>7.530893</ele>
        <time>2026-09-01T17:33:09.972Z</time>
      </trkpt>
      <trkpt lat="53.209612" lon="6.560840">
        <ele>7.375226</ele>
        <time>2026-09-01T17:33:11.960Z</time>
      </trkpt>
      <trkpt lat="53.209504" lon="6.560849">
        <ele>7.216586</ele>
        <time>2026-09-01T17:33:13.959Z</time>
      </trkpt>
      <trkpt lat="53.209394" lon="6.560867">
        <ele>7.054436</ele>
        <time>2026-09-01T17:33:15.957Z</time>
      </trkpt>
      <trkpt lat="53.209288" lon="6.560893">
        <ele>6.897258</ele>
        <time>2026-09-01T17:33:17.972Z</time>
      </trkpt>
      <trkpt lat="53.209184" lon="6.560923">
        <ele>6.742424</ele>
        <time>2026-09-01T17:33:19.972Z</time>
      </trkpt>
      <trkpt lat="53.209090" lon="6.560960">
        <ele>6.600740</ele>
        <time>2026-09-01T17:33:21.964Z</time>
      </trkpt>
      <trkpt lat="53.208989" lon="6.561004">
        <ele>6.447606</ele>
        <time>2026-09-01T17:33:23.957Z</time>
      </trkpt>
      <trkpt lat="53.208887" lon="6.561059">
        <ele>6.290356</ele>
        <time>2026-09-01T17:33:25.961Z</time>
      </trkpt>
      <trkpt lat="53.208786" lon="6.561104">
        <ele>6.136999</ele>
        <time>2026-09-01T17:33:27.960Z</time>
      </trkpt>
      <trkpt lat="53.208687" lon="6.561156">
        <ele>5.971857</ele>
        <time>2026-09-01T17:33:29.962Z</time>
      </trkpt>
      <trkpt lat="53.208588" lon="6.561206">
        <ele>5.745509</ele>
        <time>2026-09-01T17:33:31.961Z</time>
      </trkpt>
      <trkpt lat="53.208493" lon="6.561255">
        <ele>5.527915</ele>
        <time>2026-09-01T17:33:33.968Z</time>
      </trkpt>
      <trkpt lat="53.208396" lon="6.561305">
        <ele>5.305752</ele>
        <time>2026-09-01T17:33:35.972Z</time>
      </trkpt>
      <trkpt lat="53.208303" lon="6.561357">
        <ele>5.091120</ele>
        <time>2026-09-01T17:33:37.959Z</time>
      </trkpt>
      <trkpt lat="53.208212" lon="6.561415">
        <ele>4.877958</ele>
        <time>2026-09-01T17:33:39.965Z</time>
      </trkpt>
      <trkpt lat="53.208115" lon="6.561450">
        <ele>4.660781</ele>
        <time>2026-09-01T17:33:41.957Z</time>
      </trkpt>
      <trkpt lat="53.208022" lon="6.561502">
        <ele>4.446149</ele>
        <time>2026-09-01T17:33:43.965Z</time>
      </trkpt>
      <trkpt lat="53.207930" lon="6.561548">
        <ele>4.235980</ele>
        <time>2026-09-01T17:33:45.959Z</time>
      </trkpt>
      <trkpt lat="53.207841" lon="6.561584">
        <ele>4.035576</ele>
        <time>2026-09-01T17:33:47.972Z</time>
      </trkpt>
      <trkpt lat="53.207729" lon="6.561642">
        <ele>3.778955</ele>
        <time>2026-09-01T17:33:50.961Z</time>
      </trkpt>
      <trkpt lat="53.207628" lon="6.561692">
        <ele>3.548413</ele>
        <time>2026-09-01T17:33:53.978Z</time>
      </trkpt>
      <trkpt lat="53.207542" lon="6.561632">
        <ele>3.344439</ele>
        <time>2026-09-01T17:33:56.964Z</time>
      </trkpt>
      <trkpt lat="53.207497" lon="6.561469">
        <ele>3.109192</ele>
        <time>2026-09-01T17:33:59.972Z</time>
      </trkpt>
      <trkpt lat="53.207462" lon="6.561318">
        <ele>2.896974</ele>
        <time>2026-09-01T17:34:02.961Z</time>
      </trkpt>
      <trkpt lat="53.207390" lon="6.561175">
        <ele>2.652113</ele>
        <time>2026-09-01T17:34:06.973Z</time>
      </trkpt>
      <trkpt lat="53.207275" lon="6.561229">
        <ele>2.390681</ele>
        <time>2026-09-01T17:34:10.966Z</time>
      </trkpt>
      <trkpt lat="53.207182" lon="6.561291">
        <ele>2.171534</ele>
        <time>2026-09-01T17:34:13.972Z</time>
      </trkpt>
      <trkpt lat="53.207073" lon="6.561351">
        <ele>2.041384</ele>
        <time>2026-09-01T17:34:16.961Z</time>
      </trkpt>
      <trkpt lat="53.206962" lon="6.561402">
        <ele>1.986927</ele>
        <time>2026-09-01T17:34:19.960Z</time>
      </trkpt>
      <trkpt lat="53.206847" lon="6.561445">
        <ele>1.931183</ele>
        <time>2026-09-01T17:34:22.972Z</time>
      </trkpt>
      <trkpt lat="53.206745" lon="6.561477">
        <ele>1.882090</ele>
        <time>2026-09-01T17:34:25.959Z</time>
      </trkpt>
      <trkpt lat="53.206694" lon="6.561289">
        <ele>1.823621</ele>
        <time>2026-09-01T17:34:29.966Z</time>
      </trkpt>
      <trkpt lat="53.206675" lon="6.561095">
        <ele>1.767930</ele>
        <time>2026-09-01T17:34:32.958Z</time>
      </trkpt>
      <trkpt lat="53.206646" lon="6.560911">
        <ele>1.714027</ele>
        <time>2026-09-01T17:34:35.964Z</time>
      </trkpt>
      <trkpt lat="53.206618" lon="6.560740">
        <ele>1.663804</ele>
        <time>2026-09-01T17:34:38.967Z</time>
      </trkpt>
      <trkpt lat="53.206575" lon="6.560588">
        <ele>1.616179</ele>
        <time>2026-09-01T17:34:41.956Z</time>
      </trkpt>
      <trkpt lat="53.206481" lon="6.560532">
        <ele>1.568970</ele>
        <time>2026-09-01T17:34:44.972Z</time>
      </trkpt>
      <trkpt lat="53.206392" lon="6.560550">
        <ele>1.526564</ele>
        <time>2026-09-01T17:34:46.958Z</time>
      </trkpt>
      <trkpt lat="53.206297" lon="6.560459">
        <ele>1.474757</ele>
        <time>2026-09-01T17:34:49.959Z</time>
      </trkpt>
      <trkpt lat="53.206273" lon="6.560282">
        <ele>1.423342</ele>
        <time>2026-09-01T17:34:52.974Z</time>
      </trkpt>
      <trkpt lat="53.206247" lon="6.560092">
        <ele>1.368127</ele>
        <time>2026-09-01T17:34:55.972Z</time>
      </trkpt>
      <trkpt lat="53.206221" lon="6.559900">
        <ele>1.312359</ele>
        <time>2026-09-01T17:34:58.972Z</time>
      </trkpt>
      <trkpt lat="53.206195" lon="6.559730">
        <ele>1.262651</ele>
        <time>2026-09-01T17:35:01.955Z</time>
      </trkpt>
      <trkpt lat="53.206188" lon="6.559575">
        <ele>1.223022</ele>
        <time>2026-09-01T17:35:04.960Z</time>
      </trkpt>
      <trkpt lat="53.206292" lon="6.559538">
        <ele>1.214175</ele>
        <time>2026-09-01T17:35:09.959Z</time>
      </trkpt>
      <trkpt lat="53.206394" lon="6.559470">
        <ele>1.205037</ele>
        <time>2026-09-01T17:35:14.965Z</time>
      </trkpt>
      <trkpt lat="53.206500" lon="6.559462">
        <ele>1.196209</ele>
        <time>2026-09-01T17:35:19.972Z</time>
      </trkpt>
      <trkpt lat="53.206573" lon="6.559550">
        <ele>1.188718</ele>
        <time>2026-09-01T17:35:24.966Z</time>
      </trkpt>
      <trkpt lat="53.206481" lon="6.559479">
        <ele>1.180286</ele>
        <time>2026-09-01T17:35:31.960Z</time>
      </trkpt>
      <trkpt lat="53.206391" lon="6.559502">
        <ele>1.172710</ele>
        <time>2026-09-01T17:35:34.958Z</time>
      </trkpt>
      <trkpt lat="53.206290" lon="6.559544">
        <ele>1.164050</ele>
        <time>2026-09-01T17:35:38.972Z</time>
      </trkpt>
      <trkpt lat="53.206216" lon="6.559413">
        <ele>1.155077</ele>
        <time>2026-09-01T17:35:43.959Z</time>
      </trkpt>
      <trkpt lat="53.206189" lon="6.559266">
        <ele>1.147415</ele>
        <time>2026-09-01T17:35:47.957Z</time>
      </trkpt>
      <trkpt lat="53.206096" lon="6.559249">
        <ele>1.139631</ele>
        <time>2026-09-01T17:35:51.972Z</time>
      </trkpt>
      <trkpt lat="53.206058" lon="6.559080">
        <ele>1.130636</ele>
        <time>2026-09-01T17:35:55.963Z</time>
      </trkpt>
      <trkpt lat="53.206038" lon="6.558917">
        <ele>1.122345</ele>
        <time>2026-09-01T17:35:58.965Z</time>
      </trkpt>
      <trkpt lat="53.206011" lon="6.558754">
        <ele>1.113917</ele>
        <time>2026-09-01T17:36:01.957Z</time>
      </trkpt>
      <trkpt lat="53.206012" lon="6.558595">
        <ele>1.105993</ele>
        <time>2026-09-01T17:36:04.966Z</time>
      </trkpt>
      <trkpt lat="53.206009" lon="6.558407">
        <ele>1.096622</ele>
        <time>2026-09-01T17:36:08.958Z</time>
      </trkpt>
      <trkpt lat="53.205989" lon="6.558246">
        <ele>1.088428</ele>
        <time>2026-09-01T17:36:13.959Z</time>
      </trkpt>
      <trkpt lat="53.205982" lon="6.558083">
        <ele>1.080285</ele>
        <time>2026-09-01T17:36:17.959Z</time>
      </trkpt>
      <trkpt lat="53.205931" lon="6.557957">
        <ele>1.070379</ele>
        <time>2026-09-01T17:36:22.958Z</time>
      </trkpt>
      <trkpt lat="53.205837" lon="6.557969">
        <ele>1.051196</ele>
        <time>2026-09-01T17:36:25.959Z</time>
      </trkpt>
      <trkpt lat="53.205738" lon="6.557974">
        <ele>1.031041</ele>
        <time>2026-09-01T17:36:28.965Z</time>
      </trkpt>
      <trkpt lat="53.205652" lon="6.557884">
        <ele>1.010388</ele>
        <time>2026-09-01T17:36:36.964Z</time>
      </trkpt>
      <trkpt lat="53.205583" lon="6.557767">
        <ele>0.990376</ele>
        <time>2026-09-01T17:36:41.964Z</time>
      </trkpt>
      <trkpt lat="53.205502" lon="6.557640">
        <ele>0.967765</ele>
        <time>2026-09-01T17:36:45.964Z</time>
      </trkpt>
      <trkpt lat="53.205423" lon="6.557545">
        <ele>0.947954</ele>
        <time>2026-09-01T17:36:48.958Z</time>
      </trkpt>
      <trkpt lat="53.205338" lon="6.557487">
        <ele>0.929269</ele>
        <time>2026-09-01T17:36:51.964Z</time>
      </trkpt>
      <trkpt lat="53.205296" lon="6.557337">
        <ele>0.909088</ele>
        <time>2026-09-01T17:36:55.964Z</time>
      </trkpt>
      <trkpt lat="53.205314" lon="6.557179">
        <ele>0.889486</ele>
        <time>2026-09-01T17:36:58.959Z</time>
      </trkpt>
      <trkpt lat="53.205329" lon="6.557014">
        <ele>0.869146</ele>
        <time>2026-09-01T17:37:02.958Z</time>
      </trkpt>
      <trkpt lat="53.205357" lon="6.556818">
        <ele>0.844588</ele>
        <time>2026-09-01T17:37:06.967Z</time>
      </trkpt>
      <trkpt lat="53.205407" lon="6.556665">
        <ele>0.823346</ele>
        <time>2026-09-01T17:37:09.958Z</time>
      </trkpt>
      <trkpt lat="53.205462" lon="6.556502">
        <ele>0.800544</ele>
        <time>2026-09-01T17:37:12.964Z</time>
      </trkpt>
      <trkpt lat="53.205513" lon="6.556350">
        <ele>0.779310</ele>
        <time>2026-09-01T17:37:15.957Z</time>
      </trkpt>
      <trkpt lat="53.205560" lon="6.556178">
        <ele>0.756268</ele>
        <time>2026-09-01T17:37:19.960Z</time>
      </trkpt>
      <trkpt lat="53.205598" lon="6.556027">
        <ele>0.736306</ele>
        <time>2026-09-01T17:37:23.959Z</time>
      </trkpt>
      <trkpt lat="53.205492" lon="6.555965">
        <ele>0.713451</ele>
        <time>2026-09-01T17:37:29.964Z</time>
      </trkpt>
      <trkpt lat="53.205403" lon="6.555995">
        <ele>0.714537</ele>
        <time>2026-09-01T17:37:32.964Z</time>
      </trkpt>
      <trkpt lat="53.205308" lon="6.556043">
        <ele>0.723953</ele>
        <time>2026-09-01T17:37:36.964Z</time>
      </trkpt>
      <trkpt lat="53.205198" lon="6.556084">
        <ele>0.734645</ele>
        <time>2026-09-01T17:37:40.960Z</time>
      </trkpt>
      <trkpt lat="53.205140" lon="6.555953">
        <ele>0.743902</ele>
        <time>2026-09-01T17:37:44.967Z</time>
      </trkpt>
      <trkpt lat="53.205097" lon="6.555817">
        <ele>0.752641</ele>
        <time>2026-09-01T17:37:47.964Z</time>
      </trkpt>
      <trkpt lat="53.205051" lon="6.555638">
        <ele>0.763708</ele>
        <time>2026-09-01T17:37:51.956Z</time>
      </trkpt>
      <trkpt lat="53.205008" lon="6.555486">
        <ele>0.773260</ele>
        <time>2026-09-01T17:37:54.959Z</time>
      </trkpt>
      <trkpt lat="53.204967" lon="6.555334">
        <ele>0.782733</ele>
        <time>2026-09-01T17:37:57.960Z</time>
      </trkpt>
      <trkpt lat="53.204917" lon="6.555164">
        <ele>0.793494</ele>
        <time>2026-09-01T17:38:01.972Z</time>
      </trkpt>
      <trkpt lat="53.204885" lon="6.555013">
        <ele>0.802596</ele>
        <time>2026-09-01T17:38:04.972Z</time>
      </trkpt>
      <trkpt lat="53.204833" lon="6.554881">
        <ele>0.811573</ele>
        <time>2026-09-01T17:38:07.958Z</time>
      </trkpt>
      <trkpt lat="53.204774" lon="6.554714">
        <ele>0.822590</ele>
        <time>2026-09-01T17:38:11.958Z</time>
      </trkpt>
      <trkpt lat="53.204722" lon="6.554561">
        <ele>0.832586</ele>
        <time>2026-09-01T17:38:15.965Z</time>
      </trkpt>
      <trkpt lat="53.204607" lon="6.554574">
        <ele>0.843521</ele>
        <time>2026-09-01T17:38:20.965Z</time>
      </trkpt>
      <trkpt lat="53.204519" lon="6.554626">
        <ele>0.852377</ele>
        <time>2026-09-01T17:38:23.959Z</time>
      </trkpt>
      <trkpt lat="53.204414" lon="6.554703">
        <ele>0.863257</ele>
        <time>2026-09-01T17:38:27.966Z</time>
      </trkpt>
      <trkpt lat="53.204305" lon="6.554762">
        <ele>0.874127</ele>
        <time>2026-09-01T17:38:31.965Z</time>
      </trkpt>
      <trkpt lat="53.204216" lon="6.554812">
        <ele>0.850689</ele>
        <time>2026-09-01T17:38:34.966Z</time>
      </trkpt>
      <trkpt lat="53.204116" lon="6.554821">
        <ele>0.784931</ele>
        <time>2026-09-01T17:38:37.964Z</time>
      </trkpt>
      <trkpt lat="53.204015" lon="6.554857">
        <ele>0.717117</ele>
        <time>2026-09-01T17:38:40.960Z</time>
      </trkpt>
      <trkpt lat="53.203905" lon="6.554916">
        <ele>0.641252</ele>
        <time>2026-09-01T17:38:43.964Z</time>
      </trkpt>
      <trkpt lat="53.203808" lon="6.554973">
        <ele>0.573729</ele>
        <time>2026-09-01T17:38:46.966Z</time>
      </trkpt>
      <trkpt lat="53.203714" lon="6.555028">
        <ele>0.508325</ele>
        <time>2026-09-01T17:38:49.966Z</time>
      </trkpt>
      <trkpt lat="53.203625" lon="6.555097">
        <ele>0.443891</ele>
        <time>2026-09-01T17:38:52.956Z</time>
      </trkpt>
      <trkpt lat="53.203522" lon="6.555168">
        <ele>0.370721</ele>
        <time>2026-09-01T17:38:55.965Z</time>
      </trkpt>
      <trkpt lat="53.203432" lon="6.555232">
        <ele>0.306487</ele>
        <time>2026-09-01T17:38:58.964Z</time>
      </trkpt>
      <trkpt lat="53.203339" lon="6.555277">
        <ele>0.242907</ele>
        <time>2026-09-01T17:39:01.965Z</time>
      </trkpt>
      <trkpt lat="53.203238" lon="6.555257">
        <ele>0.176123</ele>
        <time>2026-09-01T17:39:06.960Z</time>
      </trkpt>
      <trkpt lat="53.203189" lon="6.555080">
        <ele>0.099432</ele>
        <time>2026-09-01T17:39:10.964Z</time>
      </trkpt>
      <trkpt lat="53.203135" lon="6.554890">
        <ele>0.016719</ele>
        <time>2026-09-01T17:39:13.966Z</time>
      </trkpt>
      <trkpt lat="53.203080" lon="6.554686">
        <ele>-0.071269</ele>
        <time>2026-09-01T17:39:16.964Z</time>
      </trkpt>
      <trkpt lat="53.203050" lon="6.554494">
        <ele>-0.149311</ele>
        <time>2026-09-01T17:39:19.966Z</time>
      </trkpt>
      <trkpt lat="53.203055" lon="6.554293">
        <ele>-0.228434</ele>
        <time>2026-09-01T17:39:23.967Z</time>
      </trkpt>
      <trkpt lat="53.203014" lon="6.554129">
        <ele>-0.298329</ele>
        <time>2026-09-01T17:39:26.965Z</time>
      </trkpt>
      <trkpt lat="53.202966" lon="6.553968">
        <ele>-0.241055</ele>
        <time>2026-09-01T17:39:29.959Z</time>
      </trkpt>
      <trkpt lat="53.202924" lon="6.553796">
        <ele>-0.174485</ele>
        <time>2026-09-01T17:39:32.965Z</time>
      </trkpt>
      <trkpt lat="53.202863" lon="6.553630">
        <ele>-0.104687</ele>
        <time>2026-09-01T17:39:36.964Z</time>
      </trkpt>
      <trkpt lat="53.202831" lon="6.553488">
        <ele>-0.050312</ele>
        <time>2026-09-01T17:39:39.965Z</time>
      </trkpt>
      <trkpt lat="53.202793" lon="6.553318">
        <ele>0.014721</ele>
        <time>2026-09-01T17:39:43.965Z</time>
      </trkpt>
      <trkpt lat="53.202695" lon="6.553393">
        <ele>0.079226</ele>
        <time>2026-09-01T17:39:46.963Z</time>
      </trkpt>
      <trkpt lat="53.202629" lon="6.553506">
        <ele>0.135792</ele>
        <time>2026-09-01T17:39:51.963Z</time>
      </trkpt>
      <trkpt lat="53.202547" lon="6.553580">
        <ele>0.191566</ele>
        <time>2026-09-01T17:39:56.966Z</time>
      </trkpt>
      <trkpt lat="53.202458" lon="6.553458">
        <ele>0.260469</ele>
        <time>2026-09-01T17:39:59.964Z</time>
      </trkpt>
      <trkpt lat="53.202360" lon="6.553358">
        <ele>0.329193</ele>
        <time>2026-09-01T17:40:02.964Z</time>
      </trkpt>
      <trkpt lat="53.202239" lon="6.553315">
        <ele>0.403215</ele>
        <time>2026-09-01T17:40:05.958Z</time>
      </trkpt>
      <trkpt lat="53.202125" lon="6.553314">
        <ele>0.471427</ele>
        <time>2026-09-01T17:40:08.957Z</time>
      </trkpt>
      <trkpt lat="53.202026" lon="6.553344">
        <ele>0.531631</ele>
        <time>2026-09-01T17:40:11.964Z</time>
      </trkpt>
      <trkpt lat="53.201920" lon="6.553387">
        <ele>0.596901</ele>
        <time>2026-09-01T17:40:14.964Z</time>
      </trkpt>
      <trkpt lat="53.201812" lon="6.553429">
        <ele>0.663253</ele>
        <time>2026-09-01T17:40:17.965Z</time>
      </trkpt>
      <trkpt lat="53.201724" lon="6.553485">
        <ele>0.719603</ele>
        <time>2026-09-01T17:40:20.963Z</time>
      </trkpt>
      <trkpt lat="53.201817" lon="6.553494">
        <ele>0.774124</ele>
        <time>2026-09-01T17:40:26.967Z</time>
      </trkpt>
      <trkpt lat="53.201908" lon="6.553548">
        <ele>0.774124</ele>
        <time>2026-09-01T17:40:29.959Z</time>
      </trkpt>
      <trkpt lat="53.201946" lon="6.553698">
        <ele>0.774124</ele>
        <time>2026-09-01T17:40:32.964Z</time>
      </trkpt>
      <trkpt lat="53.201933" lon="6.553870">
        <ele>0.774124</ele>
        <time>2026-09-01T17:40:35.964Z</time>
      </trkpt>
      <trkpt lat="53.201962" lon="6.554052">
        <ele>0.774124</ele>
        <time>2026-09-01T17:40:38.963Z</time>
      </trkpt>
      <trkpt lat="53.202033" lon="6.554191">
        <ele>0.774124</ele>
        <time>2026-09-01T17:40:41.959Z</time>
      </trkpt>
      <trkpt lat="53.202084" lon="6.554322">
        <ele>0.774124</ele>
        <time>2026-09-01T17:40:44.957Z</time>
      </trkpt>
      <trkpt lat="53.202120" lon="6.554491">
        <ele>0.774124</ele>
        <time>2026-09-01T17:40:48.959Z</time>
      </trkpt>
      <trkpt lat="53.202070" lon="6.554625">
        <ele>0.774124</ele>
        <time>2026-09-01T17:40:53.973Z</time>
      </trkpt>
      <trkpt lat="53.201958" lon="6.554635">
        <ele>0.774124</ele>
        <time>2026-09-01T17:40:57.959Z</time>
      </trkpt>
      <trkpt lat="53.201846" lon="6.554662">
        <ele>0.774124</ele>
        <time>2026-09-01T17:41:01.959Z</time>
      </trkpt>
    </trkseg>
  </trk>
</gpx>